[[{"header":{"parameterUnit":"m.s-1","parameterCategory":1,"la1":30.6,"la2":29.2853,"lo1":-89.7004,"lo2":-87.6739,"dy":0.0162,"dx":0.0183,"nx":112,"ny":82,"refTime":"2024-05-24T12:00:00:Z","depth":0,"parameterNumber":2,"parameterNumberName":"U-component_of_WINDS"},"data":[0.0,0.0,0.0,0.0,0.0,0.0,0.0,0.0,0.0,0.0,0.0,0.0,0.0,0.0,0.0,0.0,0.0,0.0,0.0,0.0,0.0,0.0,0.0,0.0,0.0,0.0,0.0,0.0,0.0,0.0,0.0,0.0,0.0,0.0,0.0,0.0,0.0,0.0,0.0,0.0,0.0,0.0,0.0,0.0,0.0,0.0,0.0,0.0,0.0,0.0,0.0,0.0,0.0,0.0,0.0,0.0,0.0,0.0,0.0,0.0,0.0,0.0,0.0,0.0,0.0,0.0,0.0,0.0,0.0,0.0,0.0,0.0,0.0,0.0,0.0,0.0,0.0,0.0,0.0,0.0,0.0,0.0,0.0,0.0,0.0,0.0,0.0,0.0,0.0,0.0,0.0,2.3268,2.4347,2.5318,2.6103,2.4772,2.3762,2.3417,0.0,0.0,0.0,0.0,0.0,0.0,0.0,0.0,0.0,0.0,0.0,0.0,0.0,0.0,0.0,0.0,0.0,0.0,0.0,0.0,0.0,0.0,0.0,0.0,0.0,0.0,0.0,0.0,0.0,0.0,0.0,0.0,0.0,0.0,0.0,0.0,0.0,0.0,0.0,0.0,0.0,0.0,0.0,0.0,0.0,0.0,0.0,0.0,0.0,0.0,0.0,0.0,0.0,0.0,0.0,0.0,0.0,0.0,0.0,0.0,0.0,0.0,0.0,0.0,0.0,0.0,0.0,0.0,0.0,0.0,0.0,0.0,0.0,0.0,0.0,0.0,0.0,0.0,0.0,0.0,0.0,0.0,0.0,0.0,0.0,0.0,0.0,0.0,0.0,0.0,0.0,0.0,0.0,0.0,0.0,0.0,0.0,0.0,0.0,0.0,0.0,0.0,0.0,0.0,2.2833,2.5266,2.5207,2.5523,2.6814,2.5066,2.3762,2.3417,0.0,0.0,0.0,0.0,0.0,0.0,0.0,0.0,0.0,0.0,0.0,0.0,0.0,0.0,0.0,0.0,0.0,0.0,0.0,0.0,0.0,0.0,0.0,0.0,0.0,0.0,0.0,0.0,0.0,0.0,0.0,0.0,0.0,0.0,0.0,0.0,0.0,0.0,0.0,0.0,0.0,0.0,0.0,0.0,0.0,0.0,0.0,0.0,0.0,0.0,0.0,0.0,0.0,0.0,0.0,0.0,0.0,0.0,0.0,0.0,0.0,0.0,0.0,0.0,0.0,0.0,0.0,0.0,0.0,0.0,0.0,0.0,0.0,0.0,0.0,0.0,0.0,0.0,0.0,0.0,0.0,0.0,0.0,0.0,0.0,0.0,0.0,0.0,0.0,0.0,0.0,0.0,0.0,0.0,0.0,0.0,0.0,0.0,0.0,0.0,0.0,0.0,0.0,2.2225,2.3506,2.6293,2.565,2.5571,2.6988,2.512,2.3679,2.3161,2.275,0.0,0.0,0.0,0.0,0.0,0.0,0.0,0.0,0.0,0.0,0.0,0.0,0.0,0.0,0.0,0.0,0.0,0.0,0.0,0.0,0.0,0.0,0.0,0.0,0.0,0.0,0.0,0.0,0.0,0.0,0.0,0.0,0.0,0.0,0.0,0.0,0.0,0.0,0.0,0.0,0.0,0.0,0.0,0.0,0.0,0.0,0.0,0.0,0.0,0.0,0.0,0.0,0.0,0.0,0.0,0.0,0.0,0.0,0.0,0.0,0.0,0.0,0.0,0.0,0.0,0.0,0.0,0.0,0.0,0.0,0.0,0.0,0.0,0.0,0.0,0.0,0.0,0.0,0.0,0.0,0.0,0.0,0.0,0.0,0.0,0.0,0.0,0.0,0.0,0.0,0.0,0.0,0.0,0.0,0.0,0.0,0.0,0.0,0.0,0.0,0.0,0.0,2.3183,2.4353,2.683,2.5971,2.5734,2.6988,2.512,2.3613,2.2946,2.2461,0.0,0.0,0.0,0.0,0.0,0.0,0.0,0.0,0.0,0.0,0.0,0.0,0.0,0.0,0.0,0.0,0.0,0.0,0.0,0.0,0.0,0.0,0.0,0.0,0.0,0.0,0.0,0.0,0.0,0.0,0.0,0.0,0.0,0.0,0.0,0.0,0.0,0.0,0.0,0.0,0.0,0.0,0.0,0.0,0.0,0.0,0.0,0.0,0.0,0.0,0.0,0.0,0.0,0.0,0.0,0.0,0.0,0.0,0.0,0.0,0.0,0.0,0.0,0.0,0.0,0.0,0.0,0.0,0.0,0.0,0.0,0.0,0.0,0.0,0.0,0.0,0.0,0.0,0.0,0.0,0.0,0.0,0.0,0.0,0.0,0.0,0.0,0.0,0.0,0.0,0.0,0.0,0.0,0.0,0.0,0.0,0.0,0.0,0.0,0.0,0.0,0.0,2.4037,2.5428,2.6941,2.6404,2.6261,2.7025,2.512,2.3613,2.2946,2.2283,0.0,0.0,0.0,0.0,0.0,0.0,0.0,0.0,0.0,0.0,0.0,0.0,0.0,0.0,0.0,0.0,0.0,0.0,0.0,0.0,0.0,0.0,0.0,0.0,0.0,0.0,0.0,0.0,0.0,0.0,0.0,0.0,0.0,0.0,0.0,0.0,0.0,0.0,0.0,0.0,0.0,0.0,0.0,0.0,0.0,0.0,0.0,0.0,0.0,0.0,0.0,0.0,0.0,0.0,0.0,0.0,0.0,0.0,0.0,0.0,0.0,0.0,0.0,0.0,0.0,0.0,0.0,0.0,0.0,0.0,0.0,0.0,0.0,0.0,0.0,0.0,0.0,0.0,0.0,0.0,0.0,0.0,0.0,0.0,0.0,0.0,0.0,0.0,0.0,0.0,0.0,0.0,0.0,0.0,0.0,0.0,0.0,0.0,0.0,0.0,0.0,0.0,2.3727,2.4999,0.0,2.5942,2.5691,2.6768,2.4913,2.3434,2.2763,0.0,0.0,0.0,0.0,0.0,0.0,0.0,0.0,0.0,0.0,0.0,0.0,0.0,0.0,0.0,0.0,0.0,0.0,0.0,0.0,0.0,0.0,0.0,0.0,0.0,0.0,0.0,0.0,0.0,0.0,0.0,0.0,0.0,0.0,0.0,0.0,0.0,0.0,0.0,0.0,0.0,0.0,0.0,0.0,0.0,0.0,0.0,0.0,0.0,0.0,0.0,0.0,0.0,0.0,0.0,0.0,0.0,0.0,0.0,0.0,0.0,0.0,0.0,0.0,0.0,0.0,0.0,0.0,0.0,0.0,0.0,0.0,0.0,0.0,0.0,0.0,0.0,0.0,0.0,0.0,0.0,0.0,0.0,0.0,0.0,0.0,0.0,0.0,0.0,0.0,0.0,0.0,0.0,0.0,0.0,0.0,0.0,0.0,0.0,0.0,0.0,0.0,2.2744,2.3969,2.5324,0.0,2.6036,2.5817,2.6692,2.4679,2.3155,2.2658,0.0,0.0,0.0,0.0,0.0,0.0,0.0,0.0,0.0,0.0,0.0,0.0,0.0,0.0,0.0,0.0,0.0,0.0,0.0,0.0,0.0,0.0,0.0,0.0,0.0,0.0,0.0,0.0,0.0,0.0,0.0,0.0,0.0,0.0,0.0,0.0,0.0,0.0,0.0,0.0,0.0,0.0,0.0,0.0,0.0,0.0,0.0,0.0,0.0,0.0,0.0,0.0,0.0,0.0,0.0,0.0,0.0,0.0,0.0,0.0,0.0,0.0,0.0,0.0,0.0,0.0,0.0,0.0,0.0,0.0,0.0,0.0,0.0,0.0,0.0,0.0,0.0,0.0,0.0,0.0,0.0,0.0,0.0,0.0,0.0,0.0,0.0,0.0,0.0,0.0,0.0,0.0,0.0,0.0,0.0,0.0,0.0,0.0,0.0,0.0,0.0,0.0,2.2614,2.4999,2.6743,2.6884,2.6895,2.6895,2.6884,2.4433,2.2844,0.0,0.0,0.0,0.0,0.0,0.0,0.0,0.0,0.0,0.0,0.0,0.0,0.0,0.0,0.0,0.0,0.0,0.0,0.0,0.0,0.0,0.0,0.0,0.0,0.0,0.0,0.0,0.0,0.0,0.0,0.0,0.0,0.0,0.0,0.0,0.0,0.0,0.0,0.0,0.0,0.0,0.0,0.0,0.0,0.0,0.0,0.0,0.0,0.0,0.0,0.0,0.0,0.0,0.0,0.0,0.0,0.0,0.0,0.0,0.0,0.0,0.0,0.0,0.0,0.0,0.0,0.0,0.0,0.0,0.0,0.0,0.0,0.0,0.0,0.0,0.0,0.0,0.0,0.0,0.0,0.0,0.0,0.0,0.0,0.0,0.0,0.0,0.0,0.0,0.0,0.0,0.0,0.0,0.0,0.0,0.0,0.0,0.0,0.0,0.0,0.0,0.0,0.0,2.2744,2.4724,2.6238,2.6722,2.624,2.6082,2.6512,2.4053,2.2465,2.2412,0.0,0.0,0.0,0.0,0.0,0.0,0.0,0.0,0.0,0.0,0.0,0.0,0.0,0.0,0.0,0.0,0.0,0.0,0.0,0.0,0.0,0.0,0.0,0.0,0.0,0.0,0.0,0.0,0.0,0.0,0.0,0.0,0.0,0.0,0.0,0.0,0.0,0.0,0.0,0.0,0.0,0.0,0.0,0.0,0.0,0.0,0.0,0.0,0.0,0.0,0.0,0.0,0.0,0.0,0.0,0.0,0.0,0.0,0.0,0.0,0.0,0.0,0.0,0.0,0.0,0.0,0.0,0.0,0.0,0.0,0.0,0.0,0.0,0.0,0.0,0.0,0.0,0.0,0.0,0.0,0.0,0.0,0.0,0.0,0.0,0.0,0.0,0.0,0.0,0.0,0.0,0.0,0.0,0.0,0.0,0.0,0.0,0.0,0.0,0.0,0.0,0.0,2.2598,2.4635,2.6187,2.6585,2.6193,2.605,2.6408,2.3967,2.2399,2.2337,0.0,0.0,0.0,0.0,0.0,0.0,0.0,0.0,0.0,0.0,0.0,0.0,0.0,0.0,0.0,0.0,0.0,0.0,0.0,0.0,0.0,0.0,0.0,0.0,0.0,0.0,0.0,0.0,0.0,0.0,0.0,0.0,0.0,0.0,0.0,0.0,0.0,0.0,0.0,0.0,0.0,0.0,0.0,0.0,0.0,0.0,0.0,0.0,0.0,0.0,0.0,0.0,0.0,0.0,0.0,0.0,0.0,0.0,0.0,0.0,0.0,0.0,0.0,0.0,0.0,0.0,0.0,0.0,0.0,0.0,0.0,0.0,0.0,0.0,0.0,0.0,0.0,0.0,0.0,0.0,0.0,0.0,0.0,0.0,0.0,0.0,0.0,0.0,0.0,0.0,0.0,0.0,0.0,0.0,0.0,0.0,0.0,0.0,0.0,0.0,0.0,0.0,2.241,2.4765,2.6463,2.659,2.6583,2.6556,2.6497,2.4206,2.2646,2.2412,0.0,0.0,0.0,0.0,0.0,0.0,0.0,0.0,0.0,0.0,0.0,0.0,0.0,0.0,0.0,0.0,0.0,0.0,0.0,0.0,0.0,0.0,0.0,0.0,0.0,0.0,0.0,0.0,0.0,0.0,0.0,0.0,0.0,0.0,0.0,0.0,0.0,0.0,0.0,0.0,0.0,0.0,0.0,0.0,0.0,0.0,0.0,0.0,0.0,0.0,0.0,0.0,0.0,0.0,0.0,0.0,0.0,0.0,0.0,0.0,1.8457,0.0,0.0,0.0,0.0,0.0,0.0,0.0,0.0,0.0,0.0,0.0,0.0,0.0,0.0,0.0,0.0,0.0,0.0,0.0,0.0,0.0,0.0,0.0,0.0,0.0,0.0,0.0,0.0,0.0,0.0,0.0,0.0,0.0,0.0,0.0,0.0,0.0,0.0,0.0,0.0,0.0,2.318,2.5164,2.6689,2.7237,2.7246,2.6984,2.6467,2.4894,2.3475,2.2385,2.0835,0.0,0.0,0.0,0.0,0.0,0.0,0.0,0.0,0.0,0.0,0.0,0.0,0.0,0.0,0.0,0.0,0.0,0.0,0.0,0.0,0.0,0.0,0.0,0.0,0.0,0.0,0.0,0.0,0.0,0.0,0.0,0.0,0.0,0.0,0.0,0.0,0.0,0.0,0.0,0.0,0.0,0.0,0.0,0.0,0.0,0.0,0.0,0.0,0.0,0.0,0.0,0.0,0.0,0.0,0.0,0.0,0.0,0.0,0.0,0.0,1.8997,0.0,0.0,0.0,0.0,0.0,0.0,0.0,0.0,0.0,0.0,0.0,0.0,0.0,0.0,0.0,0.0,0.0,0.0,0.0,0.0,0.0,0.0,0.0,0.0,0.0,0.0,0.0,0.0,0.0,0.0,0.0,0.0,0.0,0.0,0.0,0.0,0.0,0.0,0.0,0.0,2.2914,2.483,2.6317,2.6952,2.7248,2.7119,2.6399,2.5092,2.3733,2.2388,2.1077,0.0,0.0,0.0,0.0,0.0,0.0,0.0,0.0,0.0,0.0,0.0,0.0,0.0,0.0,0.0,0.0,0.0,0.0,0.0,0.0,0.0,0.0,0.0,0.0,0.0,0.0,0.0,0.0,0.0,0.0,0.0,0.0,0.0,0.0,0.0,0.0,0.0,0.0,0.0,0.0,0.0,0.0,0.0,0.0,0.0,0.0,0.0,0.0,0.0,0.0,0.0,0.0,0.0,2.054,2.0822,2.1188,2.1251,2.1387,2.1553,2.0925,2.0398,1.9937,1.9456,0.0,0.0,0.0,0.0,0.0,0.0,0.0,0.0,0.0,0.0,0.0,0.0,0.0,0.0,0.0,0.0,0.0,0.0,0.0,0.0,0.0,0.0,0.0,0.0,2.1724,2.1935,2.0056,0.0,0.0,0.0,0.0,0.0,0.0,0.0,0.0,0.0,0.0,0.0,2.2721,2.456,2.6022,2.6753,2.7274,2.7226,2.6399,2.5307,2.404,2.2573,2.1319,2.0342,0.0,0.0,0.0,0.0,0.0,0.0,0.0,0.0,0.0,0.0,0.0,0.0,0.0,0.0,0.0,0.0,0.0,0.0,0.0,0.0,0.0,0.0,0.0,0.0,0.0,0.0,0.0,0.0,0.0,0.0,0.0,0.0,1.3421,1.3673,0.0,0.0,0.0,0.0,0.0,0.0,0.0,0.0,0.0,0.0,0.0,0.0,0.0,2.0035,2.0971,2.15,2.2056,2.2586,2.3472,2.374,2.3485,2.3828,2.3828,2.3523,2.3372,0.0,2.0677,2.064,0.0,0.0,0.0,0.0,0.0,0.0,0.0,0.0,0.0,0.0,0.0,0.0,0.0,0.0,0.0,0.0,0.0,0.0,0.0,0.0,0.0,0.0,2.2836,2.2836,2.2971,2.2862,0.0,2.1143,2.032,1.9699,1.9454,0.0,0.0,0.0,0.0,0.0,0.0,0.0,2.4088,2.5477,2.6777,2.8011,2.8209,2.7765,2.6488,2.6222,2.5282,2.3286,2.2449,2.1735,2.1057,1.9884,0.0,0.0,0.0,0.0,0.0,0.0,0.0,0.0,0.0,0.0,0.0,0.0,0.0,0.0,0.0,0.0,0.0,0.0,0.0,0.0,0.0,0.0,0.0,0.0,0.0,0.0,0.0,0.0,0.0,1.354,1.4082,1.4274,1.4829,1.5386,0.0,0.0,0.0,0.0,0.0,0.0,0.0,0.0,0.0,2.1162,2.1243,2.1502,2.2015,2.2285,2.2808,2.3573,2.4012,2.4381,2.4695,2.4858,2.4858,2.4683,2.4665,2.3962,2.2831,2.2188,2.1849,2.1681,0.0,0.0,0.0,0.0,2.1602,2.1709,2.3065,2.3079,2.2564,2.2822,0.0,0.0,0.0,0.0,0.0,0.0,0.0,0.0,0.0,0.0,2.3784,2.4123,2.4476,2.4462,2.3513,2.2903,2.2158,0.0,2.0584,2.0323,1.9684,0.0,0.0,0.0,0.0,2.2033,2.3451,2.5055,2.6409,2.7352,2.8024,2.7857,2.6514,2.6364,2.5472,2.3425,2.3025,2.2388,2.1334,2.076,2.0141,0.0,0.0,0.0,0.0,0.0,0.0,0.0,0.0,0.0,0.0,0.0,0.0,0.0,0.0,0.0,0.0,0.0,0.0,0.0,0.0,0.0,0.0,0.0,0.0,0.0,0.0,0.0,0.0,1.4126,1.466,1.482,1.554,1.6175,0.0,0.0,0.0,0.0,0.0,0.0,2.0825,2.0917,2.1474,2.2692,2.2689,2.2858,2.3253,2.311,2.3502,2.4459,2.4313,2.4666,2.5396,2.5362,2.5356,2.5344,2.5307,2.5066,2.4632,2.3465,2.3213,2.3492,2.2605,2.2671,2.3295,2.3892,2.3933,2.3947,2.5738,2.5778,2.5045,2.5208,2.4624,2.3689,2.2645,0.0,0.0,0.0,0.0,2.2767,2.3662,2.434,2.4895,2.5357,2.5805,2.5887,2.4977,2.4787,2.4204,0.0,2.1738,2.1357,2.0514,0.0,0.0,0.0,0.0,2.2219,2.3302,2.4805,2.6056,2.6813,2.7658,2.7684,2.6503,2.6338,2.5538,2.3671,2.3394,2.2875,2.1895,2.1507,2.0879,1.9984,0.0,0.0,0.0,0.0,0.0,0.0,0.0,0.0,0.0,0.0,0.0,0.0,0.0,0.0,0.0,0.0,0.0,0.0,0.0,0.0,0.0,0.0,0.0,0.0,0.0,0.0,0.0,0.0,0.0,1.4607,1.5488,0.0,0.0,0.0,0.0,1.9811,2.039,2.0977,2.1688,2.1729,2.241,2.3861,2.3555,2.3994,2.5346,2.4532,2.465,2.5693,2.519,2.5217,2.5681,2.555,2.5483,2.5478,2.535,2.527,2.518,2.4155,2.3979,2.4341,2.4353,2.4902,2.5792,2.6401,2.6971,2.7461,2.7569,2.7569,2.7608,2.818,2.7191,2.5643,2.5018,2.4421,0.0,0.0,2.4788,2.5698,2.5752,2.6211,2.6671,2.6698,2.6725,2.674,2.6686,2.6657,2.5952,0.0,2.2659,2.2251,2.2183,0.0,2.1506,2.2072,2.2643,2.3464,2.4737,2.5374,2.6171,2.7327,2.7515,2.7227,2.6469,2.6391,2.5791,2.4338,2.3656,2.332,2.3382,2.2037,2.1356,2.149,2.0078,0.0,0.0,0.0,0.0,0.0,0.0,0.0,0.0,0.0,0.0,0.0,0.0,0.0,0.0,0.0,0.0,0.0,0.0,0.0,0.0,0.0,0.0,0.0,0.0,0.0,0.0,0.0,0.0,1.6164,1.7246,0.0,1.8564,1.8717,1.9533,2.1397,2.1122,2.1827,2.4066,2.3952,2.4342,2.5582,2.5467,2.5658,2.6194,2.527,2.5279,2.6245,2.51,2.4774,2.5169,2.4812,2.4794,2.5048,2.5004,2.5105,2.5276,2.4903,2.5078,2.5523,2.5172,2.5441,2.6044,2.6282,2.6491,2.6778,2.7516,2.7762,2.7867,2.8422,2.8153,2.7612,2.7379,2.7162,2.6999,2.6999,2.7311,2.7734,2.8114,2.8386,2.8532,2.8532,2.8532,2.8315,2.754,2.7377,2.7011,2.5763,2.472,2.3784,2.3012,2.27,2.2497,2.2332,2.3125,2.3913,2.4352,2.5236,2.5987,2.6415,2.6784,2.6665,2.5888,2.5817,2.5394,2.4363,2.4087,2.3583,2.2754,2.2263,2.1547,2.0593,1.9723,1.9187,0.0,0.0,0.0,0.0,0.0,0.0,0.0,0.0,0.0,0.0,0.0,0.0,0.0,0.0,0.0,0.0,0.0,0.0,0.0,0.0,0.0,0.0,0.0,0.0,0.0,0.0,1.6717,1.718,1.8218,1.8991,1.9229,1.9823,2.082,2.2355,2.2353,2.3124,2.5073,2.5062,2.5391,2.6239,2.6289,2.6368,2.6561,2.577,2.5683,2.6291,2.5309,2.5044,2.543,2.5123,2.5203,2.558,2.558,2.552,2.5406,2.5406,2.5529,2.5734,2.5844,2.6219,2.6733,2.6938,2.7015,2.7117,2.7883,2.8132,2.8157,2.8312,2.8478,2.8626,2.8626,2.8754,2.8956,2.9143,2.9211,2.9292,2.9702,2.9811,2.9811,2.9811,2.9811,2.9577,2.8774,2.8614,2.8421,2.7841,2.6564,2.5289,2.4272,2.4109,2.3906,2.3309,2.3892,2.4408,2.4408,2.5108,2.5674,2.588,2.6376,2.6309,2.5352,2.5578,2.5274,2.4138,2.4209,2.3769,2.2544,2.2413,2.1729,2.0357,1.9589,1.9255,1.936,0.0,0.0,0.0,0.0,0.0,0.0,0.0,0.0,0.0,0.0,0.0,0.0,0.0,0.0,0.0,0.0,0.0,0.0,0.0,0.0,0.0,0.0,0.0,1.6119,1.6546,1.7046,1.7516,1.8293,1.8835,1.8927,2.0892,2.23,2.266,2.412,2.487,2.4592,2.4998,2.5433,2.5829,2.5927,2.6159,2.6578,2.6159,2.5971,2.5982,2.5939,2.6137,2.6491,2.6501,2.6706,2.7074,2.7074,2.6534,2.5669,2.5646,2.5349,2.5033,2.6398,2.7281,2.7896,2.8474,2.871,2.8715,2.8715,2.8746,2.8705,2.8121,2.8304,2.8758,2.8758,2.9127,2.9648,3.0242,3.0388,3.0388,3.0388,3.0401,3.0428,3.0428,3.0428,3.0442,3.0428,3.0428,3.0256,2.9648,2.8112,2.6713,2.6078,2.5969,2.5752,2.5127,2.5032,0.0,2.5005,2.5005,2.523,2.5839,2.6363,2.617,2.4958,2.571,2.5506,2.3747,2.402,2.3845,2.2904,2.2505,2.1875,2.102,1.9856,1.9428,1.9729,0.0,0.0,0.0,0.0,0.0,0.0,0.0,0.0,0.0,0.0,0.0,0.0,0.0,0.0,0.0,0.0,0.0,0.0,0.0,0.0,0.0,0.0,1.6608,1.6608,1.7634,1.8555,1.8976,2.0323,2.1366,2.1665,2.2562,2.362,2.4838,2.4612,2.5026,2.639,2.6294,2.6419,2.6866,2.7235,2.7664,2.8153,2.7664,2.7631,2.7988,2.6909,2.6473,2.6569,2.6228,2.6271,2.6665,2.6665,2.6876,2.7149,2.6788,2.6725,2.6801,2.5804,2.5653,2.6024,2.6201,2.6546,2.6909,2.6909,2.7703,2.8703,2.8532,2.9143,2.9925,2.9925,3.0028,3.0188,3.0347,3.0388,3.0388,3.0388,3.073,3.1042,3.1042,3.1382,3.1603,3.1151,3.1042,3.0866,3.0269,2.9754,2.8937,2.7461,2.7216,2.685,2.5805,2.5643,0.0,2.5059,2.5005,2.523,2.5839,2.6029,2.61,2.6041,2.5538,2.4964,2.4358,2.3677,2.2951,2.2211,2.2127,2.1755,2.1084,2.094,2.065,0.0,0.0,0.0,0.0,0.0,0.0,0.0,0.0,0.0,0.0,0.0,0.0,0.0,0.0,0.0,0.0,0.0,0.0,0.0,0.0,0.0,0.0,1.6942,1.7684,1.7935,1.8638,1.9315,1.9793,2.1091,2.2039,2.2258,2.3412,2.4508,2.5396,2.5495,2.6022,2.7192,2.7217,2.7228,2.7293,2.7966,2.8388,2.8454,2.8388,2.8487,2.8776,2.7919,2.7523,2.7512,2.725,2.725,2.7468,2.7468,2.7504,2.7575,2.7497,2.7227,0.0,0.0,0.0,0.0,0.0,2.5523,2.5821,2.5821,2.6454,2.7279,2.7279,2.804,2.9029,2.9268,2.9657,3.0079,3.0337,3.0388,3.0388,3.0388,3.0663,3.092,3.092,3.1368,3.1739,3.1368,3.1508,3.1576,3.1219,3.1151,0.0,2.9428,2.879,2.8125,2.7178,2.6592,2.6158,2.5791,2.5303,2.5132,2.5495,2.5757,2.5788,2.5525,2.53,0.0,0.0,0.0,2.2852,2.1943,2.1528,0.0,0.0,0.0,0.0,0.0,0.0,0.0,0.0,2.108,2.103,0.0,0.0,0.0,0.0,0.0,0.0,0.0,0.0,0.0,0.0,0.0,0.0,0.0,0.0,0.0,0.0,1.8075,1.9005,1.9569,1.9637,1.9822,2.0356,2.1237,2.184,2.1951,2.3927,2.52,2.5253,2.6573,2.7369,2.7369,0.0,0.0,0.0,0.0,2.8441,2.7991,2.8462,2.8749,2.8803,2.8803,2.8803,2.8803,2.8803,2.8803,2.8803,2.8873,2.8402,2.7668,2.8141,2.749,2.6168,2.6078,2.6057,2.6033,2.5504,2.5312,2.5312,2.5312,0.0,0.0,2.546,2.6208,2.7199,2.7798,2.8601,2.9426,3.0028,3.0153,3.0116,3.0184,3.0256,3.031,3.031,3.0758,3.1192,3.1192,3.1671,3.2092,3.2092,3.2146,3.2024,3.1494,3.0463,2.9472,2.8807,2.78,2.7065,2.693,2.5913,2.5196,2.5198,0.0,0.0,2.4477,2.5149,2.4968,2.3415,2.3612,2.3279,2.2144,2.1304,2.0973,2.1244,2.1943,2.2556,2.3071,2.3693,2.3992,2.3975,2.2543,2.245,0.0,0.0,0.0,0.0,0.0,0.0,0.0,0.0,0.0,0.0,0.0,0.0,0.0,0.0,0.0,1.774,1.8759,1.9521,1.9812,2.0876,2.1677,2.1805,2.2452,2.3251,2.4177,2.5488,2.6444,2.6824,2.7477,2.786,2.786,2.7947,2.7773,2.7304,2.749,2.7708,2.7991,2.8112,2.8375,2.8803,0.0,0.0,2.8803,2.8803,2.8803,2.8827,2.9209,2.9465,2.9647,2.9747,2.9331,2.8415,2.6392,2.5813,2.6033,2.5504,2.5312,2.5312,2.5312,2.5629,2.6087,2.6471,2.7067,2.7737,2.8239,2.8257,0.0,2.8792,2.864,2.8399,2.8841,2.9322,2.9675,2.9675,3.0133,3.0581,3.0581,3.1042,3.1481,3.1481,3.1875,3.216,3.2051,3.144,3.0585,2.9485,2.9132,2.8644,2.7649,2.6903,2.6429,2.6384,2.6091,2.5972,2.619,2.5548,2.4995,2.4651,2.4059,2.3607,2.3357,2.3591,2.3603,2.3404,2.3971,2.4221,2.4118,2.4454,2.4636,2.4621,2.4357,2.4084,0.0,0.0,0.0,0.0,0.0,0.0,0.0,0.0,0.0,0.0,0.0,1.6344,0.0,0.0,1.8134,1.8872,1.9592,2.0165,2.0466,2.115,2.1647,2.1647,2.2742,2.3708,2.4285,2.541,2.6346,2.6911,2.738,2.7653,2.7653,2.7653,2.7435,2.6966,2.7173,2.7402,2.7653,2.7871,2.8264,2.8803,2.8803,2.8803,2.8803,2.8803,2.8803,2.8803,2.9047,2.9278,2.9498,2.9498,2.9739,2.9908,2.7853,2.6996,2.6803,2.5997,2.5877,2.6063,2.5787,2.6069,2.6584,2.6822,2.729,2.7851,2.8387,2.8589,2.8699,2.8978,2.8869,2.8641,2.8603,2.882,2.9051,2.9051,2.9512,2.9944,2.9944,3.0418,3.0853,3.0853,3.1327,3.1752,3.1752,3.1752,3.1549,3.0938,3.0341,2.9726,2.9143,2.8261,2.746,2.683,2.6515,2.6215,2.588,2.5048,2.4554,2.4554,2.3857,2.3527,2.3682,2.3965,2.4141,2.424,2.4803,2.5099,2.5099,2.5571,2.5794,2.5794,2.5849,2.5485,0.0,0.0,0.0,0.0,0.0,0.0,0.0,0.0,1.6338,1.6851,1.7197,1.7649,1.8516,1.8958,1.9364,1.9923,2.034,2.072,2.104,2.129,2.1423,2.1423,2.2826,2.3865,2.3994,2.5075,2.6032,2.6563,2.7031,2.7249,2.7162,2.7162,2.6944,2.6486,2.6824,2.7064,2.7151,2.7555,2.8035,2.8638,2.8638,2.8705,2.8803,2.8803,2.8803,2.8803,2.8896,2.8989,2.9072,2.9071,2.973,3.0624,2.9291,2.8524,2.806,2.697,2.6772,2.6982,2.6562,2.6628,2.691,2.7018,2.7362,2.7811,2.8397,2.8848,2.9202,2.9415,2.9342,2.911,2.8836,2.8698,2.8603,2.8603,2.8969,2.9322,2.9322,2.9811,3.0228,3.0228,3.0812,3.13,3.13,3.1807,3.22,3.22,3.1368,3.0717,3.0595,2.9618,2.8532,2.7432,2.7215,2.6659,2.5452,2.4801,2.4408,2.4286,2.3879,2.3793,2.4107,2.4172,2.4404,2.4839,2.5387,2.5749,2.5903,2.6505,2.6792,2.6792,2.6792,2.6502,1.1019,1.2208,1.3696,1.4839,1.5371,1.5924,0.0,0.0,1.7833,1.8787,1.8873,1.9013,1.9833,1.9885,1.9945,2.0361,2.0772,2.1062,2.1099,2.1976,2.2617,2.2617,2.3304,2.4059,2.4701,2.5808,2.6519,2.6584,2.7031,2.7119,2.6704,2.6682,2.6464,2.5994,2.6037,2.6267,2.666,2.6737,2.7217,2.8101,2.8101,2.8342,2.8803,2.8803,2.8803,2.8827,2.9232,2.9669,3.0045,3.0045,3.0135,3.0202,2.956,2.9568,2.9787,2.865,2.7962,2.7601,2.7541,2.7253,2.697,2.7457,2.7652,2.7794,2.8343,2.8239,2.8107,2.9133,2.873,2.8209,2.9154,2.8997,2.8603,2.8603,2.8657,2.8711,2.8711,2.9173,2.9594,2.9594,3.0531,3.13,3.13,3.1807,3.22,3.22,3.2092,3.1807,3.126,3.0622,2.9944,2.9268,2.8725,2.7908,2.6699,2.605,2.5466,2.4923,2.5121,2.537,2.5642,2.5884,2.6043,2.6096,2.6448,2.6504,2.6236,2.6616,2.6792,2.6792,2.6792,2.6749,1.3262,1.39,0.0,0.0,1.6409,1.6923,1.7635,1.8341,1.8974,1.9397,1.9768,2.0156,2.048,2.0583,2.0698,0.0,2.1252,2.1453,2.1453,2.2218,2.2803,2.2803,2.3777,2.4573,2.4861,2.5328,2.5765,2.6159,2.6366,2.6409,2.6191,2.618,2.6093,2.5906,2.5895,2.6136,2.6606,2.6606,2.6933,2.7599,2.7599,2.785,2.8342,2.8342,2.8484,2.8803,2.9001,2.9347,2.9783,2.9783,2.9943,3.0193,3.0256,3.0409,3.0443,2.9068,2.8792,2.9015,2.837,2.8214,2.8274,2.819,2.8166,2.834,2.9266,2.9392,2.9391,3.0262,3.017,2.978,2.9558,2.9309,2.9037,2.8684,2.8603,2.8603,2.8603,2.8807,2.8983,2.8983,2.9675,3.0245,3.0245,3.1046,3.1684,3.1684,3.1983,3.2105,3.1861,3.1603,3.107,3.012,2.9157,2.8397,2.7895,2.7482,2.7123,2.6876,2.6479,2.6399,2.6704,2.6443,2.6391,2.6592,2.674,2.674,2.6592,2.6725,2.6968,2.7317,2.7317,2.7724,1.4956,0.0,0.0,1.6594,1.7397,1.7944,1.8026,1.8804,1.9583,1.9805,2.0314,2.0787,2.1018,2.1176,2.1304,2.1453,2.1614,2.1776,2.1976,2.2463,2.2947,2.3341,2.4283,2.4967,2.5168,2.519,2.538,2.5853,2.5895,2.5895,2.5895,2.5895,2.5895,2.5895,2.5895,2.6049,2.6398,2.6409,2.6638,2.7097,2.7097,2.7348,2.7817,2.7936,2.8275,2.8803,2.8803,2.8978,2.9301,2.9301,2.9577,3.0034,3.0238,3.0555,3.0741,2.9507,2.9579,3.0215,2.9424,2.9316,2.9436,2.8895,2.8827,2.9097,2.9844,3.0177,3.0429,3.1086,3.1177,3.089,3.0184,2.9743,2.939,2.8956,2.8725,2.8603,2.8603,2.8603,2.8603,2.8603,2.9092,2.9499,2.9499,3.0368,3.111,3.126,3.1671,3.201,3.2173,3.22,3.1875,3.0988,2.9957,2.9315,2.9236,2.8887,2.8678,2.862,2.7813,2.7484,2.7811,2.7182,2.6975,2.7315,2.7315,2.7315,2.7315,2.749,2.781,2.8232,2.842,2.9087,0.0,0.0,1.7027,1.7387,1.8212,1.8889,1.8716,1.8999,1.9522,2.0319,2.0503,2.0759,2.1535,2.1691,2.1668,2.17,2.1709,2.1954,2.2671,2.2781,2.3319,2.4669,2.4861,2.5168,0.0,2.5874,2.5874,2.5895,2.5895,2.5895,2.5895,2.5895,2.5895,2.5895,2.5895,2.5906,2.5917,2.5917,2.6168,2.6627,2.6627,2.6868,2.7326,2.7795,2.8275,2.8803,2.8803,2.8803,2.8827,2.8827,2.9105,2.9485,2.9035,2.9692,3.0847,3.0351,3.045,3.0865,3.0841,3.0504,2.9998,2.9448,2.9663,3.0054,2.958,2.9832,3.0431,3.1039,3.0824,3.0546,3.1105,3.0381,2.9499,2.9472,2.9037,2.8603,2.8603,2.8603,2.8603,2.8603,2.9092,2.9499,2.9499,3.0011,3.0635,3.1205,3.1314,3.1549,3.2119,3.22,3.2187,3.2146,3.1603,3.1101,3.0844,3.0292,2.9861,2.9668,2.9077,2.8873,2.9142,2.8512,2.8297,2.8637,2.8637,2.8637,2.8637,2.9232,2.9523,2.9552,3.022,3.0858,0.0,0.0,1.756,1.8471,1.8759,1.8856,1.9045,1.9401,1.9776,2.0051,2.0317,2.0665,2.1196,2.1297,2.1388,2.1672,2.1696,2.1776,2.2052,2.2495,2.3144,2.4069,2.4594,0.0,0.0,0.0,0.0,2.5895,2.5895,2.5895,2.5895,2.5895,2.5895,2.5895,2.5895,2.5895,2.5895,2.5895,2.5983,2.6125,2.6453,2.6846,2.7315,2.7795,2.8275,2.8803,2.8803,2.8803,2.8803,2.8803,2.9071,2.9508,2.9669,3.0216,3.0926,3.1128,3.131,3.137,3.1021,3.078,3.054,3.001,3.0,3.0229,3.0457,3.0689,3.1028,3.1685,3.1715,3.1541,3.136,3.1006,3.0581,3.0188,2.9648,2.9309,2.9713,2.9485,2.92,2.92,2.935,2.9363,2.8969,2.9404,3.015,3.1137,3.1644,3.197,3.2173,3.22,3.22,3.22,3.2024,3.195,3.2075,3.1735,3.1609,3.1807,3.1047,3.0643,3.072,3.0129,2.9841,2.9973,2.9973,2.9973,2.9973,3.0161,3.0466,3.0872,3.1089,3.1772,1.8491,1.8712,1.8686,1.9456,1.9386,1.9165,1.9266,1.9492,1.9731,1.9877,2.0115,2.0408,2.0802,2.0897,2.1013,2.1425,2.1489,2.1633,2.2046,2.2696,2.3408,2.4112,2.4829,2.5422,0.0,0.0,0.0,2.5895,2.5895,2.5895,2.5895,2.5895,2.5895,2.5895,2.5895,2.5895,2.5895,2.5895,2.5895,2.5906,2.6223,2.6595,2.7064,2.7544,2.8024,2.8506,2.8727,2.8803,2.8803,2.8803,2.9071,2.9508,2.9646,3.0193,3.0926,3.1094,3.1395,3.1657,3.1298,3.1178,3.1093,3.0564,3.0561,3.0854,3.1284,3.1448,3.163,3.2334,3.2363,3.2105,3.1725,3.1467,3.1192,3.0812,3.0256,2.993,3.0323,3.0093,2.9825,2.9825,2.9825,2.9702,2.9306,2.955,3.0079,3.0866,3.13,3.1712,3.2132,3.22,3.22,3.22,3.22,3.239,3.2881,3.2765,3.2868,3.3405,3.2674,3.2208,3.2208,3.1598,3.128,3.128,3.128,3.128,3.128,3.1512,3.1831,3.2222,3.2439,3.3006,1.9675,2.0098,2.0301,2.03,2.0084,1.9765,1.9408,1.932,1.9421,1.9795,1.9838,1.9969,0.0,0.0,2.0601,2.1007,2.1086,2.1522,2.2626,2.3343,2.4048,0.0,0.0,0.0,0.0,0.0,0.0,2.5928,0.0,2.5895,2.5895,2.5928,2.5939,2.5939,2.5961,2.5972,2.5972,2.595,2.5939,2.5939,2.5917,2.6157,2.6627,2.7053,2.7533,2.8023,2.854,2.8781,2.8803,2.8803,2.9071,2.9462,2.9001,2.9669,3.0802,3.0352,3.0802,3.1617,3.1617,3.1661,3.1633,3.1105,3.133,3.1817,3.1958,3.2025,3.2187,3.2845,3.2657,3.2241,3.22,3.1779,3.1341,3.1341,3.0893,3.0442,3.05,3.0455,3.0442,3.0442,3.0415,3.0388,3.0388,3.0388,3.0401,3.0428,3.0415,3.0825,3.1997,3.2146,3.2173,3.22,3.22,3.2498,3.3234,3.3304,3.3615,3.4346,3.3864,3.3547,3.3547,3.2933,3.2598,3.2598,3.2598,3.2598,3.2598,3.324,3.3547,3.3561,3.4124,3.4397,1.9722,1.9959,2.008,2.0436,1.9974,1.9503,1.9696,1.9531,1.9329,1.9439,1.9208,1.9126,0.0,0.0,0.0,2.0582,2.1159,0.0,2.2674,2.2947,0.0,2.4754,0.0,2.5359,2.5853,2.5895,0.0,0.0,2.6103,2.5895,2.5895,2.6224,2.642,2.642,2.6747,2.6944,2.6944,2.6595,2.642,2.642,2.607,2.6157,2.6595,2.6726,2.7239,2.8002,2.8144,2.8429,2.8803,2.8803,2.9071,2.9485,2.937,2.976,3.0352,3.0238,3.0352,3.0578,3.0578,3.1071,3.1681,3.1548,3.1623,3.182,3.1826,3.2226,3.2625,3.2356,3.2573,3.2775,3.2309,3.2092,3.197,3.197,3.1522,3.1192,3.1644,3.1382,3.107,3.107,3.0717,3.0388,3.0388,3.0388,3.0554,3.1002,3.069,3.0676,3.1422,3.1535,3.1698,3.2146,3.22,3.2498,3.3234,3.3304,3.3615,3.4346,3.4269,3.4167,3.4167,3.4005,3.3918,3.3918,3.3918,3.3918,3.3918,3.4095,3.4167,3.4167,3.4324,3.4397,2.0428,2.0762,2.0938,2.1084,2.0498,1.9846,1.9771,1.9466,1.9135,1.9056,1.8795,0.0,0.0,0.0,0.0,0.0,0.0,0.0,2.3117,2.3527,2.4003,0.0,2.5158,0.0,2.6159,2.6223,2.6398,0.0,2.6464,2.631,2.6507,2.6758,2.6911,2.6911,2.7151,2.7293,2.7293,2.7249,2.702,2.6606,2.6333,2.6235,2.63,2.6507,2.69,2.7402,0.0,2.8166,2.8485,2.8693,2.8966,2.9186,2.9186,2.9485,2.9897,2.9897,3.0011,3.0193,3.0193,3.069,3.135,3.135,3.1532,3.1875,3.246,3.2746,3.2907,3.3163,3.3179,3.302,3.268,3.239,3.22,3.22,3.1942,3.1793,3.2132,3.1929,3.1698,3.1698,3.1409,3.1192,3.1192,3.0975,3.0907,3.1246,3.0798,3.0622,3.1219,3.1428,3.1643,3.1984,3.2423,3.2913,3.3462,3.3514,3.377,3.4363,3.4397,3.4397,3.4397,3.4397,3.4397,3.4397,3.4397,3.4397,3.4397,3.4397,3.4397,3.4397,3.4397,3.4269,2.1435,2.1859,2.2083,2.1824,2.1163,2.0402,1.9769,1.9263,1.8854,1.8646,0.0,1.8052,1.7754,1.8488,1.9418,2.0265,0.0,2.2606,2.3783,2.4509,2.4956,2.5115,2.5646,2.619,2.6649,2.6693,2.6889,2.7348,2.702,2.6944,2.7271,2.7348,2.7435,2.7501,2.7501,2.7501,2.7501,2.7839,2.7555,2.6693,2.6638,2.6355,2.5917,2.6322,2.6551,2.666,2.7456,2.7882,2.8034,2.8484,2.8749,2.8803,2.8803,2.9047,2.9416,2.9416,2.9669,3.0011,3.0011,3.0329,3.0735,3.0859,3.1261,3.1925,3.3181,3.3249,3.3158,3.4333,3.395,3.3196,3.3115,3.2653,3.22,3.22,3.22,3.22,3.22,3.22,3.22,3.22,3.22,3.22,3.22,3.1779,3.1409,3.1409,3.0907,3.0717,3.1219,3.1593,3.1834,3.1916,3.2737,3.3427,3.377,3.3805,3.3974,3.438,3.4397,3.4397,3.4397,3.4397,3.4397,3.4397,3.4397,3.4397,3.4397,3.4397,3.4397,3.4397,3.431,3.3993,2.1905,2.1992,2.1814,2.161,2.0945,2.025,1.9927,1.9106,0.0,0.0,0.0,1.6901,1.7172,1.7824,1.8768,2.0178,0.0,0.0,0.0,0.0,2.5243,0.0,0.0,0.0,0.0,0.0,0.0,0.0,2.7794,2.7631,2.7315,2.7675,2.8068,2.8541,2.8529,2.8529,2.8529,2.8177,2.7707,2.7162,2.6791,2.6355,2.5895,2.5983,2.6224,2.6617,2.6759,0.0,2.8002,2.8112,2.8396,2.8803,2.8803,2.885,2.8908,2.8908,2.8966,2.9035,2.9035,2.9347,2.9875,3.0645,3.1261,3.1837,3.2624,3.3182,3.3595,3.3889,3.3877,3.3669,3.3224,3.2653,3.22,3.22,3.22,3.22,3.22,3.22,3.22,3.22,3.22,3.22,3.22,3.2105,3.2037,3.2037,3.1535,3.1178,3.1287,3.1593,3.1985,3.2496,3.3003,3.3427,3.377,3.3805,3.3974,3.438,3.4397,3.4397,3.4397,3.4397,3.4397,3.4397,3.4397,3.4397,3.4397,3.4397,3.4397,3.4382,3.3894,3.3605,2.1929,2.2169,2.2248,2.1934,2.1398,2.0722,1.9926,0.0,0.0,0.0,0.0,1.642,1.6339,0.0,0.0,0.0,0.0,0.0,0.0,0.0,0.0,0.0,0.0,0.0,0.0,0.0,0.0,0.0,2.8418,2.8309,2.8091,2.8287,2.854,2.8792,2.9044,2.9066,2.8803,2.8551,2.8047,2.7282,2.6824,2.6355,2.5895,2.5895,2.6026,2.6245,2.6496,2.6868,2.7326,2.7794,2.8155,2.8407,2.8682,2.8803,2.8771,2.8496,2.8562,2.8771,2.8473,2.8861,2.96,3.0306,3.1138,3.2023,3.2936,3.3691,3.4311,3.4692,3.4578,3.4233,3.3656,3.3078,3.2599,3.2268,3.22,3.22,3.22,3.22,3.22,3.22,3.22,3.22,3.22,3.22,3.22,3.22,3.1956,3.1779,3.1779,3.2236,3.2577,3.2549,3.3347,3.3925,3.4094,3.4111,3.4179,3.4397,3.4397,3.4397,3.4397,3.4397,3.4397,3.4397,3.4397,3.4397,3.4397,3.408,3.3937,3.3923,3.3267,3.2788,2.1931,2.2382,2.2628,2.2161,2.1744,2.1059,1.964,1.8701,0.0,0.0,1.6605,1.6032,1.5701,0.0,1.766,0.0,0.0,0.0,0.0,0.0,0.0,0.0,0.0,0.0,0.0,0.0,0.0,0.0,2.8803,2.8803,2.8803,2.8803,2.8803,2.8803,2.9152,2.9119,2.8627,2.8627,2.8123,2.714,2.678,2.6355,2.5895,2.5895,2.5895,2.5917,2.6289,2.6507,2.6671,2.7413,2.7751,2.7904,2.8321,2.8474,2.843,2.8002,2.8123,2.8408,2.7992,2.8518,2.9431,2.9897,3.092,3.2217,3.3339,3.4176,3.484,3.5507,3.5269,3.4653,3.407,3.3512,3.2952,3.2336,3.22,3.22,3.22,3.22,3.22,3.22,3.22,3.22,3.22,3.22,3.22,3.22,3.22,3.22,3.22,3.2842,3.3122,3.2629,3.3673,3.4397,3.4397,3.4397,3.4397,3.4397,3.4397,3.4397,3.4397,3.4283,3.4211,3.4211,3.408,3.3991,3.3991,3.3661,3.3503,3.3489,3.2962,3.2424,2.2225,2.2488,2.2376,2.1741,2.1388,2.0733,1.8855,0.0,0.0,1.6399,1.573,1.5407,1.5727,1.5943,0.0,0.0,0.0,0.0,0.0,0.0,0.0,0.0,0.0,0.0,0.0,0.0,0.0,2.8803,2.8803,2.8803,2.8803,2.8803,2.8803,2.8803,2.8847,2.8616,2.809,2.8056,2.761,2.6671,2.6627,2.6355,2.5895,2.5895,2.5895,2.5895,2.595,2.6223,0.0,2.6682,2.6977,2.7359,2.7424,2.7446,2.7435,2.7369,2.7413,2.7435,2.7369,2.8021,2.8937,2.9416,3.067,3.2217,3.3339,3.4176,3.484,3.5507,3.5269,3.4686,3.4136,3.3544,3.2952,3.2336,3.22,3.22,3.22,3.22,3.22,3.22,3.22,3.22,3.22,3.22,3.22,3.22,3.22,3.22,3.22,3.2842,3.329,3.322,3.3931,3.4397,3.4397,3.4397,3.4397,3.4397,3.4397,3.4397,3.4397,3.3879,3.359,3.359,3.2977,3.2671,3.2685,3.3226,3.3503,3.3503,3.3445,3.3387,2.1894,2.2324,2.2391,2.1869,2.1679,2.1057,1.895,0.0,1.7453,1.6328,1.5678,1.5347,1.5427,1.5588,1.6338,1.8187,1.8964,2.0248,2.296,0.0,0.0,0.0,0.0,0.0,0.0,0.0,0.0,2.8803,2.8803,2.8803,2.8803,2.8803,2.8803,2.8803,2.8496,2.821,2.7991,2.7435,2.6977,2.6606,2.6311,2.6092,2.5895,2.5895,2.5895,2.5895,2.5895,2.6016,0.0,2.6486,2.6715,2.6911,2.7184,2.7293,2.7282,2.6977,2.725,2.7678,2.7401,2.7906,2.8871,3.0109,3.1256,3.2311,3.3365,3.4447,3.5365,3.5609,3.5527,3.5134,3.4184,3.3254,3.2485,3.2255,3.22,3.22,3.22,3.22,3.22,3.22,3.22,3.22,3.22,3.22,3.22,3.22,3.22,3.22,3.22,3.2842,3.3304,3.3304,3.396,3.4397,3.4397,3.4397,3.4397,3.4397,3.4397,3.4397,3.4397,3.4167,3.4037,3.4037,3.379,3.3643,3.3643,3.3545,3.3503,3.3489,3.3095,3.2904,2.128,2.1807,2.2019,2.1696,2.151,2.0887,0.0,0.0,1.7359,1.6143,1.5625,1.5376,1.5269,1.5452,1.6053,1.743,1.8247,1.9619,2.222,0.0,0.0,0.0,0.0,0.0,0.0,0.0,2.8803,2.8803,2.8803,2.8803,2.8803,2.8803,2.8738,2.8572,2.8199,2.786,2.7576,2.6922,2.654,2.6387,2.607,2.5895,2.5895,2.5895,2.5895,2.5895,2.5895,2.5895,0.0,2.6256,2.6387,2.642,2.6769,2.69,2.6856,2.6507,2.6884,2.7525,2.7168,2.7731,2.8839,3.0254,3.1377,3.2312,3.3196,3.4501,3.569,3.569,3.5445,3.4984,3.4124,3.3045,3.22,3.22,3.22,3.22,3.22,3.22,3.22,3.22,3.22,3.22,3.22,3.22,3.22,3.22,3.22,3.22,3.22,3.2842,3.3304,3.3304,3.396,3.4397,3.4397,3.4397,3.4397,3.4397,3.4397,3.4397,3.4397,3.424,3.4124,3.4124,3.3933,3.3831,3.3831,3.3603,3.3503,3.3489,3.3209,3.3062,2.038,2.0908,2.116,2.096,2.0602,1.986,0.0,1.7358,1.6715,1.5624,1.5405,1.5396,1.5396,1.5503,1.6224,1.8167,1.8765,2.0087,2.3237,2.3921,0.0,0.0,0.0,0.0,0.0,2.8496,2.8803,2.8803,2.8803,0.0,2.8803,2.8803,2.8562,2.8023,2.7991,2.7544,2.6606,2.6595,2.6366,2.5906,2.5895,2.5895,2.5895,2.5895,2.5895,2.5895,2.5895,2.5895,0.0,2.5906,2.5906,2.5906,2.5917,2.5917,2.5917,2.5906,2.6167,2.6518,2.6507,2.7426,2.8716,2.9402,3.07,3.2129,3.2725,3.4213,3.569,3.569,3.4829,3.3935,3.3908,3.3045,3.22,3.22,3.22,3.22,3.22,3.22,3.22,3.22,3.22,3.22,3.22,3.22,3.22,3.22,3.22,3.22,3.22,3.2842,3.3304,3.3304,3.396,3.4397,3.4397,3.4397,3.4397,3.4397,3.4397,3.4397,3.4397,3.3835,3.3518,3.3518,3.2861,3.2526,3.2526,3.3182,3.3503,3.3518,3.4109,3.4368,1.9074,1.957,1.9815,1.9411,1.9459,1.9157,1.7413,1.7142,1.6912,1.5669,1.5396,1.5396,1.5396,1.5361,1.6128,1.8583,1.9001,0.0,0.0,0.0,0.0,0.0,0.0,0.0,0.0,0.0,2.7905,2.8221,2.8243,2.8243,2.8243,2.8243,2.8177,2.8002,2.7697,2.7228,2.6617,2.6278,2.6059,2.5895,2.5895,2.5895,2.5895,2.5895,2.5895,2.5895,2.5895,2.5895,2.5895,2.5895,2.5895,2.5895,2.5895,2.6073,2.627,2.6,2.6561,2.7412,2.7083,2.7667,2.8759,3.0209,3.1042,3.1732,3.3148,3.428,3.5093,3.5093,3.4504,3.3813,3.3444,3.2784,3.22,3.22,3.22,3.22,3.22,3.22,3.22,3.22,3.22,3.22,3.22,3.22,3.22,3.22,3.22,3.22,3.22,3.2592,3.3005,3.3269,3.3719,3.4094,3.438,3.4397,3.4397,3.4397,3.4397,3.4397,3.4397,3.4225,3.4124,3.4124,3.3904,3.3802,3.3802,3.4008,3.4124,3.4124,3.4295,3.4397,0.0,1.8477,1.874,1.8449,1.8486,1.8242,1.6996,1.6816,1.6617,1.5615,1.5396,1.5396,1.5396,1.5409,1.6145,1.8324,1.8793,0.0,0.0,0.0,0.0,0.0,0.0,0.0,0.0,2.7184,2.7413,2.7719,2.7741,2.7741,2.7741,2.7741,2.7642,2.7467,2.7195,2.6813,2.6333,2.6059,2.5895,2.5895,2.5895,2.5895,2.5895,2.5895,2.5895,2.5895,2.5895,2.5895,0.0,2.5895,2.5895,2.5895,2.5895,2.6156,2.6466,2.6207,2.6891,2.7861,2.7574,2.7918,2.8757,3.0352,3.1202,3.1836,3.319,3.4157,3.4748,3.4517,3.4192,3.3772,3.3232,3.2653,3.22,3.22,3.22,3.22,3.22,3.22,3.22,3.22,3.22,3.22,3.22,3.22,3.22,3.22,3.22,3.22,3.22,3.2485,3.2846,3.3252,3.3597,3.396,3.438,3.4397,3.4397,3.4397,3.4397,3.4397,3.4397,3.4397,3.4397,3.4397,3.4397,3.4397,3.4397,3.4397,3.4397,3.4397,3.4397,3.4397,0.0,0.0,0.0,0.0,1.7549,1.7168,1.6707,1.6338,0.0,1.5498,1.5396,1.5415,1.5474,1.5671,1.6296,1.7766,1.8459,0.0,0.0,0.0,0.0,0.0,0.0,0.0,2.6551,2.6944,2.7206,2.7261,2.7239,2.7239,2.7239,2.7239,2.7031,2.6573,2.6551,2.6333,2.5906,2.5895,2.5895,2.5895,2.5895,2.5895,2.5895,2.5895,2.5895,0.0,2.5895,2.5895,2.5895,2.5895,2.5895,2.5895,2.5895,2.6156,2.6507,2.6466,2.7065,2.7913,2.7861,2.8143,2.8697,2.9909,3.1172,3.2295,3.287,3.3816,3.4558,3.4002,3.384,3.3718,3.3178,3.2626,3.22,3.22,3.22,3.22,3.22,3.22,3.22,3.22,3.22,3.22,3.22,3.22,3.22,3.22,3.22,3.22,3.22,3.2467,3.2828,3.3252,3.358,3.3925,3.4363,3.4397,3.4397,3.4397,3.4397,3.4397,3.4397,3.4397,3.4397,3.4397,3.4397,3.4397,3.4397,3.4397,3.4397,3.4397,3.4397,3.4397,1.586,0.0,1.6451,1.6103,1.6216,1.6275,0.0,1.5913,1.5968,0.0,0.0,0.0,0.0,1.619,1.6876,1.9459,1.9894,2.0897,0.0,0.0,0.0,0.0,0.0,2.6049,2.6049,2.6168,2.6387,2.6737,2.6769,2.6769,2.6769,2.6769,2.6551,2.6092,2.6049,2.6016,2.5895,2.5895,2.5895,2.5895,2.5895,2.5895,2.5895,2.5895,2.5895,2.5895,2.5895,2.5895,2.5895,2.5895,2.5895,2.5895,2.5895,2.6156,2.6466,2.6156,2.683,2.7841,2.7482,2.7866,2.8697,2.9909,3.1172,3.2227,3.2363,3.292,3.3463,3.3327,3.3286,3.3151,3.2553,3.2309,3.22,3.22,3.22,3.22,3.22,3.22,3.22,3.22,3.22,3.22,3.22,3.22,3.22,3.22,3.22,3.22,3.22,3.2259,3.257,3.3217,3.3374,3.3684,3.4346,3.4397,3.4397,3.4397,3.4397,3.4397,3.4397,3.4397,3.4397,3.4397,3.4397,3.4397,3.4397,3.4397,3.4397,3.4397,3.4397,3.4397,1.5575,1.5807,1.6036,1.5777,1.5919,1.6036,1.5777,0.0,0.0,0.0,0.0,0.0,0.0,0.0,0.0,0.0,1.9849,0.0,0.0,0.0,0.0,0.0,0.0,2.5549,0.0,2.5895,2.6016,2.6256,2.6278,2.6278,2.6278,2.6278,2.6147,2.5906,2.5895,2.5895,2.5895,2.5895,2.5895,2.5895,2.5895,2.5895,2.5895,2.5895,2.5895,2.5895,2.5895,2.5895,2.5895,2.5895,2.5895,2.5895,2.5895,2.6156,2.6466,2.6249,2.6901,2.7861,2.7606,2.8315,2.9477,3.0412,3.1394,3.22,3.22,3.2418,3.2694,3.2694,3.2898,3.2966,3.235,3.22,3.22,3.22,3.22,3.22,3.22,3.22,3.22,3.22,3.22,3.22,3.22,3.22,3.22,3.22,3.22,3.22,3.22,3.22,3.248,3.3217,3.3304,3.3597,3.4346,3.4397,3.4397,3.4397,3.4397,3.4397,3.4397,3.4397,3.4397,3.4397,3.4397,3.4397,3.4397,3.4397,3.4397,3.4397,3.4397,3.4397,1.5751,1.5959,1.6163,1.6026,1.6046,1.6075,0.0,0.0,0.0,0.0,0.0,0.0,0.0,0.0,0.0,0.0,0.0,0.0,0.0,0.0,0.0,0.0,2.5253,0.0,2.5833,2.5895,2.5895,2.5895,2.5895,2.5895,2.5895,2.5895,2.5895,2.5895,2.5895,2.5895,2.5895,2.5895,2.5895,2.5895,2.5895,2.5895,2.5895,2.5895,2.5895,2.5895,0.0,0.0,2.5895,2.5895,2.5895,2.5895,2.5895,2.6114,2.6415,2.6415,2.6951,2.7719,2.7841,2.8949,3.0374,3.0902,3.1579,3.22,3.22,3.22,3.22,3.22,3.2572,3.2843,3.2322,3.22,3.22,3.22,3.22,3.22,3.22,3.22,3.22,3.22,3.22,3.22,3.22,3.22,3.22,3.22,3.22,3.22,3.22,3.2241,3.2534,3.3217,3.3339,3.3649,3.4346,3.4397,3.4397,3.4397,3.4397,3.4397,3.4397,3.4397,3.4397,3.4397,3.4397,3.4397,3.4397,3.4397,3.4397,3.4397,3.4397,3.4397,1.5974,1.632,1.643,1.5693,1.5806,1.5997,0.0,0.0,0.0,0.0,0.0,0.0,0.0,0.0,0.0,0.0,0.0,0.0,0.0,0.0,0.0,2.4967,0.0,2.5158,2.5833,2.5895,2.5895,2.5895,2.5895,2.5895,2.5895,2.5895,2.5895,2.5895,2.5895,2.5895,2.5895,2.5895,2.5895,2.5895,2.5895,2.5895,2.5895,2.5895,2.5895,2.5895,0.0,2.5895,2.5895,2.5895,2.5895,2.5895,2.5895,2.5937,2.6,2.6,2.6302,2.6828,2.7606,2.8949,3.033,3.0412,3.1246,3.22,3.22,3.22,3.22,3.22,3.2268,3.2309,3.2214,3.22,3.22,3.22,3.22,3.22,3.22,3.22,3.22,3.22,3.22,3.22,3.22,3.22,3.22,3.22,3.22,3.22,3.22,3.2462,3.2793,3.3252,3.3563,3.3908,3.4363,3.4397,3.4397,3.4397,3.4397,3.4397,3.4397,3.4397,3.4397,3.4397,3.4397,3.4397,3.4397,3.4397,3.4397,3.4397,3.4397,3.4397,1.5468,1.5929,1.6371,1.5899,1.6461,1.7061,0.0,0.0,0.0,0.0,0.0,0.0,0.0,0.0,0.0,0.0,0.0,0.0,0.0,2.3746,2.3517,0.0,0.0,2.4573,2.5295,2.5686,2.5895,2.5895,2.5895,2.5895,2.5895,2.5895,2.5895,2.5895,2.5895,2.5895,2.5895,2.5895,2.5895,2.5895,2.5895,2.5895,2.5895,2.5895,2.5895,2.5895,0.0,2.5895,2.5895,2.5895,2.5895,2.5895,2.5895,2.5895,2.5969,2.6426,2.6713,2.7051,2.8287,2.9406,3.0355,3.0677,3.1431,3.22,3.22,3.22,3.22,3.22,3.22,3.22,3.22,3.22,3.22,3.22,3.22,3.22,3.22,3.22,3.22,3.22,3.22,3.22,3.22,3.22,3.22,3.22,3.22,3.22,3.22,3.2318,3.2646,3.3234,3.3427,3.377,3.4346,3.4397,3.4397,3.4397,3.4397,3.4397,3.4397,3.4397,3.4397,3.4397,3.4397,3.4397,3.4397,3.4397,3.4397,3.4397,3.4397,3.4397,1.5197,1.5522,1.5989,1.6188,0.0,0.0,1.7812,0.0,0.0,0.0,0.0,0.0,0.0,0.0,0.0,0.0,0.0,2.2615,2.4189,2.3331,2.2806,2.3485,2.3692,2.4081,2.4839,2.5517,2.5895,2.5895,2.5895,2.5895,2.5895,2.5895,2.5895,2.5895,2.5895,2.5895,2.5895,2.5895,2.5895,2.5895,2.5895,2.5895,2.5895,2.5895,2.5895,2.5895,2.5895,2.5895,2.5895,2.5895,2.5895,2.5895,2.5895,2.5958,2.6114,2.6796,2.7255,2.7742,2.8858,2.9813,3.0582,3.1052,3.1648,3.22,3.22,3.22,3.22,3.22,3.22,3.22,3.22,3.22,3.22,3.22,3.22,3.22,3.22,3.22,3.22,3.22,3.22,3.22,3.22,3.22,3.22,3.22,3.22,3.22,3.22,3.2259,3.257,3.3217,3.3374,3.3684,3.4346,3.4397,3.4397,3.4397,3.4397,3.4397,3.4397,3.4397,3.4397,3.4397,3.4397,3.4397,3.4397,3.4397,3.4397,3.4397,3.4397,3.4465,1.5772,1.5469,1.5195,1.6361,0.0,0.0,1.7253,0.0,0.0,0.0,0.0,0.0,0.0,0.0,0.0,0.0,0.0,2.2015,2.2838,0.0,2.2043,2.2772,2.342,2.4081,2.4839,2.5517,2.5895,2.5895,2.5895,2.5895,2.5895,2.5895,2.5895,2.5895,2.5895,2.5895,2.5895,2.5895,2.5895,2.5895,2.5895,2.5895,2.5895,2.5895,2.5895,2.5895,2.5895,2.5895,2.5895,2.5895,2.5895,2.5895,2.5895,2.6135,2.6466,2.6528,2.7458,2.8692,2.8811,2.9839,3.1145,3.1182,3.1648,3.22,3.22,3.22,3.22,3.22,3.22,3.22,3.22,3.22,3.22,3.22,3.22,3.22,3.22,3.22,3.22,3.22,3.22,3.22,3.22,3.22,3.22,3.22,3.22,3.22,3.22,3.2467,3.2828,3.3252,3.358,3.3925,3.4363,3.4397,3.4397,3.4397,3.4397,3.4397,3.4397,3.4397,3.4397,3.4397,3.4397,3.4397,3.4397,3.4397,3.4397,3.4397,3.4397,3.4668,1.4727,1.4824,1.5043,1.608,0.0,0.0,0.0,0.0,0.0,0.0,0.0,0.0,0.0,0.0,0.0,0.0,2.2176,2.1963,2.2693,2.2163,2.1798,2.2087,2.3115,2.3908,2.4198,2.5242,2.5895,2.5895,2.5895,2.5895,2.5895,2.5895,2.5895,2.5895,2.5895,2.5895,2.5895,2.5895,2.5895,2.5895,2.5895,2.5895,2.5895,2.5895,2.5895,2.5895,2.5895,2.5895,2.5895,2.5895,2.5895,2.5916,2.6177,2.6549,2.6981,2.7269,2.7748,2.8331,2.8961,2.9832,3.0696,3.1071,3.1648,3.22,3.22,3.22,3.22,3.22,3.22,3.22,3.22,3.22,3.22,3.22,3.22,3.22,3.22,3.22,3.22,3.22,3.22,3.22,3.22,3.22,3.22,3.22,3.22,3.22,3.22,3.2314,3.2534,3.2881,3.3444,3.396,3.438,3.4397,3.4397,3.4397,3.4397,3.4397,3.4397,3.4397,3.4397,3.4397,3.4397,3.4397,3.4397,3.4397,3.4397,3.4414,3.4737,3.5019,1.422,1.4449,1.4814,0.0,0.0,0.0,0.0,0.0,0.0,0.0,0.0,0.0,0.0,0.0,0.0,0.0,2.2021,2.1887,2.2375,2.203,2.1696,2.1696,2.294,2.38,2.38,2.5062,2.5895,2.5895,2.5895,2.5895,2.5895,2.5895,2.5895,2.5895,2.5895,2.5895,2.5895,2.5895,2.5895,2.5895,2.5895,2.5895,2.5895,2.5895,2.5895,2.5895,2.5895,2.5895,2.5895,2.5895,2.5895,2.5937,2.6353,2.6796,2.7246,2.7728,2.8211,2.8764,2.9457,3.0216,3.0972,3.1376,3.1827,3.22,3.22,3.22,3.22,3.22,3.22,3.22,3.22,3.22,3.22,3.22,3.22,3.22,3.22,3.22,3.22,3.22,3.22,3.22,3.22,3.22,3.22,3.22,3.22,3.22,3.22,3.22,3.2332,3.2668,3.3357,3.3908,3.4179,3.4329,3.4397,3.4397,3.4397,3.4397,3.4397,3.4397,3.4397,3.4397,3.4397,3.4397,3.4397,3.4397,3.4397,3.4414,3.4771,3.512,1.4592,1.4449,0.0,0.0,0.0,0.0,0.0,0.0,0.0,0.0,0.0,0.0,0.0,0.0,0.0,2.1645,2.1696,2.1696,2.1696,2.1696,2.1696,2.1696,2.294,2.38,2.38,2.5062,2.5895,2.5895,2.5895,2.5895,2.5895,2.5895,2.5895,2.5895,2.5895,2.5895,2.5895,2.5895,2.5895,2.5895,2.5895,2.5895,2.5895,2.5895,2.5895,2.5895,2.5895,2.5895,2.5895,2.5895,2.5895,2.5937,2.6353,2.6796,2.7267,2.7728,2.891,3.0279,3.0298,3.1134,3.2169,3.22,3.22,3.22,3.22,3.22,3.22,3.22,3.22,3.22,3.22,3.22,3.22,3.22,3.22,3.22,3.22,3.22,3.22,3.22,3.22,3.22,3.22,3.22,3.22,3.22,3.22,3.22,3.22,3.22,3.2318,3.2668,3.3357,3.3805,3.3805,3.4162,3.4397,3.4397,3.4397,3.4397,3.4397,3.4397,3.4397,3.4397,3.4397,3.4397,3.4397,3.4397,3.4397,3.4397,3.4414,3.4938,1.4128,1.4211,0.0,0.0,0.0,0.0,0.0,0.0,0.0,0.0,0.0,0.0,0.0,0.0,0.0,2.1668,2.1696,2.1696,2.1696,2.1696,2.1696,2.1696,2.294,2.38,2.38,2.5062,2.5895,2.5895,2.5895,2.5895,2.5895,2.5895,2.5895,2.5895,2.5895,2.5895,2.5895,2.5895,2.5895,2.5895,2.5895,2.5895,2.5895,2.5895,2.5895,2.5895,2.5895,2.5895,2.5895,2.5895,2.6073,2.6373,2.6816,2.7278,2.7748,2.8171,2.8618,2.9157,3.0005,3.0558,3.1009,3.1913,3.22,3.22,3.22,3.22,3.22,3.22,3.22,3.22,3.22,3.22,3.22,3.22,3.22,3.22,3.22,3.22,3.22,3.22,3.22,3.22,3.22,3.22,3.22,3.22,3.22,3.22,3.22,3.22,3.244,3.3058,3.3322,3.3667,3.4179,3.4329,3.4397,3.4397,3.4397,3.4397,3.4397,3.4397,3.4397,3.4397,3.4397,3.4397,3.4397,3.4397,3.4397,3.4414,3.4802,3.5299,1.4414,0.0,0.0,0.0,0.0,0.0,0.0,0.0,0.0,0.0,0.0,0.0,0.0,0.0,0.0,2.1696,2.1696,2.1696,2.1696,2.1696,2.1696,2.1696,2.2709,2.3507,2.3779,2.4829,2.5612,2.5874,2.5895,2.5895,2.5895,2.5895,2.5895,2.5895,2.5895,2.5895,2.5895,2.5895,2.5895,2.5895,2.5895,2.5895,2.5895,2.5895,2.5895,2.5895,2.5895,2.5895,2.5895,2.5895,2.6031,2.6332,2.696,2.738,2.7687,2.8291,2.8796,2.9321,3.0063,3.0633,3.1172,3.195,3.22,3.22,3.22,3.22,3.22,3.22,3.22,3.22,3.22,3.22,3.22,3.22,3.22,3.22,3.22,3.22,3.22,3.22,3.22,3.22,3.22,3.22,3.22,3.22,3.22,3.22,3.22,3.22,3.2408,3.3005,3.3199,3.3531,3.4111,3.4312,3.4397,3.4397,3.4397,3.4397,3.4397,3.4397,3.4397,3.4397,3.4397,3.4397,3.4397,3.4618,3.4719,3.4735,3.525,3.5737,0.0,0.0,0.0,0.0,0.0,0.0,0.0,0.0,0.0,0.0,0.0,0.0,0.0,2.1696,2.1696,2.1696,2.1696,2.1696,2.1696,2.1696,2.1696,2.1696,2.2353,2.3047,2.3735,2.4466,2.519,2.5853,2.5895,2.5895,2.5895,2.5895,2.5895,2.5895,2.5895,2.5895,2.5895,2.5895,2.5895,2.5895,2.5895,2.5895,2.5895,2.5895,2.5916,2.5958,2.5958,2.5979,2.6021,2.6021,2.6021,2.6104,2.6951,2.7267,2.7368,2.8199,2.9223,3.0235,3.0279,3.1097,3.2114,3.2182,3.22,3.22,3.22,3.22,3.22,3.22,3.22,3.22,3.22,3.22,3.22,3.22,3.22,3.22,3.22,3.22,3.22,3.22,3.22,3.22,3.22,3.22,3.22,3.22,3.22,3.22,3.22,3.22,3.2336,3.2721,3.3076,3.3444,3.3822,3.4179,3.4397,3.4397,3.4397,3.4397,3.4397,3.4397,3.4397,3.4397,3.4397,3.4397,3.4397,3.4937,3.5201,3.5201,3.5673,3.618,0.0,0.0,0.0,0.0,0.0,0.0,0.0,0.0,0.0,0.0,0.0,0.0,2.1696,2.1696,2.1696,2.1696,2.1696,2.1696,2.1696,2.1696,2.1696,2.1696,2.2353,2.3047,2.3735,2.4466,2.519,2.5853,2.5895,2.5895,2.5895,2.5895,2.5895,2.5895,2.5895,2.5895,2.5895,2.5895,2.5895,2.5895,2.5895,2.5895,2.5895,2.5895,2.6073,2.6373,2.6373,2.6569,2.6919,2.6919,2.6919,2.6992,2.7534,2.776,2.7809,2.8311,2.8961,2.9658,3.0139,3.079,3.1505,3.2041,3.22,3.22,3.22,3.22,3.22,3.22,3.22,3.22,3.22,3.22,3.22,3.22,3.22,3.22,3.22,3.22,3.22,3.22,3.22,3.22,3.22,3.22,3.22,3.22,3.22,3.22,3.22,3.22,3.2444,3.3094,3.3252,3.3563,3.4213,3.4346,3.4397,3.4397,3.4397,3.4397,3.4397,3.4397,3.4397,3.4397,3.4397,3.4397,3.4397,3.4937,3.5201,3.5201,3.5673,3.618,0.0,0.0,0.0,0.0,0.0,0.0,0.0,0.0,0.0,0.0,0.0,0.0,2.1696,2.1696,2.1696,2.1696,2.1696,2.1696,2.1696,2.1696,2.1696,2.1696,2.2043,2.2552,2.3256,2.3962,2.4658,2.5359,2.5728,2.5895,2.5895,2.5895,2.5895,2.5895,2.5895,2.5895,2.5895,2.5895,2.5895,2.5895,2.6093,2.6302,2.6498,2.6104,2.601,2.6207,2.6424,2.6652,2.6878,2.7103,2.7205,2.7246,2.7728,2.7913,2.7982,2.8677,2.9302,2.9928,3.0526,3.114,3.174,3.2096,3.22,3.22,3.22,3.22,3.22,3.22,3.22,3.22,3.22,3.22,3.22,3.22,3.22,3.22,3.22,3.22,3.22,3.22,3.22,3.22,3.22,3.22,3.22,3.22,3.22,3.22,3.22,3.22,3.248,3.3217,3.3304,3.3597,3.4346,3.4397,3.4397,3.4397,3.4397,3.4397,3.4397,3.4397,3.4397,3.4397,3.4397,3.4517,3.4771,3.5299,3.5672,3.5927,3.643,3.6815,0.0,0.0,0.0,0.0,0.0,0.0,0.0,0.0,0.0,0.0,0.0,2.1627,2.17,2.1696,2.1696,2.1696,2.1696,2.1696,2.1696,2.1696,2.1696,2.1696,2.1807,2.2176,2.2904,2.3594,2.4284,2.5009,2.5601,2.5895,2.5895,2.5895,2.5895,2.5895,2.5895,2.5895,2.5895,2.5895,2.5895,2.5895,2.6311,2.6702,2.7062,2.6426,2.6167,2.625,2.6507,2.6713,2.6878,2.7267,2.7429,2.745,2.7849,2.8002,2.8102,2.8941,2.9697,3.0374,3.0865,3.1542,3.22,3.22,3.22,3.22,3.22,3.22,3.22,3.22,3.22,3.22,3.22,3.22,3.22,3.22,3.22,3.22,3.22,3.22,3.22,3.22,3.22,3.22,3.22,3.22,3.22,3.22,3.22,3.22,3.22,3.22,3.2458,3.3129,3.3252,3.358,3.423,3.4363,3.4397,3.4397,3.4397,3.4397,3.4397,3.4397,3.4397,3.4397,3.4498,3.4804,3.5317,3.58,3.6274,3.6708,3.7255,3.7495,0.0,0.0,0.0,0.0,0.0,0.0,0.0,0.0,0.0,0.0,2.0656,2.1279,2.1645,2.1696,2.1696,2.1696,2.1696,2.1696,2.1696,2.1696,2.1696,2.1696,2.2264,2.2916,2.3606,2.4327,2.5031,2.5728,2.5853,2.5895,2.5895,2.5895,2.5895,2.5895,2.5895,2.5895,2.5895,2.5895,2.5895,2.5895,2.6311,2.6528,2.661,2.6899,2.7249,2.7618,2.7258,2.7542,2.8239,2.8299,2.8331,2.8331,2.8391,2.8411,2.8431,2.857,2.9321,3.0298,3.0393,3.1209,3.22,3.22,3.22,3.22,3.22,3.22,3.22,3.22,3.22,3.22,3.22,3.22,3.22,3.22,3.22,3.22,3.22,3.22,3.22,3.22,3.22,3.22,3.22,3.22,3.22,3.22,3.22,3.22,3.22,3.22,3.235,3.2739,3.3094,3.3462,3.3839,3.4196,3.4397,3.4397,3.4397,3.4397,3.4397,3.4397,3.4397,3.4397,3.4854,3.5317,3.5801,3.6336,3.6631,3.6708,3.7255,3.7495,0.0,0.0,0.0,0.0,0.0,0.0,0.0,0.0,0.0,1.9838,2.0189,2.0619,2.1251,2.1553,2.1696,2.1696,2.1696,2.1696,2.1696,2.1696,2.1696,2.1696,2.2353,2.2925,2.3212,2.4251,2.5009,2.5317,2.5686,2.5895,2.5895,2.5895,2.5895,2.5895,2.5895,2.5895,2.5895,2.5895,2.6021,2.6228,2.6424,2.6787,2.7269,2.7237,2.7319,2.7513,2.7574,2.7809,2.8183,2.8411,2.849,2.849,2.849,2.849,2.855,2.8882,2.9542,3.0336,3.0677,3.1413,3.22,3.22,3.22,3.22,3.22,3.22,3.22,3.22,3.22,3.22,3.22,3.22,3.22,3.22,3.22,3.22,3.22,3.22,3.22,3.22,3.22,3.22,3.22,3.22,3.22,3.22,3.22,3.22,3.22,3.22,3.2332,3.2668,3.3058,3.3427,3.377,3.4162,3.4397,3.4397,3.4397,3.4397,3.4397,3.4702,3.4971,3.525,3.5218,3.5431,3.5897,3.643,3.6846,3.715,3.7391,3.7495,0.0,0.0,0.0,0.0,0.0,0.0,0.0,0.0,0.0,0.0,1.984,2.0067,2.0674,2.1205,2.1553,2.1553,2.1623,2.1696,2.1696,2.1696,2.1776,2.1963,2.2618,2.3135,2.3319,2.4433,2.5147,2.5147,2.5623,2.5895,2.5895,2.5895,2.5895,2.5895,2.5895,2.5895,2.5895,2.5895,2.6093,2.6507,2.6631,2.7115,2.7881,2.7635,2.7531,2.7531,2.7788,2.7962,2.8082,2.8371,2.849,2.849,2.849,2.849,2.855,2.9,2.9639,3.0355,3.0809,3.1505,3.22,3.22,3.22,3.22,3.22,3.22,3.22,3.22,3.22,3.22,3.22,3.22,3.22,3.22,3.22,3.22,3.22,3.22,3.22,3.22,3.22,3.22,3.22,3.22,3.22,3.22,3.22,3.22,3.22,3.22,3.2332,3.2668,3.3058,3.3427,3.377,3.4162,3.4397,3.4397,3.4397,3.4397,3.4397,3.4771,3.5169,3.5512,3.5316,3.551,3.6102,3.6646,3.7044,3.73,3.7436,3.7495,0.0,0.0,0.0,0.0,0.0,0.0,0.0,0.0,0.0,1.9256,1.963,1.9902,1.9939,2.0601,2.1135,2.1135,2.1453,2.1696,2.1696,2.1696,2.1963,2.2671,2.3343,2.4026,2.4722,2.5422,2.5853,2.5853,2.5874,2.5895,2.5895,2.5895,2.5895,2.5895,2.5895,2.5895,2.5895,2.5895,2.6093,2.6507,2.696,2.7421,2.7913,2.8271,2.8431,2.8411,2.8042,2.8122,2.8471,2.849,2.849,2.849,2.849,2.849,2.849,2.853,2.9282,3.0298,3.0349,3.1172,3.22,3.22,3.22,3.22,3.22,3.22,3.22,3.22,3.22,3.22,3.22,3.22,3.22,3.22,3.22,3.22,3.22,3.22,3.22,3.22,3.22,3.22,3.22,3.22,3.22,3.22,3.22,3.22,3.22,3.22,3.2332,3.2668,3.3058,3.3427,3.377,3.4162,3.4397,3.4397,3.4397,3.4397,3.4397,3.4431,3.445,3.4481,3.4953,3.5688,3.6662,3.7195,3.721,3.6754,3.7255,3.7495,0.0,0.0,0.0,0.0,0.0,0.0,0.0,1.8339,1.8732,1.8898,1.9227,1.9502,1.9502,2.0161,2.0793,2.1062,2.1214,2.1407,2.165,2.1696,2.1807,2.2065,2.2718,2.343,2.4134,2.4829,2.5443,2.5874,2.5895,2.5895,2.5895,2.5895,2.5895,2.5895,2.5895,2.5895,2.5895,2.5895,2.5979,2.6114,2.6549,2.7001,2.7473,2.7909,2.8263,2.849,2.8363,2.8371,2.849,2.849,2.849,2.849,2.849,2.849,2.855,2.8922,2.9613,3.0355,3.0733,3.145,3.22,3.22,3.22,3.22,3.22,3.22,3.22,3.22,3.22,3.22,3.22,3.22,3.22,3.22,3.22,3.22,3.22,3.22,3.22,3.22,3.22,3.22,3.22,3.22,3.22,3.22,3.22,3.22,3.22,3.22,3.2332,3.2668,3.3058,3.3427,3.377,3.4162,3.4397,3.4397,3.4397,3.4397,3.4397,3.4735,3.492,3.492,3.5736,3.6164,3.618,3.6723,3.7059,3.7225,3.7405,3.7495,0.0,0.0,0.0,0.0,0.0,0.0,0.0,0.0,1.8201,1.8632,1.8897,1.9146,1.9274,1.9742,2.0225,2.0628,2.0802,2.1031,2.1443,2.1508,2.173,2.2325,2.285,2.3495,2.4413,2.4946,2.5422,2.5874,2.5895,2.5895,2.5895,2.5895,2.5895,2.5895,2.5895,2.5895,2.5895,2.5895,2.5979,2.6114,2.6528,2.6981,2.7452,2.7909,2.8263,2.849,2.849,2.849,2.849,2.849,2.849,2.849,2.849,2.849,2.855,2.8941,2.9477,3.0069,3.0696,3.132,3.19,3.2132,3.22,3.22,3.22,3.22,3.22,3.22,3.22,3.22,3.22,3.22,3.22,3.22,3.22,3.22,3.22,3.22,3.22,3.22,3.22,3.22,3.22,3.22,3.22,3.22,3.22,3.22,3.22,3.22,3.2332,3.2668,3.2935,3.3287,3.3753,3.4042,3.4247,3.4397,3.4397,3.4397,3.4397,3.492,3.5201,3.5201,3.6022,3.6336,3.6165,3.6708,3.7059,3.724,3.7421,3.7495,0.0,0.0,0.0,0.0,0.0,0.0,0.0,0.0,1.7193,1.8393,1.8659,1.8815,1.921,1.9292,1.9439,1.9822,2.0225,2.0661,2.1056,2.1133,2.1791,2.3579,2.378,2.4328,2.5717,2.5874,2.5874,2.5895,2.5895,2.5895,2.5884,2.5884,2.5884,2.5884,2.5895,2.5916,2.5895,2.5916,2.6114,2.6487,2.696,2.7421,2.7881,2.8303,2.849,2.849,2.849,2.849,2.849,2.849,2.849,2.849,2.849,2.849,2.849,2.853,2.8914,2.9516,3.012,3.0714,3.1344,3.2005,3.22,3.22,3.22,3.22,3.22,3.22,3.22,3.22,3.22,3.22,3.22,3.22,3.22,3.22,3.22,3.22,3.22,3.22,3.22,3.22,3.22,3.22,3.22,3.22,3.22,3.22,3.22,3.22,3.2332,3.2668,3.2704,3.2988,3.3719,3.3788,3.3974,3.4363,3.4414,3.4431,3.4431,3.4937,3.5218,3.5218,3.5673,3.618,3.6708,3.7225,3.7225,3.6739,3.7255,3.7495,1.1222,0.0,0.0,0.0,0.0,0.0,0.0,0.0,1.6285,1.7211,1.7862,1.8393,1.8787,1.9109,1.9338,1.9457,2.0171,2.0869,2.1326,2.1771,2.2356,2.3182,2.3295,2.3787,2.5041,2.519,2.538,0.0,2.5895,2.5742,2.5414,2.5392,2.5392,2.5392,2.601,2.6186,2.5895,2.6198,2.6249,2.6073,2.6487,2.694,2.74,2.7869,2.8223,2.849,2.849,2.849,2.849,2.849,2.849,2.849,2.849,2.849,2.855,2.9,2.9523,3.0126,3.0733,3.1376,3.1955,3.2132,3.22,3.22,3.22,3.22,3.22,3.22,3.22,3.22,3.22,3.22,3.22,3.22,3.22,3.22,3.22,3.22,3.22,3.22,3.22,3.22,3.22,3.22,3.22,3.22,3.22,3.22,3.22,3.22,3.2332,3.2668,3.2704,3.2899,3.3392,3.3667,3.3839,3.396,3.4604,3.4986,3.4986,3.5447,3.5721,3.5721,3.6211,3.6554,3.6708,3.6846,3.7029,3.7285,3.7436,3.7495,0.0,0.0,0.0,0.0,0.0,0.0,1.4533,1.4983,1.5478,0.0,1.7157,1.7715,1.8128,1.854,1.8842,1.9026,1.9748,2.0504,2.1128,2.1511,2.2097,2.3104,2.3227,2.3619,2.4646,2.474,2.4895,2.5296,2.5317,2.5185,2.4922,2.4911,2.4998,2.5184,2.5703,2.6018,2.6156,2.6383,2.6466,2.6447,2.6672,2.7042,2.7493,2.778,2.8122,2.849,2.849,2.849,2.849,2.849,2.849,2.849,2.849,2.849,2.855,2.8882,2.9419,3.0005,3.062,3.1251,3.1827,3.2114,3.22,3.22,3.22,3.22,3.22,3.22,3.22,3.22,3.22,3.22,3.22,3.22,3.22,3.22,3.22,3.22,3.22,3.22,3.22,3.22,3.22,3.22,3.22,3.22,3.22,3.22,3.22,3.22,3.2277,3.248,3.2614,3.2864,3.3269,3.3615,3.3874,3.4042,3.4773,3.5201,3.5201,3.5864,3.6227,3.6227,3.6754,3.7029,3.7029,3.7029,3.7195,3.7495,3.7495,3.7495,0.0,0.0,0.0,0.0,0.0,0.0,1.4662,1.4683,1.4802,0.0,1.6468,1.689,1.7293,1.7742,1.8137,1.8458,1.909,1.9831,2.0718,2.0904,2.157,2.3219,2.3442,2.3714,2.4427,2.4506,2.4506,2.4506,2.4432,2.441,2.441,2.441,2.4585,2.502,2.5126,2.5529,2.6257,2.6371,2.6619,2.7052,2.7093,2.7395,2.7913,2.7913,2.8122,2.849,2.849,2.849,2.849,2.849,2.849,2.849,2.849,2.849,2.851,2.859,2.8981,2.9581,3.0196,3.079,3.14,3.2005,3.22,3.22,3.22,3.22,3.22,3.22,3.22,3.22,3.22,3.22,3.22,3.22,3.22,3.22,3.22,3.22,3.22,3.22,3.22,3.22,3.22,3.22,3.22,3.22,3.22,3.22,3.22,3.22,3.22,3.22,3.2503,3.2846,3.3199,3.358,3.3942,3.4312,3.4887,3.5218,3.5283,3.618,3.6739,3.6785,3.7255,3.7495,3.7495,3.7495,3.7495,3.7495,3.7495,3.7495,1.3071,0.0,0.0,0.0,0.0,0.0,1.3662,1.4093,1.4564,0.0,1.5432,1.6056,1.6451,1.7165,1.7604,1.7301,1.8289,1.9596,2.0923,2.1546,2.2279,2.35,2.3632,2.3872,2.4443,2.4506,2.4506,2.4506,2.4104,2.3856,2.3856,2.3856,2.3899,2.3987,2.4722,2.5036,2.4899,2.5532,2.593,2.6084,2.6397,2.7027,2.7913,2.7913,2.8122,2.849,2.849,2.849,2.849,2.849,2.849,2.849,2.849,2.849,2.857,2.904,2.9613,3.0203,3.0809,3.145,3.2041,3.215,3.22,3.22,3.22,3.22,3.22,3.22,3.22,3.22,3.22,3.22,3.22,3.22,3.22,3.22,3.22,3.22,3.22,3.22,3.22,3.22,3.22,3.22,3.22,3.22,3.22,3.22,3.22,3.22,3.22,3.22,3.2503,3.2739,3.281,3.3409,3.3822,3.3908,3.4723,3.5366,3.5753,3.6368,3.6892,3.7346,3.745,3.7495,3.7495,3.7495,3.7495,3.7495,3.7495,3.7495,0.0,0.0,0.0,1.3855,0.0,0.0,0.0,1.4057,1.4258,1.4454,1.4983,1.546,1.5654,1.6209,1.6726,1.6932,1.7745,1.8777,2.0032,2.0886,2.1712,2.2557,2.2862,2.3113,2.3383,2.3613,2.3744,2.3744,2.3514,2.3343,2.3343,2.3343,2.3558,2.399,2.4456,2.4836,2.5105,2.5704,2.6012,2.6048,2.6255,2.6866,2.7791,2.7581,2.7862,2.849,2.849,2.849,2.849,2.849,2.849,2.849,2.849,2.849,2.853,2.8835,2.9321,2.9947,3.0545,3.1158,3.1758,3.2096,3.22,3.22,3.22,3.22,3.22,3.22,3.22,3.22,3.22,3.22,3.22,3.22,3.22,3.22,3.22,3.22,3.22,3.22,3.22,3.22,3.22,3.22,3.22,3.22,3.22,3.22,3.22,3.22,3.22,3.22,3.2682,3.3005,3.3005,3.3684,3.4199,3.4488,3.5154,3.5769,3.629,3.68,3.7225,3.7495,3.7495,3.7495,3.7495,3.7495,3.7495,3.7495,3.7495,3.7495,0.0,0.0,0.0,0.0,0.0,1.4273,0.0,0.0,0.0,1.4359,1.4693,0.0,0.0,0.0,0.0,0.0,0.0,0.0,0.0,1.9628,0.0,2.1372,2.1876,2.2164,2.2164,2.2433,2.2699,2.2959,2.2838,2.2841,2.3102,2.3038,2.3326,2.4036,2.4122,2.4521,2.5283,2.5767,2.6059,2.6153,2.6217,2.6721,2.7522,2.7201,2.7537,2.8346,2.8346,2.8394,2.849,2.849,2.849,2.849,2.849,2.849,2.851,2.8618,2.8981,2.9496,3.0222,3.079,3.1307,3.1973,3.22,3.22,3.22,3.22,3.22,3.22,3.22,3.22,3.22,3.22,3.22,3.22,3.22,3.22,3.22,3.22,3.22,3.22,3.22,3.22,3.22,3.22,3.22,3.22,3.22,3.22,3.22,3.22,3.2223,3.2296,3.2895,3.3322,3.3392,3.4008,3.4585,3.5019,3.5495,3.6007,3.6523,3.7165,3.7495,3.7495,3.7495,3.7495,3.7495,3.7495,3.7495,3.7495,3.7495,3.7495,0.0,0.0,0.0,0.0,1.5258,0.0,0.0,0.0,1.4772,1.4108,0.0,0.0,0.0,0.0,0.0,0.0,0.0,0.0,1.6936,1.8072,1.9432,2.0818,2.1391,2.1686,2.1686,2.1347,2.1623,2.2811,2.2198,2.2277,2.3475,2.3187,2.3042,2.3134,2.3498,2.3734,2.3835,2.4591,2.5189,2.5594,2.5951,2.6423,2.6982,2.6944,2.7232,2.7794,2.7794,2.8058,2.849,2.849,2.849,2.849,2.849,2.849,2.8558,2.9099,2.9341,2.9574,3.0696,3.1145,3.1307,3.1973,3.22,3.22,3.22,3.22,3.22,3.22,3.22,3.22,3.22,3.22,3.22,3.22,3.22,3.22,3.22,3.22,3.22,3.22,3.22,3.22,3.22,3.22,3.22,3.22,3.22,3.22,3.22,3.22,3.23,3.2596,3.3041,3.3409,3.3719,3.4145,3.4431,3.4498,3.5003,3.5495,3.596,3.6952,3.7495,3.7495,3.7495,3.7495,3.7495,3.7495,3.7495,3.7495,3.7495,3.7495,0.0,0.0,0.0,0.0,0.0,0.0,1.4708,0.0,1.4662,0.0,0.0,0.0,0.0,0.0,0.0,0.0,1.6197,0.0,0.0,0.0,1.8932,0.0,0.0,0.0,2.1146,2.1195,2.1547,2.2372,2.1854,2.2061,2.341,2.3311,2.3374,2.3685,2.3861,2.3952,2.3952,2.4508,2.4895,2.5107,2.5451,2.5925,2.6454,2.6454,2.6892,2.7697,2.7697,2.7998,2.849,2.849,2.849,2.849,2.849,2.849,2.853,2.8776,2.8882,2.9,2.9871,3.0158,3.033,3.1302,3.1882,3.22,3.22,3.22,3.22,3.22,3.22,3.22,3.22,3.22,3.22,3.22,3.22,3.22,3.22,3.2336,3.2426,3.2241,3.2354,3.2485,3.2485,3.2332,3.2259,3.2462,3.2485,3.2574,3.2807,3.2842,3.2895,3.3041,3.3374,3.3649,3.3788,3.4162,3.4534,3.4837,3.5623,3.6164,3.6352,3.7089,3.7495,3.7495,3.7495,3.7495,3.7495,3.7495,3.7495,3.7495,3.7495,3.7495,1.4176,0.0,0.0,0.0,0.0,0.0,0.0,0.0,0.0,0.0,0.0,0.0,0.0,0.0,0.0,1.5541,0.0,1.6686,0.0,1.7794,0.0,0.0,0.0,0.0,0.0,2.0475,2.0881,2.1587,2.1187,2.1561,2.3046,2.3155,2.3419,2.3953,2.424,2.4363,2.4363,2.4742,2.4939,2.4939,2.5182,2.5504,2.5877,2.5877,2.6394,2.7265,2.7421,2.7794,2.8286,2.845,2.849,2.849,2.849,2.849,2.849,2.849,2.849,2.859,2.9197,2.9632,3.0082,3.1121,3.1795,3.22,3.22,3.22,3.22,3.22,3.22,3.22,3.22,3.22,3.22,3.22,3.22,3.22,3.22,3.239,3.2485,3.2241,3.2408,3.2579,3.2686,3.2503,3.2462,3.281,3.2864,3.297,3.3252,3.3304,3.3339,3.3427,3.3649,3.3839,3.396,3.423,3.4635,3.5169,3.5879,3.6414,3.6693,3.7059,3.7345,3.7495,3.7495,3.7495,3.7495,3.7495,3.7495,3.7495,3.7495,3.7495,0.0,0.0,0.0,1.4829,0.0,0.0,0.0,0.0,1.4974,0.0,0.0,0.0,0.0,0.0,1.4775,1.5,1.5855,0.0,0.0,0.0,0.0,0.0,0.0,0.0,0.0,1.8596,1.9031,0.0,1.9968,2.0469,2.2339,2.256,2.2863,2.3419,2.4317,2.4772,2.4772,2.5111,2.5276,2.5276,2.5294,2.5312,2.5336,2.5336,2.5636,2.6178,2.67,2.7241,2.7769,2.8274,2.849,2.849,2.849,2.849,2.849,2.849,2.849,2.859,2.9197,3.0165,3.1251,3.1936,3.2169,3.22,3.22,3.22,3.22,3.22,3.22,3.22,3.22,3.22,3.22,3.22,3.22,3.22,3.22,3.2218,3.2205,3.22,3.2218,3.2314,3.2632,3.2686,3.2828,3.3217,3.3287,3.3287,3.3304,3.3304,3.3409,3.3753,3.3788,3.396,3.4346,3.4397,3.4635,3.5169,3.5234,3.5688,3.6662,3.6723,3.6968,3.7495,3.7495,3.7495,3.7495,3.7495,3.7495,3.7495,3.7495,3.7495,0.0,0.0,1.4391,1.4883,0.0,0.0,0.0,0.0,0.0,0.0,0.0,0.0,0.0,0.0,1.4976,1.5216,1.595,1.6476,0.0,0.0,0.0,0.0,0.0,0.0,0.0,0.0,0.0,1.983,1.9625,0.0,2.2162,2.2305,2.2777,2.377,2.4102,2.4443,2.479,2.4903,2.5087,2.5312,2.5312,2.5312,2.5312,2.5312,2.56,2.6129,2.6676,2.7198,2.7745,2.8274,2.849,2.849,2.849,2.849,2.849,2.849,2.849,2.853,2.8736,2.9321,3.012,3.0746,3.1209,3.1616,3.2059,3.22,3.22,3.22,3.22,3.22,3.22,3.22,3.22,3.22,3.22,3.22,3.22,3.2372,3.248,3.2241,3.2372,3.2574,3.2686,3.2704,3.2846,3.3234,3.3479,3.3632,3.3632,3.3857,3.4077,3.4179,3.4196,3.4247,3.4397,3.4397,3.4481,3.4668,3.5299,3.5816,3.6165,3.6846,3.7315,3.7495,3.7495,3.7495,3.7495,3.7495,3.7495,3.7495,3.7495,3.7495,1.2884,1.328,1.3634,1.4223,1.4596,0.0,1.4686,0.0,1.5194,0.0,0.0,0.0,0.0,0.0,1.5121,1.5477,1.6037,1.643,0.0,1.6829,0.0,0.0,0.0,0.0,0.0,0.0,1.8949,1.9217,1.9075,0.0,0.0,2.172,2.2352,2.3333,2.389,2.4335,2.469,2.488,2.5087,2.5312,2.5312,2.5312,2.5312,2.5312,2.5492,2.5841,2.6376,2.6928,2.7469,2.7998,2.8342,2.849,2.849,2.849,2.849,2.849,2.849,2.853,2.8756,2.9079,2.9523,3.0355,3.0977,3.1497,3.2028,3.2277,3.2336,3.2223,3.2296,3.2336,3.2223,3.2386,3.253,3.2259,3.2296,3.235,3.2237,3.2449,3.2632,3.2426,3.2664,3.2952,3.3076,3.2988,3.3005,3.3252,3.3479,3.3632,3.3632,3.3942,3.4179,3.4179,3.4312,3.4397,3.4397,3.4397,3.4481,3.4668,3.5285,3.5816,3.6165,3.6846,3.73,3.7495,3.7495,3.7495,3.7495,3.7495,3.7495,3.7495,3.7495,3.7495]},{"header":{"parameterUnit":"m.s-1","parameterCategory":1,"la1":30.6,"la2":29.2853,"lo1":-89.7004,"lo2":-87.6739,"dy":0.0162,"dx":0.0183,"nx":112,"ny":82,"refTime":"2024-05-24T12:00:00:Z","depth":0,"parameterNumber":3,"parameterNumberName":"V-component_of_WINDS"},"data":[0.0,0.0,0.0,0.0,0.0,0.0,0.0,0.0,0.0,0.0,0.0,0.0,0.0,0.0,0.0,0.0,0.0,0.0,0.0,0.0,0.0,0.0,0.0,0.0,0.0,0.0,0.0,0.0,0.0,0.0,0.0,0.0,0.0,0.0,0.0,0.0,0.0,0.0,0.0,0.0,0.0,0.0,0.0,0.0,0.0,0.0,0.0,0.0,0.0,0.0,0.0,0.0,0.0,0.0,0.0,0.0,0.0,0.0,0.0,0.0,0.0,0.0,0.0,0.0,0.0,0.0,0.0,0.0,0.0,0.0,0.0,0.0,0.0,0.0,0.0,0.0,0.0,0.0,0.0,0.0,0.0,0.0,0.0,0.0,0.0,0.0,0.0,0.0,0.0,0.0,0.0,1.6886,1.7628,1.8352,1.8965,1.8039,1.6969,1.5963,0.0,0.0,0.0,0.0,0.0,0.0,0.0,0.0,0.0,0.0,0.0,0.0,0.0,0.0,0.0,0.0,0.0,0.0,0.0,0.0,0.0,0.0,0.0,0.0,0.0,0.0,0.0,0.0,0.0,0.0,0.0,0.0,0.0,0.0,0.0,0.0,0.0,0.0,0.0,0.0,0.0,0.0,0.0,0.0,0.0,0.0,0.0,0.0,0.0,0.0,0.0,0.0,0.0,0.0,0.0,0.0,0.0,0.0,0.0,0.0,0.0,0.0,0.0,0.0,0.0,0.0,0.0,0.0,0.0,0.0,0.0,0.0,0.0,0.0,0.0,0.0,0.0,0.0,0.0,0.0,0.0,0.0,0.0,0.0,0.0,0.0,0.0,0.0,0.0,0.0,0.0,0.0,0.0,0.0,0.0,0.0,0.0,0.0,0.0,0.0,0.0,0.0,0.0,0.0,1.6589,1.8357,1.8272,1.8501,1.9482,1.8233,1.6969,1.5963,0.0,0.0,0.0,0.0,0.0,0.0,0.0,0.0,0.0,0.0,0.0,0.0,0.0,0.0,0.0,0.0,0.0,0.0,0.0,0.0,0.0,0.0,0.0,0.0,0.0,0.0,0.0,0.0,0.0,0.0,0.0,0.0,0.0,0.0,0.0,0.0,0.0,0.0,0.0,0.0,0.0,0.0,0.0,0.0,0.0,0.0,0.0,0.0,0.0,0.0,0.0,0.0,0.0,0.0,0.0,0.0,0.0,0.0,0.0,0.0,0.0,0.0,0.0,0.0,0.0,0.0,0.0,0.0,0.0,0.0,0.0,0.0,0.0,0.0,0.0,0.0,0.0,0.0,0.0,0.0,0.0,0.0,0.0,0.0,0.0,0.0,0.0,0.0,0.0,0.0,0.0,0.0,0.0,0.0,0.0,0.0,0.0,0.0,0.0,0.0,0.0,0.0,0.0,1.6129,1.7058,1.9103,1.8593,1.8536,1.9608,1.8292,1.7085,1.6331,1.5345,0.0,0.0,0.0,0.0,0.0,0.0,0.0,0.0,0.0,0.0,0.0,0.0,0.0,0.0,0.0,0.0,0.0,0.0,0.0,0.0,0.0,0.0,0.0,0.0,0.0,0.0,0.0,0.0,0.0,0.0,0.0,0.0,0.0,0.0,0.0,0.0,0.0,0.0,0.0,0.0,0.0,0.0,0.0,0.0,0.0,0.0,0.0,0.0,0.0,0.0,0.0,0.0,0.0,0.0,0.0,0.0,0.0,0.0,0.0,0.0,0.0,0.0,0.0,0.0,0.0,0.0,0.0,0.0,0.0,0.0,0.0,0.0,0.0,0.0,0.0,0.0,0.0,0.0,0.0,0.0,0.0,0.0,0.0,0.0,0.0,0.0,0.0,0.0,0.0,0.0,0.0,0.0,0.0,0.0,0.0,0.0,0.0,0.0,0.0,0.0,0.0,0.0,1.6805,1.7653,1.9493,1.8848,1.8676,1.9608,1.8292,1.7176,1.6633,1.5764,0.0,0.0,0.0,0.0,0.0,0.0,0.0,0.0,0.0,0.0,0.0,0.0,0.0,0.0,0.0,0.0,0.0,0.0,0.0,0.0,0.0,0.0,0.0,0.0,0.0,0.0,0.0,0.0,0.0,0.0,0.0,0.0,0.0,0.0,0.0,0.0,0.0,0.0,0.0,0.0,0.0,0.0,0.0,0.0,0.0,0.0,0.0,0.0,0.0,0.0,0.0,0.0,0.0,0.0,0.0,0.0,0.0,0.0,0.0,0.0,0.0,0.0,0.0,0.0,0.0,0.0,0.0,0.0,0.0,0.0,0.0,0.0,0.0,0.0,0.0,0.0,0.0,0.0,0.0,0.0,0.0,0.0,0.0,0.0,0.0,0.0,0.0,0.0,0.0,0.0,0.0,0.0,0.0,0.0,0.0,0.0,0.0,0.0,0.0,0.0,0.0,0.0,1.7424,1.8432,1.9574,1.9183,1.908,1.9657,1.8292,1.7176,1.6633,1.6115,0.0,0.0,0.0,0.0,0.0,0.0,0.0,0.0,0.0,0.0,0.0,0.0,0.0,0.0,0.0,0.0,0.0,0.0,0.0,0.0,0.0,0.0,0.0,0.0,0.0,0.0,0.0,0.0,0.0,0.0,0.0,0.0,0.0,0.0,0.0,0.0,0.0,0.0,0.0,0.0,0.0,0.0,0.0,0.0,0.0,0.0,0.0,0.0,0.0,0.0,0.0,0.0,0.0,0.0,0.0,0.0,0.0,0.0,0.0,0.0,0.0,0.0,0.0,0.0,0.0,0.0,0.0,0.0,0.0,0.0,0.0,0.0,0.0,0.0,0.0,0.0,0.0,0.0,0.0,0.0,0.0,0.0,0.0,0.0,0.0,0.0,0.0,0.0,0.0,0.0,0.0,0.0,0.0,0.0,0.0,0.0,0.0,0.0,0.0,0.0,0.0,0.0,1.7219,1.8225,0.0,1.9087,1.8967,1.9875,1.854,1.7419,1.6882,0.0,0.0,0.0,0.0,0.0,0.0,0.0,0.0,0.0,0.0,0.0,0.0,0.0,0.0,0.0,0.0,0.0,0.0,0.0,0.0,0.0,0.0,0.0,0.0,0.0,0.0,0.0,0.0,0.0,0.0,0.0,0.0,0.0,0.0,0.0,0.0,0.0,0.0,0.0,0.0,0.0,0.0,0.0,0.0,0.0,0.0,0.0,0.0,0.0,0.0,0.0,0.0,0.0,0.0,0.0,0.0,0.0,0.0,0.0,0.0,0.0,0.0,0.0,0.0,0.0,0.0,0.0,0.0,0.0,0.0,0.0,0.0,0.0,0.0,0.0,0.0,0.0,0.0,0.0,0.0,0.0,0.0,0.0,0.0,0.0,0.0,0.0,0.0,0.0,0.0,0.0,0.0,0.0,0.0,0.0,0.0,0.0,0.0,0.0,0.0,0.0,0.0,1.6677,1.7615,1.8675,0.0,1.9288,1.9191,1.9977,1.8429,1.7271,1.6958,0.0,0.0,0.0,0.0,0.0,0.0,0.0,0.0,0.0,0.0,0.0,0.0,0.0,0.0,0.0,0.0,0.0,0.0,0.0,0.0,0.0,0.0,0.0,0.0,0.0,0.0,0.0,0.0,0.0,0.0,0.0,0.0,0.0,0.0,0.0,0.0,0.0,0.0,0.0,0.0,0.0,0.0,0.0,0.0,0.0,0.0,0.0,0.0,0.0,0.0,0.0,0.0,0.0,0.0,0.0,0.0,0.0,0.0,0.0,0.0,0.0,0.0,0.0,0.0,0.0,0.0,0.0,0.0,0.0,0.0,0.0,0.0,0.0,0.0,0.0,0.0,0.0,0.0,0.0,0.0,0.0,0.0,0.0,0.0,0.0,0.0,0.0,0.0,0.0,0.0,0.0,0.0,0.0,0.0,0.0,0.0,0.0,0.0,0.0,0.0,0.0,0.0,1.6983,1.8817,2.0039,1.9916,1.9901,1.9901,1.9916,1.7874,1.6673,0.0,0.0,0.0,0.0,0.0,0.0,0.0,0.0,0.0,0.0,0.0,0.0,0.0,0.0,0.0,0.0,0.0,0.0,0.0,0.0,0.0,0.0,0.0,0.0,0.0,0.0,0.0,0.0,0.0,0.0,0.0,0.0,0.0,0.0,0.0,0.0,0.0,0.0,0.0,0.0,0.0,0.0,0.0,0.0,0.0,0.0,0.0,0.0,0.0,0.0,0.0,0.0,0.0,0.0,0.0,0.0,0.0,0.0,0.0,0.0,0.0,0.0,0.0,0.0,0.0,0.0,0.0,0.0,0.0,0.0,0.0,0.0,0.0,0.0,0.0,0.0,0.0,0.0,0.0,0.0,0.0,0.0,0.0,0.0,0.0,0.0,0.0,0.0,0.0,0.0,0.0,0.0,0.0,0.0,0.0,0.0,0.0,0.0,0.0,0.0,0.0,0.0,0.0,1.6677,1.8336,1.9638,2.0068,1.9863,1.9878,2.0344,1.8415,1.718,1.7217,0.0,0.0,0.0,0.0,0.0,0.0,0.0,0.0,0.0,0.0,0.0,0.0,0.0,0.0,0.0,0.0,0.0,0.0,0.0,0.0,0.0,0.0,0.0,0.0,0.0,0.0,0.0,0.0,0.0,0.0,0.0,0.0,0.0,0.0,0.0,0.0,0.0,0.0,0.0,0.0,0.0,0.0,0.0,0.0,0.0,0.0,0.0,0.0,0.0,0.0,0.0,0.0,0.0,0.0,0.0,0.0,0.0,0.0,0.0,0.0,0.0,0.0,0.0,0.0,0.0,0.0,0.0,0.0,0.0,0.0,0.0,0.0,0.0,0.0,0.0,0.0,0.0,0.0,0.0,0.0,0.0,0.0,0.0,0.0,0.0,0.0,0.0,0.0,0.0,0.0,0.0,0.0,0.0,0.0,0.0,0.0,0.0,0.0,0.0,0.0,0.0,0.0,1.6875,1.8585,1.9868,2.0216,2.0053,2.0079,2.0447,1.8495,1.7265,1.7314,0.0,0.0,0.0,0.0,0.0,0.0,0.0,0.0,0.0,0.0,0.0,0.0,0.0,0.0,0.0,0.0,0.0,0.0,0.0,0.0,0.0,0.0,0.0,0.0,0.0,0.0,0.0,0.0,0.0,0.0,0.0,0.0,0.0,0.0,0.0,0.0,0.0,0.0,0.0,0.0,0.0,0.0,0.0,0.0,0.0,0.0,0.0,0.0,0.0,0.0,0.0,0.0,0.0,0.0,0.0,0.0,0.0,0.0,0.0,0.0,0.0,0.0,0.0,0.0,0.0,0.0,0.0,0.0,0.0,0.0,0.0,0.0,0.0,0.0,0.0,0.0,0.0,0.0,0.0,0.0,0.0,0.0,0.0,0.0,0.0,0.0,0.0,0.0,0.0,0.0,0.0,0.0,0.0,0.0,0.0,0.0,0.0,0.0,0.0,0.0,0.0,0.0,1.7411,1.9283,2.0536,2.0403,2.0444,2.0446,2.0332,1.8407,1.7201,1.7217,0.0,0.0,0.0,0.0,0.0,0.0,0.0,0.0,0.0,0.0,0.0,0.0,0.0,0.0,0.0,0.0,0.0,0.0,0.0,0.0,0.0,0.0,0.0,0.0,0.0,0.0,0.0,0.0,0.0,0.0,0.0,0.0,0.0,0.0,0.0,0.0,0.0,0.0,0.0,0.0,0.0,0.0,0.0,0.0,0.0,0.0,0.0,0.0,0.0,0.0,0.0,0.0,0.0,0.0,0.0,0.0,0.0,0.0,0.0,0.0,2.0544,0.0,0.0,0.0,0.0,0.0,0.0,0.0,0.0,0.0,0.0,0.0,0.0,0.0,0.0,0.0,0.0,0.0,0.0,0.0,0.0,0.0,0.0,0.0,0.0,0.0,0.0,0.0,0.0,0.0,0.0,0.0,0.0,0.0,0.0,0.0,0.0,0.0,0.0,0.0,0.0,0.0,1.7627,1.9309,2.0595,2.0971,2.112,2.1011,2.0562,1.934,1.8238,1.7411,1.6096,0.0,0.0,0.0,0.0,0.0,0.0,0.0,0.0,0.0,0.0,0.0,0.0,0.0,0.0,0.0,0.0,0.0,0.0,0.0,0.0,0.0,0.0,0.0,0.0,0.0,0.0,0.0,0.0,0.0,0.0,0.0,0.0,0.0,0.0,0.0,0.0,0.0,0.0,0.0,0.0,0.0,0.0,0.0,0.0,0.0,0.0,0.0,0.0,0.0,0.0,0.0,0.0,0.0,0.0,0.0,0.0,0.0,0.0,0.0,0.0,2.103,0.0,0.0,0.0,0.0,0.0,0.0,0.0,0.0,0.0,0.0,0.0,0.0,0.0,0.0,0.0,0.0,0.0,0.0,0.0,0.0,0.0,0.0,0.0,0.0,0.0,0.0,0.0,0.0,0.0,0.0,0.0,0.0,0.0,0.0,0.0,0.0,0.0,0.0,0.0,0.0,1.8349,1.9862,2.1098,2.168,2.1529,2.1187,2.0649,1.9626,1.8542,1.7472,1.6357,0.0,0.0,0.0,0.0,0.0,0.0,0.0,0.0,0.0,0.0,0.0,0.0,0.0,0.0,0.0,0.0,0.0,0.0,0.0,0.0,0.0,0.0,0.0,0.0,0.0,0.0,0.0,0.0,0.0,0.0,0.0,0.0,0.0,0.0,0.0,0.0,0.0,0.0,0.0,0.0,0.0,0.0,0.0,0.0,0.0,0.0,0.0,0.0,0.0,0.0,0.0,0.0,0.0,2.6261,2.671,2.7365,2.7292,2.716,2.6854,2.53,2.3752,2.2313,2.1799,0.0,0.0,0.0,0.0,0.0,0.0,0.0,0.0,0.0,0.0,0.0,0.0,0.0,0.0,0.0,0.0,0.0,0.0,0.0,0.0,0.0,0.0,0.0,0.0,2.2545,2.264,2.0298,0.0,0.0,0.0,0.0,0.0,0.0,0.0,0.0,0.0,0.0,0.0,1.932,2.0471,2.1523,2.2201,2.1841,2.1272,2.0649,1.9794,1.8782,1.7616,1.6619,1.5839,0.0,0.0,0.0,0.0,0.0,0.0,0.0,0.0,0.0,0.0,0.0,0.0,0.0,0.0,0.0,0.0,0.0,0.0,0.0,0.0,0.0,0.0,0.0,0.0,0.0,0.0,0.0,0.0,0.0,0.0,0.0,0.0,2.3216,2.3069,0.0,0.0,0.0,0.0,0.0,0.0,0.0,0.0,0.0,0.0,0.0,0.0,0.0,2.5615,2.6842,2.7519,2.8199,2.8876,3.0043,3.0799,3.1165,3.0879,3.0879,3.1039,2.9948,0.0,2.4156,2.4007,0.0,0.0,0.0,0.0,0.0,0.0,0.0,0.0,0.0,0.0,0.0,0.0,0.0,0.0,0.0,0.0,0.0,0.0,0.0,0.0,0.0,0.0,2.3725,2.3725,2.3839,2.37,0.0,2.1775,2.0859,2.0156,1.9243,0.0,0.0,0.0,0.0,0.0,0.0,0.0,2.0213,2.0585,2.1085,2.2107,2.2139,2.1692,2.0694,2.0464,1.9731,1.8193,1.752,1.6943,1.6415,1.5378,0.0,0.0,0.0,0.0,0.0,0.0,0.0,0.0,0.0,0.0,0.0,0.0,0.0,0.0,0.0,0.0,0.0,0.0,0.0,0.0,0.0,0.0,0.0,0.0,0.0,0.0,0.0,0.0,0.0,2.3305,2.3848,2.3756,2.3875,2.3636,0.0,0.0,0.0,0.0,0.0,0.0,0.0,0.0,0.0,2.7829,2.7841,2.8404,2.9582,2.9844,3.0233,3.0755,3.1329,3.1809,3.2183,3.2033,3.2033,3.2168,3.1713,3.0328,2.8257,2.6916,2.5441,2.3948,0.0,0.0,0.0,0.0,2.2419,2.2505,2.3911,2.3952,2.3417,2.3684,0.0,0.0,0.0,0.0,0.0,0.0,0.0,0.0,0.0,0.0,2.4683,2.5035,2.5373,2.5359,2.4375,2.3742,2.2995,0.0,2.1038,2.0501,1.9814,0.0,0.0,0.0,0.0,2.0704,2.156,2.1876,2.2308,2.3129,2.2592,2.1765,2.0692,2.0598,1.9901,1.8301,1.7989,1.7472,1.6631,1.6129,1.5525,0.0,0.0,0.0,0.0,0.0,0.0,0.0,0.0,0.0,0.0,0.0,0.0,0.0,0.0,0.0,0.0,0.0,0.0,0.0,0.0,0.0,0.0,0.0,0.0,0.0,0.0,0.0,0.0,2.4071,2.455,2.4453,2.5112,2.5057,0.0,0.0,0.0,0.0,0.0,0.0,2.7201,2.7352,2.8303,3.032,3.0419,3.0926,3.1969,3.1808,3.2053,3.2681,3.2522,3.2696,3.3172,3.2903,3.2784,3.2769,3.2501,3.2119,3.1492,2.9401,2.7664,2.6234,2.5271,2.4552,2.4123,2.4795,2.4838,2.4797,2.6652,2.6694,2.5963,2.6132,2.5555,2.4585,2.3475,0.0,0.0,0.0,0.0,2.3602,2.4529,2.526,2.5836,2.6287,2.6722,2.6807,2.5921,2.5724,2.5119,0.0,2.2559,2.214,2.1243,0.0,0.0,0.0,0.0,2.2389,2.2824,2.303,2.3281,2.3722,2.2977,2.1922,2.0706,2.0601,1.9975,1.8494,1.8277,1.7832,1.6991,1.6727,1.6166,1.5248,0.0,0.0,0.0,0.0,0.0,0.0,0.0,0.0,0.0,0.0,0.0,0.0,0.0,0.0,0.0,0.0,0.0,0.0,0.0,0.0,0.0,0.0,0.0,0.0,0.0,0.0,0.0,0.0,0.0,2.5621,2.6826,0.0,0.0,0.0,0.0,2.6621,2.7212,2.8285,2.9919,3.001,3.0529,3.1665,3.2014,3.2686,3.3749,3.3381,3.3851,3.5121,3.4473,3.4549,3.5226,3.4255,3.3817,3.3772,3.2813,3.2381,3.2228,3.0848,2.9414,2.8063,2.7923,2.7355,2.6708,2.7369,2.7959,2.8436,2.8549,2.8549,2.862,2.9181,2.8126,2.6554,2.5907,2.5317,0.0,0.0,2.5669,2.6582,2.6638,2.7172,2.7679,2.7707,2.7735,2.772,2.7664,2.7665,2.6933,0.0,2.3489,2.3041,2.2971,0.0,2.2294,2.2806,2.2545,2.2684,2.3784,2.3507,2.318,2.3159,2.3088,2.2395,2.075,2.0596,2.0127,1.9036,1.8482,1.8118,1.7942,1.7063,1.6443,1.6139,1.5285,0.0,0.0,0.0,0.0,0.0,0.0,0.0,0.0,0.0,0.0,0.0,0.0,0.0,0.0,0.0,0.0,0.0,0.0,0.0,0.0,0.0,0.0,0.0,0.0,0.0,0.0,0.0,0.0,2.8533,2.9758,0.0,2.8722,2.8856,2.8925,2.8752,2.934,3.0565,3.2486,3.2741,3.3736,3.5659,3.5213,3.5436,3.647,3.5427,3.5276,3.5999,3.5068,3.4652,3.4681,3.3878,3.343,3.324,3.2882,3.2607,3.2351,3.1874,3.1212,3.0417,2.9998,2.9461,2.8956,2.9189,2.9421,2.9609,2.9701,2.9739,2.9721,2.9625,2.9153,2.8562,2.8352,2.8127,2.7959,2.7959,2.8282,2.8688,2.9081,2.9362,2.9546,2.9546,2.9546,2.9321,2.855,2.8381,2.8001,2.6736,2.5626,2.4656,2.3881,2.3558,2.3347,2.3126,2.3635,2.4175,2.4592,2.4477,2.434,2.4338,2.3932,2.3001,2.1317,2.1188,2.0563,1.9099,1.8819,1.8384,1.7638,1.7218,1.674,1.6216,1.5426,1.4906,0.0,0.0,0.0,0.0,0.0,0.0,0.0,0.0,0.0,0.0,0.0,0.0,0.0,0.0,0.0,0.0,0.0,0.0,0.0,0.0,0.0,0.0,0.0,0.0,0.0,0.0,2.9812,3.056,3.1835,3.22,3.096,3.1417,3.1681,3.134,3.2035,3.314,3.463,3.5095,3.6011,3.7516,3.7242,3.7353,3.7934,3.7104,3.6808,3.7073,3.6355,3.5849,3.5528,3.5099,3.4729,3.4452,3.4452,3.4058,3.341,3.341,3.2897,3.2064,3.1597,3.1108,3.0719,3.0955,3.1043,3.1058,3.1137,3.1176,3.1101,3.0561,3.0273,3.0133,3.0133,3.0037,2.9952,3.0178,3.0249,3.0333,3.0724,3.0837,3.0837,3.0837,3.0837,3.0628,2.9829,2.9631,2.9463,2.883,2.7538,2.6216,2.5189,2.5021,2.4782,2.4137,2.4768,2.5303,2.5303,2.53,2.523,2.5019,2.4409,2.3379,2.1893,2.1415,2.0649,1.9351,1.9106,1.8654,1.7873,1.7471,1.7014,1.6448,1.5564,1.5231,1.5538,0.0,0.0,0.0,0.0,0.0,0.0,0.0,0.0,0.0,0.0,0.0,0.0,0.0,0.0,0.0,0.0,0.0,0.0,0.0,0.0,0.0,0.0,0.0,2.7883,2.9394,3.0792,3.1559,3.2959,3.3461,3.2373,3.372,3.4586,3.4398,3.53,3.6017,3.6373,3.7018,3.7266,3.7016,3.7945,3.833,3.8089,3.833,3.8458,3.8474,3.8456,3.8298,3.8054,3.8024,3.7832,3.7522,3.7522,3.6731,3.5452,3.5421,3.4453,3.2957,3.2708,3.2333,3.1985,3.2648,3.2882,3.2852,3.2852,3.2851,3.2731,3.2101,3.1573,3.1213,3.1213,3.0895,3.0668,3.1316,3.1502,3.1502,3.1502,3.1516,3.1544,3.1544,3.1544,3.1558,3.1544,3.1544,3.1331,3.0668,2.9111,2.7692,2.6975,2.6863,2.6638,2.602,2.5921,0.0,2.5893,2.5893,2.5674,2.5061,2.4423,2.3563,2.2399,2.1288,2.0425,1.986,1.9343,1.8967,1.8734,1.7922,1.7303,1.6965,1.5794,1.561,1.6445,0.0,0.0,0.0,0.0,0.0,0.0,0.0,0.0,0.0,0.0,0.0,0.0,0.0,0.0,0.0,0.0,0.0,0.0,0.0,0.0,0.0,0.0,2.9694,2.9694,3.1448,3.326,3.4723,3.5244,3.5559,3.5835,3.6063,3.6198,3.6182,3.6877,3.7587,3.8219,3.8664,3.9075,3.9504,3.9535,3.9784,4.0253,3.9784,3.9831,4.0344,3.9568,3.9156,3.9068,3.852,3.8135,3.7861,3.7861,3.7376,3.6523,3.6037,3.5425,3.4654,3.3326,3.2577,3.2281,3.2464,3.231,3.2033,3.2033,3.1869,3.1634,3.1446,3.1389,3.1431,3.1431,3.1333,3.126,3.146,3.1502,3.1502,3.1502,3.1822,3.2145,3.2145,3.2497,3.269,3.2258,3.2145,3.1963,3.1345,3.0811,2.9998,2.8436,2.8183,2.7804,2.6722,2.6554,0.0,2.595,2.5893,2.5674,2.5061,2.4836,2.4074,2.2439,2.2005,2.1415,2.0439,2.0245,1.9951,1.9521,1.9171,1.8766,1.8288,1.7766,1.7443,0.0,0.0,0.0,0.0,0.0,0.0,0.0,0.0,0.0,0.0,0.0,0.0,0.0,0.0,0.0,0.0,0.0,0.0,0.0,0.0,0.0,0.0,3.0604,3.2068,3.2733,3.3929,3.5206,3.6502,3.6808,3.7091,3.7551,3.765,3.7694,3.7739,3.8518,3.9176,3.9611,4.0115,4.0414,4.0511,4.0881,4.116,4.1304,4.116,4.1305,4.1723,4.1102,4.0804,4.0788,4.0352,4.0069,3.992,3.992,3.9372,3.8436,3.789,3.7048,0.0,0.0,0.0,0.0,0.0,3.2231,3.1993,3.1993,3.1879,3.1693,3.1693,3.152,3.1335,3.1593,3.1389,3.1148,3.1415,3.1502,3.1502,3.1502,3.1752,3.2019,3.2019,3.2483,3.2831,3.2483,3.2592,3.2662,3.2328,3.2258,0.0,3.0474,2.9813,2.9125,2.8112,2.7537,2.7088,2.6736,2.623,2.577,2.5411,2.5146,2.4579,2.3517,2.2981,0.0,0.0,0.0,2.0622,1.9822,1.964,0.0,0.0,0.0,0.0,0.0,0.0,0.0,0.0,1.8143,1.7961,0.0,0.0,0.0,0.0,0.0,0.0,0.0,0.0,0.0,0.0,0.0,0.0,0.0,0.0,0.0,0.0,3.2566,3.4596,3.6135,3.6498,3.6842,3.7442,3.7825,3.8067,3.8115,3.8618,3.8991,3.9073,4.0053,4.0625,4.0625,0.0,0.0,0.0,0.0,4.2116,4.1596,4.2197,4.2522,4.2602,4.2602,4.2602,4.2602,4.2602,4.2602,4.2602,4.2555,4.1812,4.0588,4.019,3.8808,3.6729,3.4372,3.3426,3.3321,3.2644,3.2398,3.2398,3.2398,0.0,0.0,3.2405,3.1829,3.122,3.1838,3.1384,3.0773,3.1333,3.1429,3.1357,3.1291,3.1331,3.1387,3.1387,3.185,3.23,3.23,3.276,3.3196,3.3196,3.3252,3.3125,3.2578,3.1511,3.0486,2.9797,2.8788,2.8058,2.7917,2.6863,2.6062,2.5923,0.0,0.0,2.4881,2.3918,2.3055,2.2538,2.2018,2.1285,2.0269,1.9997,1.9751,1.9488,1.9822,2.0309,2.0933,2.138,2.1603,2.1564,1.9705,1.9366,0.0,0.0,0.0,0.0,0.0,0.0,0.0,0.0,0.0,0.0,0.0,0.0,0.0,0.0,0.0,3.2972,3.4686,3.6094,3.7113,3.8003,3.8608,3.8738,3.8547,3.8505,3.8785,3.9154,3.9623,4.0144,4.0929,4.1401,4.1401,4.1531,4.1272,4.0528,4.0756,4.1127,4.1596,4.1726,4.2067,4.2602,0.0,0.0,4.2602,4.2602,4.2602,4.2587,4.2302,4.1885,4.1325,4.0431,3.9012,3.7157,3.4746,3.364,3.3321,3.2644,3.2398,3.2398,3.2398,3.2148,3.1928,3.2472,3.2258,3.1943,3.2593,3.2292,0.0,3.1421,3.0949,3.0454,3.0062,3.0331,3.0696,3.0696,3.1204,3.1668,3.1668,3.2145,3.2564,3.2564,3.2971,3.3266,3.3154,3.2522,3.1637,3.05,3.0134,2.9629,2.8662,2.7889,2.7042,2.6012,2.5362,2.4782,2.4236,2.398,2.3797,2.3676,2.3361,2.3098,2.2878,2.2411,2.2228,2.238,2.2062,2.2049,2.2392,2.2286,2.2231,2.2218,2.1811,2.1472,0.0,0.0,0.0,0.0,0.0,0.0,0.0,0.0,0.0,0.0,0.0,2.9036,0.0,0.0,3.3269,3.4802,3.6367,3.7677,3.8491,3.9055,3.9407,3.9407,3.9192,3.9118,3.9292,3.9599,3.9852,3.9991,4.0641,4.1046,4.1046,4.1046,4.0722,4.0025,4.0333,4.0673,4.1046,4.1417,4.1953,4.2602,4.2602,4.2602,4.2602,4.2602,4.2602,4.2602,4.2413,4.2254,4.2029,4.1023,3.978,3.8324,3.6628,3.5341,3.4306,3.3275,3.3121,3.3397,3.3043,3.2995,3.316,3.3494,3.329,3.2899,3.2981,3.2599,3.1979,3.1143,3.0655,3.028,2.9749,2.9812,3.005,3.005,3.0528,3.1007,3.1007,3.1499,3.1949,3.1949,3.244,3.2845,3.2845,3.2845,3.2634,3.2002,3.1384,3.0783,3.0178,2.9265,2.8219,2.6976,2.6573,2.6016,2.5019,2.4669,2.4501,2.4501,2.4093,2.376,2.3605,2.3346,2.3136,2.3003,2.3003,2.2999,2.2999,2.3177,2.3251,2.3251,2.3249,2.2922,0.0,0.0,0.0,0.0,0.0,0.0,0.0,0.0,2.9174,3.0051,3.0708,3.1596,3.3148,3.46,3.5757,3.6409,3.7805,3.902,3.9623,3.9778,3.9818,3.9818,3.9685,3.9571,3.9493,3.9789,3.9848,3.952,4.0123,4.0447,4.0317,4.0317,3.9993,3.9313,3.9815,4.0171,4.0301,4.09,4.1613,4.2408,4.2408,4.2457,4.2602,4.2602,4.2602,4.2602,4.2539,4.2476,4.2349,4.1517,4.0686,3.982,3.8871,3.7639,3.6199,3.4597,3.4305,3.4613,3.3998,3.4121,3.452,3.4659,3.4437,3.4076,3.3768,3.3332,3.2682,3.1509,3.0988,3.0642,2.9959,2.9685,2.9587,2.9587,2.9966,3.0331,3.0331,3.0837,3.1302,3.1302,3.1907,3.2412,3.2412,3.2901,3.3308,3.3308,3.2483,3.1808,3.1682,3.067,2.9546,2.8437,2.8212,2.7636,2.6385,2.571,2.5303,2.5176,2.4673,2.4211,2.3898,2.3805,2.3567,2.3137,2.3493,2.362,2.3451,2.3891,2.4098,2.4098,2.4098,2.3836,2.723,2.7339,2.7545,2.7835,2.8569,2.9713,0.0,0.0,3.2632,3.398,3.4357,3.4926,3.6481,3.7008,3.7463,3.8193,3.9014,3.9612,3.9681,4.0006,4.0231,4.0231,3.9859,3.9454,3.9101,3.9364,3.9549,3.9505,4.0123,4.0252,3.9637,3.9604,3.928,3.8537,3.8602,3.8942,3.9619,3.9685,4.0398,4.171,4.171,4.2019,4.2602,4.2602,4.2602,4.2587,4.2286,4.198,4.1688,4.1592,4.1478,4.1284,4.0592,4.0005,3.9305,3.7002,3.583,3.5368,3.5291,3.4921,3.4597,3.5183,3.5353,3.5415,3.5953,3.5661,3.4942,3.3885,3.2761,3.1605,3.0655,2.9994,2.9587,2.9587,2.9643,2.9699,2.9699,3.0177,3.0612,3.0612,3.1581,3.2412,3.2412,3.2901,3.3308,3.3308,3.3196,3.2901,3.237,3.171,3.1007,3.0275,2.9713,2.89,2.7678,2.6975,2.6371,2.5837,2.5507,2.5177,2.4871,2.4563,2.4365,2.4309,2.4129,2.4154,2.4359,2.4176,2.4098,2.4098,2.4098,2.4058,2.8684,2.8858,0.0,0.0,3.0539,3.1703,3.2607,3.3824,3.4947,3.5539,3.636,3.7172,3.7818,3.8407,3.8876,0.0,3.9865,4.04,4.04,4.0341,4.0305,4.0305,3.967,3.9182,3.9023,3.9141,3.9112,3.8873,3.9135,3.9153,3.8875,3.8859,3.873,3.8408,3.8391,3.8748,3.9491,3.9491,3.9977,4.0965,4.0965,4.1337,4.2019,4.2019,4.2229,4.2602,4.2444,4.2206,4.1899,4.1899,4.1785,4.1557,4.1075,4.0816,4.04,3.8183,3.7311,3.7138,3.6353,3.6153,3.623,3.6122,3.6091,3.603,3.5661,3.538,3.4872,3.3463,3.2674,3.197,3.0809,3.0317,3.0036,2.9671,2.9587,2.9587,2.9587,2.9797,2.998,2.998,3.0696,3.1286,3.1286,3.2114,3.2774,3.2774,3.3083,3.321,3.2957,3.269,3.2174,3.119,3.0193,2.9406,2.8886,2.8088,2.751,2.726,2.6277,2.5577,2.5259,2.4767,2.4422,2.4261,2.4156,2.4156,2.4261,2.4143,2.4282,2.4624,2.4624,2.499,3.0037,0.0,0.0,3.1126,3.2336,3.3483,3.3461,3.4905,3.635,3.6762,3.7708,3.8585,3.9015,3.9617,4.0014,3.9979,4.0491,4.0847,4.074,4.0473,4.0201,3.9973,3.9385,3.8955,3.8849,3.8835,3.8711,3.842,3.8391,3.8391,3.8391,3.8391,3.8391,3.8391,3.8391,3.8665,3.9183,3.9199,3.9539,4.022,4.022,4.0592,4.1289,4.1515,4.1969,4.2602,4.2602,4.246,4.2238,4.2238,4.2045,4.172,4.1572,4.134,4.0934,3.9515,3.8898,3.863,3.7661,3.7523,3.7677,3.6984,3.669,3.6376,3.5409,3.5023,3.4622,3.3263,3.2747,3.2373,3.1291,3.0766,3.0401,2.9952,2.9713,2.9587,2.9587,2.9587,2.9587,2.9587,3.0092,3.0514,3.0514,3.1412,3.2216,3.237,3.276,3.3111,3.328,3.3308,3.2971,3.2089,3.1021,3.0257,2.9979,2.9172,2.8553,2.8279,2.7065,2.6224,2.5878,2.532,2.4854,2.4568,2.4568,2.4568,2.4568,2.4753,2.504,2.5476,2.5618,2.6219,0.0,0.0,3.306,3.2873,3.3894,3.4971,3.5108,3.5732,3.6715,3.8215,3.856,3.9043,4.0555,4.0848,4.086,4.0865,4.0883,4.0752,4.0379,4.0317,3.9986,3.9145,3.9023,3.8849,0.0,3.8406,3.8406,3.8391,3.8391,3.8391,3.8391,3.8391,3.8391,3.8391,3.8391,3.8408,3.8424,3.8424,3.8796,3.9523,3.9523,3.988,4.056,4.1256,4.1969,4.2602,4.2602,4.2602,4.2587,4.2587,4.2397,4.2109,4.2445,4.1964,4.1122,4.1393,4.0639,3.9461,3.943,3.8999,3.8353,3.7692,3.7124,3.6581,3.5883,3.5317,3.4776,3.4209,3.3638,3.3044,3.2492,3.1426,3.0514,3.0486,3.0036,2.9587,2.9587,2.9587,2.9587,2.9587,3.0092,3.0514,3.0514,3.1078,3.1724,3.2314,3.2426,3.2634,3.3224,3.3308,3.3294,3.3252,3.269,3.1926,3.0945,3.0226,2.944,2.8463,2.7865,2.74,2.7057,2.6529,2.61,2.5756,2.5756,2.5756,2.5756,2.635,2.6641,2.6667,2.718,2.7755,0.0,0.0,3.3201,3.402,3.4686,3.5277,3.5818,3.6536,3.7243,3.776,3.8261,3.8916,3.9917,4.0106,4.0279,4.0814,4.0912,4.0847,4.0721,4.0478,4.0087,3.947,3.9169,0.0,0.0,0.0,0.0,3.8391,3.8391,3.8391,3.8391,3.8391,3.8391,3.8391,3.8391,3.8391,3.8391,3.8391,3.8521,3.8778,3.9264,3.9847,4.0544,4.1256,4.1969,4.2602,4.2602,4.2602,4.2602,4.2602,4.2397,4.2093,4.198,4.1588,4.1087,4.0935,4.0574,4.0107,3.9661,3.9353,3.9045,3.8368,3.7505,3.6589,3.6017,3.5148,3.4271,3.3719,3.3421,3.3129,3.2545,3.2072,3.1668,3.126,3.0668,3.0317,3.0769,3.05,3.0205,3.0205,3.0359,3.0373,2.9966,3.0415,3.1188,3.2244,3.2732,3.3069,3.328,3.3308,3.3308,3.3308,3.3125,3.2762,3.2145,3.1323,3.0558,2.9954,2.8794,2.8079,2.7966,2.7397,2.7046,2.6929,2.6929,2.6929,2.6929,2.7128,2.7432,2.7828,2.8024,2.8608,3.3273,3.3844,3.4237,3.5463,3.5612,3.5621,3.6187,3.6708,3.7157,3.7433,3.7881,3.8433,3.9175,3.9301,3.9572,4.0348,4.0469,4.0525,4.0657,4.032,3.9889,3.9444,3.902,3.8683,0.0,0.0,0.0,3.8391,3.8391,3.8391,3.8391,3.8391,3.8391,3.8391,3.8391,3.8391,3.8391,3.8391,3.8391,3.8408,3.8877,3.9475,4.0171,4.0884,4.1597,4.2261,4.2489,4.2602,4.2602,4.2602,4.2397,4.2093,4.1997,4.1605,4.1087,4.0936,4.073,4.0428,4.0014,3.9861,3.9753,3.9076,3.8206,3.7263,3.6467,3.539,3.433,3.3776,3.3477,3.321,3.2817,3.255,3.23,3.1907,3.1331,3.0993,3.1401,3.1162,3.0851,3.0851,3.0851,3.0724,3.0347,3.06,3.1148,3.1963,3.2412,3.2803,3.3238,3.3308,3.3308,3.3308,3.3308,3.3069,3.2525,3.1918,3.1361,3.0846,2.9679,2.9,2.9,2.8451,2.8133,2.8133,2.8133,2.8133,2.8133,2.8342,2.863,2.9013,2.924,2.9719,3.5587,3.5933,3.6111,3.7049,3.6655,3.6073,3.631,3.6335,3.6525,3.7277,3.7409,3.7605,0.0,0.0,3.8795,3.9508,3.971,3.9897,4.0248,3.9927,3.9484,0.0,0.0,0.0,0.0,0.0,0.0,3.844,0.0,3.8391,3.8391,3.844,3.8456,3.8456,3.8489,3.8505,3.8505,3.8472,3.8456,3.8456,3.8424,3.878,3.9523,4.0155,4.0868,4.1644,4.2262,4.257,4.2602,4.2602,4.2397,4.2126,4.2444,4.198,4.1156,4.1489,4.1156,4.0558,4.0558,4.0524,4.0397,3.9768,3.9167,3.8469,3.7253,3.6079,3.5011,3.4422,3.3817,3.335,3.3308,3.2873,3.2455,3.2455,3.1991,3.1558,3.1583,3.1572,3.1558,3.1558,3.153,3.1502,3.1502,3.1502,3.1516,3.1544,3.153,3.1921,3.3097,3.3252,3.328,3.3308,3.3308,3.2962,3.2164,3.2092,3.1795,3.1061,3.0458,3.014,3.014,2.9653,2.9384,2.9384,2.9384,2.9384,2.9384,2.9897,3.014,3.0153,3.0725,3.1005,3.5762,3.6523,3.708,3.7153,3.6693,3.6392,3.7042,3.6732,3.6353,3.6559,3.6173,3.6018,0.0,0.0,0.0,3.8761,3.9848,0.0,4.0333,4.0201,0.0,3.9091,0.0,3.8725,3.842,3.8391,0.0,0.0,3.8699,3.8391,3.8391,3.8924,3.9215,3.9215,3.9701,3.9946,3.9946,3.9475,3.9215,3.9215,3.8651,3.878,3.9522,3.9669,4.043,4.1612,4.1775,4.2148,4.2602,4.2602,4.2397,4.2109,4.219,4.1916,4.1489,4.1572,4.1489,4.1323,4.1323,4.0953,4.0459,4.029,3.9533,3.8644,3.8309,3.7072,3.5643,3.5041,3.4438,3.3866,3.342,3.3196,3.3069,3.3069,3.2606,3.23,3.2732,3.2497,3.2174,3.2174,3.1808,3.1502,3.1502,3.1502,3.164,3.2103,3.178,3.1766,3.2539,3.262,3.2788,3.3252,3.3308,3.2962,3.2164,3.2092,3.1795,3.1061,3.0856,3.0764,3.0764,3.0652,3.0574,3.0574,3.0574,3.0574,3.0574,3.0699,3.0764,3.0764,3.094,3.1005,3.6711,3.7553,3.8214,3.8134,3.7364,3.6696,3.6892,3.6324,3.5659,3.528,3.4888,0.0,0.0,0.0,0.0,0.0,0.0,0.0,3.999,3.9841,3.9556,0.0,3.8832,0.0,3.8873,3.8877,3.9183,0.0,3.928,3.9007,3.9298,3.9718,3.9944,3.9944,4.0301,4.0511,4.0511,4.0447,4.0106,3.9491,3.9086,3.894,3.9037,3.9345,3.9928,4.0721,0.0,4.1807,4.2181,4.2489,4.2492,4.2317,4.2317,4.2109,4.1818,4.1818,4.1736,4.1605,4.1605,4.124,4.0765,4.0765,4.0178,3.9406,3.8899,3.7836,3.6627,3.5758,3.4887,3.4119,3.3768,3.3505,3.3308,3.3308,3.3041,3.2887,3.3238,3.3027,3.2788,3.2788,3.2525,3.23,3.23,3.2075,3.2005,3.2356,3.1893,3.171,3.2328,3.2261,3.227,3.2619,3.2707,3.2521,3.1928,3.1873,3.1629,3.1043,3.1005,3.1005,3.1005,3.1005,3.1005,3.1005,3.1005,3.1005,3.1005,3.1005,3.1005,3.1005,3.1005,3.0856,3.7982,3.8685,3.9231,3.922,3.8179,3.6948,3.6315,3.5524,3.4679,3.3813,0.0,3.3292,3.2742,3.4499,3.595,3.5727,0.0,3.9203,3.9484,3.9222,3.9032,3.9046,3.8746,3.8829,3.9556,3.962,3.9912,4.0592,4.0106,3.9993,4.0479,4.0592,4.0675,4.0772,4.0772,4.0772,4.0772,4.1321,4.0948,3.962,3.9539,3.9118,3.8424,3.907,3.941,3.9572,4.0802,4.1434,4.1661,4.2229,4.2522,4.2602,4.2602,4.2413,4.2158,4.2158,4.198,4.1736,4.1736,4.1506,4.1206,4.1138,4.0833,4.0316,3.9238,3.846,3.7685,3.6537,3.531,3.4301,3.4217,3.374,3.3308,3.3308,3.3308,3.3308,3.3308,3.3308,3.3308,3.3308,3.3308,3.3308,3.3308,3.2873,3.2525,3.2525,3.2005,3.1808,3.2328,3.2045,3.1834,3.1916,3.2031,3.1964,3.1629,3.1593,3.144,3.1024,3.1005,3.1005,3.1005,3.1005,3.1005,3.1005,3.1005,3.1005,3.1005,3.1005,3.1005,3.1005,3.0927,3.0607,3.8816,3.917,3.9203,3.8489,3.7786,3.7054,3.6229,3.5053,0.0,0.0,0.0,3.125,3.1792,3.3303,3.4747,3.5574,0.0,0.0,0.0,0.0,3.9103,0.0,0.0,0.0,0.0,0.0,0.0,0.0,4.1304,4.1013,4.0544,4.1078,4.1661,4.2214,4.2246,4.2246,4.2246,4.1823,4.1174,4.0317,3.9766,3.9118,3.8391,3.8521,3.8924,3.9507,3.9765,0.0,4.1612,4.1726,4.2099,4.2602,4.2602,4.2571,4.2508,4.2508,4.2492,4.2445,4.2445,4.2206,4.1834,4.1273,4.0833,4.0385,3.9753,3.9109,3.8392,3.7187,3.5973,3.4903,3.4329,3.374,3.3308,3.3308,3.3308,3.3308,3.3308,3.3308,3.3308,3.3308,3.3308,3.3308,3.3308,3.321,3.314,3.314,3.262,3.2286,3.2398,3.2045,3.1985,3.2496,3.229,3.1964,3.1629,3.1593,3.144,3.1024,3.1005,3.1005,3.1005,3.1005,3.1005,3.1005,3.1005,3.1005,3.1005,3.1005,3.1005,3.0992,3.0484,3.0192,3.8465,3.9183,3.9676,3.8867,3.816,3.724,3.5671,0.0,0.0,0.0,0.0,2.9776,2.9821,0.0,0.0,0.0,0.0,0.0,0.0,0.0,0.0,0.0,0.0,0.0,0.0,0.0,0.0,0.0,4.2132,4.197,4.1598,4.1938,4.2262,4.2586,4.2958,4.2991,4.2602,4.2278,4.1581,4.0495,3.9815,3.9118,3.8391,3.8391,3.8586,3.8956,3.9329,3.988,4.056,4.1304,4.1791,4.2116,4.2472,4.2602,4.2554,4.2197,4.2294,4.2554,4.2213,4.2091,4.2029,4.1522,4.0902,4.0213,3.9469,3.88,3.8148,3.7244,3.6358,3.5527,3.4889,3.4253,3.3683,3.3378,3.3308,3.3308,3.3308,3.3308,3.3308,3.3308,3.3308,3.3308,3.3308,3.3308,3.3308,3.3308,3.3055,3.2873,3.2873,3.2342,3.1943,3.1916,3.168,3.1463,3.131,3.1291,3.1216,3.1005,3.1005,3.1005,3.1005,3.1005,3.1005,3.1005,3.1005,3.1005,3.1005,3.0686,3.0524,3.0511,2.9954,2.9523,3.8082,3.9061,3.9843,3.912,3.8481,3.7365,3.4802,3.3223,0.0,0.0,2.909,2.8517,2.8143,0.0,3.2148,0.0,0.0,0.0,0.0,0.0,0.0,0.0,0.0,0.0,0.0,0.0,0.0,0.0,4.2602,4.2602,4.2602,4.2602,4.2602,4.2602,4.3168,4.312,4.2392,4.2392,4.1695,4.0285,3.975,3.9118,3.8391,3.8391,3.8391,3.8424,3.9021,3.9345,3.9588,4.069,4.1239,4.1418,4.1938,4.2165,4.21,4.1564,4.1695,4.2068,4.1548,4.1591,4.1837,4.1482,4.0847,4.0008,3.9078,3.8375,3.7772,3.7173,3.6562,3.5963,3.5358,3.4702,3.4048,3.3448,3.3308,3.3308,3.3308,3.3308,3.3308,3.3308,3.3308,3.3308,3.3308,3.3308,3.3308,3.3308,3.3308,3.3308,3.3308,3.2592,3.1915,3.1441,3.1161,3.1005,3.1005,3.1005,3.1005,3.1005,3.1005,3.1005,3.1005,3.0869,3.0803,3.0803,3.0686,3.0639,3.0639,3.0275,3.01,3.0087,2.968,2.9227,3.8543,3.9,3.8952,3.828,3.8143,3.7212,3.354,0.0,0.0,2.8511,2.7521,2.73,2.7904,2.8947,0.0,0.0,0.0,0.0,0.0,0.0,0.0,0.0,0.0,0.0,0.0,0.0,0.0,4.2602,4.2602,4.2602,4.2602,4.2602,4.2602,4.2602,4.2667,4.2375,4.1694,4.1693,4.0981,3.9588,3.9523,3.9118,3.8391,3.8391,3.8391,3.8391,3.8472,3.8877,0.0,3.9651,4.0042,4.0609,4.0658,4.0691,4.0675,4.0625,4.0642,4.0675,4.0625,4.0867,4.1134,4.0721,4.0424,4.0008,3.9078,3.8375,3.7772,3.7173,3.6562,3.5958,3.5349,3.4698,3.4048,3.3448,3.3308,3.3308,3.3308,3.3308,3.3308,3.3308,3.3308,3.3308,3.3308,3.3308,3.3308,3.3308,3.3308,3.3308,3.3308,3.2592,3.2078,3.201,3.14,3.1005,3.1005,3.1005,3.1005,3.1005,3.1005,3.1005,3.1005,3.0471,3.0179,3.0179,2.9693,2.9449,2.9462,2.9884,3.01,3.01,3.0048,2.9996,3.7922,3.8667,3.8831,3.8117,3.7978,3.7029,3.3239,0.0,3.0653,2.8281,2.7258,2.6885,2.7267,2.8049,2.9174,3.0837,3.2034,3.345,3.5439,0.0,0.0,0.0,0.0,0.0,0.0,0.0,0.0,4.2602,4.2602,4.2602,4.2602,4.2602,4.2602,4.2602,4.2197,4.1872,4.1596,4.0769,4.0042,3.9491,3.9054,3.8683,3.8391,3.8391,3.8391,3.8391,3.8391,3.857,0.0,3.9313,3.9653,3.9944,4.0349,4.0511,4.0448,4.0042,4.0022,4.0131,3.9729,3.9854,4.0151,3.982,3.9426,3.9023,3.885,3.8131,3.7308,3.7076,3.6829,3.6422,3.5438,3.4436,3.3603,3.3364,3.3308,3.3308,3.3308,3.3308,3.3308,3.3308,3.3308,3.3308,3.3308,3.3308,3.3308,3.3308,3.3308,3.3308,3.3308,3.2592,3.2092,3.2092,3.1426,3.1005,3.1005,3.1005,3.1005,3.1005,3.1005,3.1005,3.1005,3.0764,3.0647,3.0647,3.0424,3.0325,3.0325,3.0171,3.01,3.0087,2.9766,2.9627,3.6811,3.777,3.8234,3.7721,3.7445,3.6361,0.0,0.0,3.0257,2.796,2.7063,2.6733,2.6817,2.7521,2.8483,2.9628,3.0824,3.237,3.4545,0.0,0.0,0.0,0.0,0.0,0.0,0.0,4.2602,4.2602,4.2602,4.2602,4.2602,4.2602,4.2505,4.2311,4.1856,4.1401,4.098,4.0008,3.9394,3.9167,3.8651,3.8391,3.8391,3.8391,3.8391,3.8391,3.8391,3.8391,0.0,3.8973,3.9167,3.9215,3.9687,3.9881,3.9816,3.9345,3.9254,3.931,3.8844,3.8877,3.9062,3.8723,3.8275,3.7874,3.7937,3.7527,3.6998,3.6998,3.6745,3.6267,3.5414,3.4257,3.3308,3.3308,3.3308,3.3308,3.3308,3.3308,3.3308,3.3308,3.3308,3.3308,3.3308,3.3308,3.3308,3.3308,3.3308,3.3308,3.3308,3.2592,3.2092,3.2092,3.1426,3.1005,3.1005,3.1005,3.1005,3.1005,3.1005,3.1005,3.1005,3.083,3.0725,3.0725,3.0587,3.0495,3.0495,3.0223,3.01,3.0087,2.9902,2.9802,3.5211,3.6214,3.6835,3.6905,3.6367,3.5058,0.0,3.0797,2.9544,2.7199,2.6716,2.67,2.67,2.747,2.8386,2.9251,3.1698,3.3889,3.5024,3.6748,0.0,0.0,0.0,0.0,0.0,4.2197,4.2602,4.2602,4.2602,0.0,4.2602,4.2602,4.2294,4.1644,4.1596,4.0931,3.9538,3.9522,3.9135,3.8408,3.8391,3.8391,3.8391,3.8391,3.8391,3.8391,3.8391,3.8391,0.0,3.8408,3.8408,3.8408,3.8424,3.8424,3.8424,3.8408,3.8207,3.7916,3.79,3.7966,3.7935,3.7381,3.7036,3.6717,3.6186,3.6489,3.6998,3.6998,3.6145,3.5217,3.5189,3.4257,3.3308,3.3308,3.3308,3.3308,3.3308,3.3308,3.3308,3.3308,3.3308,3.3308,3.3308,3.3308,3.3308,3.3308,3.3308,3.3308,3.3308,3.2592,3.2092,3.2092,3.1426,3.1005,3.1005,3.1005,3.1005,3.1005,3.1005,3.1005,3.1005,3.0432,3.0113,3.0113,2.9588,2.9318,2.9318,2.9844,3.01,3.0113,3.0712,3.0979,3.3078,3.3897,3.4364,3.3876,3.3961,3.3391,3.0428,2.9954,2.9477,2.7173,2.67,2.67,2.67,2.7012,2.79,2.9775,3.0894,0.0,0.0,0.0,0.0,0.0,0.0,0.0,0.0,0.0,4.1371,4.1888,4.1921,4.1921,4.1921,4.1921,4.1823,4.1612,4.1111,4.0414,3.9507,3.9005,3.8634,3.8391,3.8391,3.8391,3.8391,3.8391,3.8391,3.8391,3.8391,3.8391,3.8391,3.8391,3.8391,3.8391,3.8391,3.8248,3.8089,3.8321,3.7934,3.73,3.7491,3.7305,3.6892,3.6403,3.6185,3.6025,3.5586,3.5887,3.6379,3.6379,3.5808,3.5091,3.4632,3.3912,3.3308,3.3308,3.3308,3.3308,3.3308,3.3308,3.3308,3.3308,3.3308,3.3308,3.3308,3.3308,3.3308,3.3308,3.3308,3.3308,3.3308,3.2842,3.2399,3.2128,3.1685,3.131,3.1024,3.1005,3.1005,3.1005,3.1005,3.1005,3.1005,3.0817,3.0725,3.0725,3.0561,3.0469,3.0469,3.062,3.0725,3.0725,3.0914,3.1005,0.0,3.2002,3.2459,3.1995,3.2019,3.1596,2.9474,2.9127,2.8746,2.7046,2.67,2.67,2.67,2.7029,2.7823,2.936,3.0517,0.0,0.0,0.0,0.0,0.0,0.0,0.0,0.0,4.0349,4.069,4.1143,4.1175,4.1175,4.1175,4.1175,4.1077,4.0818,4.0366,3.9799,3.9086,3.8634,3.8391,3.8391,3.8391,3.8391,3.8391,3.8391,3.8391,3.8391,3.8391,3.8391,0.0,3.8391,3.8391,3.8391,3.8391,3.8191,3.7929,3.8132,3.77,3.7014,3.718,3.6922,3.6397,3.5695,3.519,3.4857,3.4822,3.541,3.6061,3.5822,3.5484,3.5048,3.4375,3.374,3.3308,3.3308,3.3308,3.3308,3.3308,3.3308,3.3308,3.3308,3.3308,3.3308,3.3308,3.3308,3.3308,3.3308,3.3308,3.3308,3.3308,3.2949,3.2561,3.2146,3.1813,3.1426,3.1024,3.1005,3.1005,3.1005,3.1005,3.1005,3.1005,3.1005,3.1005,3.1005,3.1005,3.1005,3.1005,3.1005,3.1005,3.1005,3.1005,3.1005,0.0,0.0,0.0,0.0,3.0395,2.9736,2.901,2.8298,0.0,2.6843,2.67,2.6733,2.6835,2.7487,2.8119,2.8535,3.0721,0.0,0.0,0.0,0.0,0.0,0.0,0.0,3.941,3.9993,4.0382,4.0415,4.043,4.043,4.043,4.043,4.0123,3.9442,3.941,3.9086,3.8408,3.8391,3.8391,3.8391,3.8391,3.8391,3.8391,3.8391,3.8391,0.0,3.8391,3.8391,3.8391,3.8391,3.8391,3.8391,3.8391,3.8191,3.79,3.7929,3.7552,3.7,3.7014,3.6801,3.632,3.5252,3.4167,3.3406,3.3964,3.4979,3.5864,3.5287,3.5119,3.4992,3.4319,3.3712,3.3308,3.3308,3.3308,3.3308,3.3308,3.3308,3.3308,3.3308,3.3308,3.3308,3.3308,3.3308,3.3308,3.3308,3.3308,3.3308,3.3308,3.2966,3.2579,3.2146,3.1831,3.1463,3.1043,3.1005,3.1005,3.1005,3.1005,3.1005,3.1005,3.1005,3.1005,3.1005,3.1005,3.1005,3.1005,3.1005,3.1005,3.1005,3.1005,3.1005,2.7401,0.0,2.8458,2.7892,2.8052,2.8154,0.0,2.7528,2.7587,0.0,0.0,0.0,0.0,2.8113,2.8685,3.1254,3.2866,3.4268,0.0,0.0,0.0,0.0,0.0,3.8665,3.8665,3.8796,3.912,3.9685,3.9734,3.9734,3.9734,3.9734,3.941,3.8683,3.8665,3.857,3.8391,3.8391,3.8391,3.8391,3.8391,3.8391,3.8391,3.8391,3.8391,3.8391,3.8391,3.8391,3.8391,3.8391,3.8391,3.8391,3.8391,3.8191,3.7929,3.8191,3.7744,3.703,3.7224,3.6937,3.632,3.5252,3.4167,3.3336,3.3477,3.4052,3.4614,3.4474,3.4431,3.4291,3.3673,3.342,3.3308,3.3308,3.3308,3.3308,3.3308,3.3308,3.3308,3.3308,3.3308,3.3308,3.3308,3.3308,3.3308,3.3308,3.3308,3.3308,3.3308,3.3224,3.2892,3.2182,3.2019,3.1721,3.1061,3.1005,3.1005,3.1005,3.1005,3.1005,3.1005,3.1005,3.1005,3.1005,3.1005,3.1005,3.1005,3.1005,3.1005,3.1005,3.1005,3.1005,2.664,2.7206,2.7705,2.7291,2.7503,2.7705,2.7291,0.0,0.0,0.0,0.0,0.0,0.0,0.0,0.0,0.0,3.328,0.0,0.0,0.0,0.0,0.0,0.0,3.86,0.0,3.8391,3.857,3.8973,3.9005,3.9005,3.9005,3.9005,3.8811,3.8408,3.8391,3.8391,3.8391,3.8391,3.8391,3.8391,3.8391,3.8391,3.8391,3.8391,3.8391,3.8391,3.8391,3.8391,3.8391,3.8391,3.8391,3.8391,3.8391,3.8191,3.7929,3.8103,3.767,3.7014,3.718,3.6569,3.5639,3.4793,3.3962,3.3308,3.3308,3.3533,3.3782,3.3782,3.3992,3.4062,3.3462,3.3308,3.3308,3.3308,3.3308,3.3308,3.3308,3.3308,3.3308,3.3308,3.3308,3.3308,3.3308,3.3308,3.3308,3.3308,3.3308,3.3308,3.3308,3.3308,3.298,3.2182,3.2092,3.1813,3.1061,3.1005,3.1005,3.1005,3.1005,3.1005,3.1005,3.1005,3.1005,3.1005,3.1005,3.1005,3.1005,3.1005,3.1005,3.1005,3.1005,3.1005,2.6741,2.7366,2.7925,2.7689,2.7722,2.7773,0.0,0.0,0.0,0.0,0.0,0.0,0.0,0.0,0.0,0.0,0.0,0.0,0.0,0.0,0.0,0.0,3.8794,0.0,3.8434,3.8391,3.8391,3.8391,3.8391,3.8391,3.8391,3.8391,3.8391,3.8391,3.8391,3.8391,3.8391,3.8391,3.8391,3.8391,3.8391,3.8391,3.8391,3.8391,3.8391,3.8391,0.0,0.0,3.8391,3.8391,3.8391,3.8391,3.8391,3.8219,3.7988,3.7988,3.761,3.7121,3.703,3.607,3.4826,3.4358,3.3791,3.3308,3.3308,3.3308,3.3308,3.3308,3.3655,3.3936,3.3434,3.3308,3.3308,3.3308,3.3308,3.3308,3.3308,3.3308,3.3308,3.3308,3.3308,3.3308,3.3308,3.3308,3.3308,3.3308,3.3308,3.3308,3.3308,3.3241,3.2927,3.2182,3.2055,3.1758,3.1061,3.1005,3.1005,3.1005,3.1005,3.1005,3.1005,3.1005,3.1005,3.1005,3.1005,3.1005,3.1005,3.1005,3.1005,3.1005,3.1005,3.1005,2.7425,2.8196,2.8493,2.7182,2.7342,2.7638,0.0,0.0,0.0,0.0,0.0,0.0,0.0,0.0,0.0,0.0,0.0,0.0,0.0,0.0,0.0,3.8955,0.0,3.8832,3.8434,3.8391,3.8391,3.8391,3.8391,3.8391,3.8391,3.8391,3.8391,3.8391,3.8391,3.8391,3.8391,3.8391,3.8391,3.8391,3.8391,3.8391,3.8391,3.8391,3.8391,3.8391,0.0,3.8391,3.8391,3.8391,3.8391,3.8391,3.8391,3.8363,3.8321,3.8321,3.8091,3.7698,3.718,3.607,3.489,3.4793,3.4099,3.3308,3.3308,3.3308,3.3308,3.3308,3.3378,3.342,3.3322,3.3308,3.3308,3.3308,3.3308,3.3308,3.3308,3.3308,3.3308,3.3308,3.3308,3.3308,3.3308,3.3308,3.3308,3.3308,3.3308,3.3308,3.3308,3.2998,3.2614,3.2146,3.185,3.1482,3.1043,3.1005,3.1005,3.1005,3.1005,3.1005,3.1005,3.1005,3.1005,3.1005,3.1005,3.1005,3.1005,3.1005,3.1005,3.1005,3.1005,3.1005,2.659,2.7451,2.8143,2.7469,2.8475,2.955,0.0,0.0,0.0,0.0,0.0,0.0,0.0,0.0,0.0,0.0,0.0,0.0,0.0,3.9666,3.9825,0.0,0.0,3.9182,3.8766,3.8532,3.8391,3.8391,3.8391,3.8391,3.8391,3.8391,3.8391,3.8391,3.8391,3.8391,3.8391,3.8391,3.8391,3.8391,3.8391,3.8391,3.8391,3.8391,3.8391,3.8391,0.0,3.8391,3.8391,3.8391,3.8391,3.8391,3.8391,3.8391,3.8365,3.8004,3.7755,3.749,3.6616,3.5672,3.4843,3.456,3.3928,3.3308,3.3308,3.3308,3.3308,3.3308,3.3308,3.3308,3.3308,3.3308,3.3308,3.3308,3.3308,3.3308,3.3308,3.3308,3.3308,3.3308,3.3308,3.3308,3.3308,3.3308,3.3308,3.3308,3.3308,3.3308,3.3308,3.3139,3.2789,3.2164,3.1964,3.1629,3.1061,3.1005,3.1005,3.1005,3.1005,3.1005,3.1005,3.1005,3.1005,3.1005,3.1005,3.1005,3.1005,3.1005,3.1005,3.1005,3.1005,3.1005,2.6092,2.6649,2.7349,2.7933,0.0,0.0,3.0852,0.0,0.0,0.0,0.0,0.0,0.0,0.0,0.0,0.0,0.0,3.9468,3.9328,3.9956,4.0258,3.9821,3.9675,3.9441,3.9037,3.8644,3.8391,3.8391,3.8391,3.8391,3.8391,3.8391,3.8391,3.8391,3.8391,3.8391,3.8391,3.8391,3.8391,3.8391,3.8391,3.8391,3.8391,3.8391,3.8391,3.8391,3.8391,3.8391,3.8391,3.8391,3.8391,3.8391,3.8391,3.8349,3.8219,3.7697,3.7342,3.6982,3.6117,3.5333,3.4643,3.4223,3.3753,3.3308,3.3308,3.3308,3.3308,3.3308,3.3308,3.3308,3.3308,3.3308,3.3308,3.3308,3.3308,3.3308,3.3308,3.3308,3.3308,3.3308,3.3308,3.3308,3.3308,3.3308,3.3308,3.3308,3.3308,3.3308,3.3308,3.3224,3.2892,3.2182,3.2019,3.1721,3.1061,3.1005,3.1005,3.1005,3.1005,3.1005,3.1005,3.1005,3.1005,3.1005,3.1005,3.1005,3.1005,3.1005,3.1005,3.1005,3.1005,3.093,2.7045,2.6725,2.6252,2.8375,0.0,0.0,2.9845,0.0,0.0,0.0,0.0,0.0,0.0,0.0,0.0,0.0,0.0,4.0652,4.0263,0.0,4.0704,4.03,3.9859,3.9441,3.9037,3.8644,3.8391,3.8391,3.8391,3.8391,3.8391,3.8391,3.8391,3.8391,3.8391,3.8391,3.8391,3.8391,3.8391,3.8391,3.8391,3.8391,3.8391,3.8391,3.8391,3.8391,3.8391,3.8391,3.8391,3.8391,3.8391,3.8391,3.8391,3.8205,3.7929,3.7886,3.7193,3.6274,3.618,3.5286,3.4138,3.4104,3.3753,3.3308,3.3308,3.3308,3.3308,3.3308,3.3308,3.3308,3.3308,3.3308,3.3308,3.3308,3.3308,3.3308,3.3308,3.3308,3.3308,3.3308,3.3308,3.3308,3.3308,3.3308,3.3308,3.3308,3.3308,3.3308,3.3308,3.2966,3.2579,3.2146,3.1831,3.1463,3.1043,3.1005,3.1005,3.1005,3.1005,3.1005,3.1005,3.1005,3.1005,3.1005,3.1005,3.1005,3.1005,3.1005,3.1005,3.1005,3.1005,3.0672,2.5349,2.5676,2.6023,2.7816,0.0,0.0,0.0,0.0,0.0,0.0,0.0,0.0,0.0,0.0,0.0,0.0,4.0631,4.0769,4.0367,4.066,4.0835,4.068,4.0037,3.9545,3.9391,3.8777,3.8391,3.8391,3.8391,3.8391,3.8391,3.8391,3.8391,3.8391,3.8391,3.8391,3.8391,3.8391,3.8391,3.8391,3.8391,3.8391,3.8391,3.8391,3.8391,3.8391,3.8391,3.8391,3.8391,3.8391,3.8391,3.8377,3.8177,3.7871,3.7565,3.7404,3.7075,3.6631,3.6085,3.5317,3.4543,3.4206,3.3753,3.3308,3.3308,3.3308,3.3308,3.3308,3.3308,3.3308,3.3308,3.3308,3.3308,3.3308,3.3308,3.3308,3.3308,3.3308,3.3308,3.3308,3.3308,3.3308,3.3308,3.3308,3.3308,3.3308,3.3308,3.3308,3.3308,3.3171,3.2927,3.2525,3.1946,3.1426,3.1024,3.1005,3.1005,3.1005,3.1005,3.1005,3.1005,3.1005,3.1005,3.1005,3.1005,3.1005,3.1005,3.1005,3.1005,3.0986,3.0564,3.0241,2.4537,2.5058,2.5659,0.0,0.0,0.0,0.0,0.0,0.0,0.0,0.0,0.0,0.0,0.0,0.0,0.0,4.0716,4.0787,4.0522,4.0733,4.0912,4.0912,4.0137,3.961,3.961,3.8871,3.8391,3.8391,3.8391,3.8391,3.8391,3.8391,3.8391,3.8391,3.8391,3.8391,3.8391,3.8391,3.8391,3.8391,3.8391,3.8391,3.8391,3.8391,3.8391,3.8391,3.8391,3.8391,3.8391,3.8391,3.8391,3.8363,3.8032,3.7697,3.7372,3.709,3.6724,3.6242,3.5655,3.499,3.4322,3.3979,3.3612,3.3308,3.3308,3.3308,3.3308,3.3308,3.3308,3.3308,3.3308,3.3308,3.3308,3.3308,3.3308,3.3308,3.3308,3.3308,3.3308,3.3308,3.3308,3.3308,3.3308,3.3308,3.3308,3.3308,3.3308,3.3308,3.3308,3.3308,3.3153,3.2739,3.2037,3.1482,3.1216,3.108,3.1005,3.1005,3.1005,3.1005,3.1005,3.1005,3.1005,3.1005,3.1005,3.1005,3.1005,3.1005,3.1005,3.0986,3.0527,3.0094,2.5179,2.5058,0.0,0.0,0.0,0.0,0.0,0.0,0.0,0.0,0.0,0.0,0.0,0.0,0.0,4.0762,4.0912,4.0912,4.0912,4.0912,4.0912,4.0912,4.0137,3.961,3.961,3.8871,3.8391,3.8391,3.8391,3.8391,3.8391,3.8391,3.8391,3.8391,3.8391,3.8391,3.8391,3.8391,3.8391,3.8391,3.8391,3.8391,3.8391,3.8391,3.8391,3.8391,3.8391,3.8391,3.8391,3.8391,3.8391,3.8363,3.8032,3.7697,3.7358,3.709,3.6101,3.4909,3.4892,3.4201,3.3312,3.3308,3.3308,3.3308,3.3308,3.3308,3.3308,3.3308,3.3308,3.3308,3.3308,3.3308,3.3308,3.3308,3.3308,3.3308,3.3308,3.3308,3.3308,3.3308,3.3308,3.3308,3.3308,3.3308,3.3308,3.3308,3.3308,3.3308,3.3308,3.3308,3.3139,3.2739,3.2037,3.1593,3.1593,3.1235,3.1005,3.1005,3.1005,3.1005,3.1005,3.1005,3.1005,3.1005,3.1005,3.1005,3.1005,3.1005,3.1005,3.1005,3.0986,3.0305,2.4409,2.4677,0.0,0.0,0.0,0.0,0.0,0.0,0.0,0.0,0.0,0.0,0.0,0.0,0.0,4.086,4.0912,4.0912,4.0912,4.0912,4.0912,4.0912,4.0137,3.961,3.961,3.8871,3.8391,3.8391,3.8391,3.8391,3.8391,3.8391,3.8391,3.8391,3.8391,3.8391,3.8391,3.8391,3.8391,3.8391,3.8391,3.8391,3.8391,3.8391,3.8391,3.8391,3.8391,3.8391,3.8391,3.8391,3.8248,3.8017,3.7682,3.7373,3.7075,3.6754,3.6383,3.5926,3.517,3.4691,3.4288,3.3556,3.3308,3.3308,3.3308,3.3308,3.3308,3.3308,3.3308,3.3308,3.3308,3.3308,3.3308,3.3308,3.3308,3.3308,3.3308,3.3308,3.3308,3.3308,3.3308,3.3308,3.3308,3.3308,3.3308,3.3308,3.3308,3.3308,3.3308,3.3308,3.3047,3.2345,3.2073,3.174,3.1216,3.108,3.1005,3.1005,3.1005,3.1005,3.1005,3.1005,3.1005,3.1005,3.1005,3.1005,3.1005,3.1005,3.1005,3.0986,3.052,2.9883,2.4966,0.0,0.0,0.0,0.0,0.0,0.0,0.0,0.0,0.0,0.0,0.0,0.0,0.0,0.0,4.0912,4.0912,4.0912,4.0912,4.0912,4.0912,4.0912,4.0291,3.9808,3.9623,3.902,3.8558,3.8406,3.8391,3.8391,3.8391,3.8391,3.8391,3.8391,3.8391,3.8391,3.8391,3.8391,3.8391,3.8391,3.8391,3.8391,3.8391,3.8391,3.8391,3.8391,3.8391,3.8391,3.8391,3.8391,3.8276,3.8046,3.7579,3.7299,3.712,3.6662,3.6242,3.5768,3.5121,3.4624,3.4167,3.3521,3.3308,3.3308,3.3308,3.3308,3.3308,3.3308,3.3308,3.3308,3.3308,3.3308,3.3308,3.3308,3.3308,3.3308,3.3308,3.3308,3.3308,3.3308,3.3308,3.3308,3.3308,3.3308,3.3308,3.3308,3.3308,3.3308,3.3308,3.3308,3.3051,3.2399,3.22,3.1855,3.1291,3.1099,3.1005,3.1005,3.1005,3.1005,3.1005,3.1005,3.1005,3.1005,3.1005,3.1005,3.1005,3.0729,3.0615,3.0596,2.9941,2.9328,0.0,0.0,0.0,0.0,0.0,0.0,0.0,0.0,0.0,0.0,0.0,0.0,0.0,4.0912,4.0912,4.0912,4.0912,4.0912,4.0912,4.0912,4.0912,4.0912,4.0534,4.0121,3.9649,3.9249,3.8835,3.842,3.8391,3.8391,3.8391,3.8391,3.8391,3.8391,3.8391,3.8391,3.8391,3.8391,3.8391,3.8391,3.8391,3.8391,3.8391,3.8391,3.8377,3.8349,3.8349,3.8335,3.8307,3.8307,3.8307,3.825,3.761,3.7358,3.7283,3.6708,3.5847,3.4973,3.4909,3.4235,3.3364,3.3326,3.3308,3.3308,3.3308,3.3308,3.3308,3.3308,3.3308,3.3308,3.3308,3.3308,3.3308,3.3308,3.3308,3.3308,3.3308,3.3308,3.3308,3.3308,3.3308,3.3308,3.3308,3.3308,3.3308,3.3308,3.3308,3.3308,3.3308,3.3308,3.3122,3.2686,3.2327,3.1946,3.1574,3.1216,3.1005,3.1005,3.1005,3.1005,3.1005,3.1005,3.1005,3.1005,3.1005,3.1005,3.1005,3.0336,2.9999,2.9999,2.9374,2.8779,0.0,0.0,0.0,0.0,0.0,0.0,0.0,0.0,0.0,0.0,0.0,0.0,4.0912,4.0912,4.0912,4.0912,4.0912,4.0912,4.0912,4.0912,4.0912,4.0912,4.0534,4.0121,3.9649,3.9249,3.8835,3.842,3.8391,3.8391,3.8391,3.8391,3.8391,3.8391,3.8391,3.8391,3.8391,3.8391,3.8391,3.8391,3.8391,3.8391,3.8391,3.8391,3.8248,3.8017,3.8017,3.7857,3.7609,3.7609,3.7609,3.7581,3.721,3.709,3.7029,3.6647,3.6085,3.5463,3.5055,3.4459,3.3859,3.3434,3.3308,3.3308,3.3308,3.3308,3.3308,3.3308,3.3308,3.3308,3.3308,3.3308,3.3308,3.3308,3.3308,3.3308,3.3308,3.3308,3.3308,3.3308,3.3308,3.3308,3.3308,3.3308,3.3308,3.3308,3.3308,3.3308,3.3308,3.3308,3.3016,3.2309,3.2146,3.185,3.1179,3.1061,3.1005,3.1005,3.1005,3.1005,3.1005,3.1005,3.1005,3.1005,3.1005,3.1005,3.1005,3.0336,2.9999,2.9999,2.9374,2.8779,0.0,0.0,0.0,0.0,0.0,0.0,0.0,0.0,0.0,0.0,0.0,0.0,4.0912,4.0912,4.0912,4.0912,4.0912,4.0912,4.0912,4.0912,4.0912,4.0912,4.0704,4.0424,3.9978,3.9536,3.9128,3.8725,3.8504,3.8391,3.8391,3.8391,3.8391,3.8391,3.8391,3.8391,3.8391,3.8391,3.8391,3.8391,3.8234,3.8091,3.7931,3.825,3.829,3.8132,3.7958,3.7799,3.7638,3.7476,3.7402,3.7372,3.709,3.7,3.6923,3.6336,3.5784,3.5236,3.4693,3.417,3.3667,3.3382,3.3308,3.3308,3.3308,3.3308,3.3308,3.3308,3.3308,3.3308,3.3308,3.3308,3.3308,3.3308,3.3308,3.3308,3.3308,3.3308,3.3308,3.3308,3.3308,3.3308,3.3308,3.3308,3.3308,3.3308,3.3308,3.3308,3.3308,3.3308,3.298,3.2182,3.2092,3.1813,3.1061,3.1005,3.1005,3.1005,3.1005,3.1005,3.1005,3.1005,3.1005,3.1005,3.1005,3.0842,3.0527,2.9883,2.9406,2.9126,2.8494,2.8027,0.0,0.0,0.0,0.0,0.0,0.0,0.0,0.0,0.0,0.0,0.0,4.0727,4.0865,4.0912,4.0912,4.0912,4.0912,4.0912,4.0912,4.0912,4.0912,4.0912,4.0852,4.0631,4.0226,3.9756,3.9339,3.8928,3.8588,3.8391,3.8391,3.8391,3.8391,3.8391,3.8391,3.8391,3.8391,3.8391,3.8391,3.8391,3.806,3.7739,3.7506,3.8004,3.8207,3.815,3.79,3.7755,3.7638,3.7358,3.7238,3.7223,3.6999,3.6908,3.6831,3.6101,3.5431,3.4826,3.4392,3.3825,3.3308,3.3308,3.3308,3.3308,3.3308,3.3308,3.3308,3.3308,3.3308,3.3308,3.3308,3.3308,3.3308,3.3308,3.3308,3.3308,3.3308,3.3308,3.3308,3.3308,3.3308,3.3308,3.3308,3.3308,3.3308,3.3308,3.3308,3.3308,3.3308,3.3308,3.303,3.2273,3.2146,3.1831,3.1161,3.1043,3.1005,3.1005,3.1005,3.1005,3.1005,3.1005,3.1005,3.1005,3.0892,3.0489,2.9832,2.925,2.8692,2.8167,2.7505,2.721,0.0,0.0,0.0,0.0,0.0,0.0,0.0,0.0,0.0,0.0,3.8899,4.0072,4.0762,4.0912,4.0912,4.0912,4.0912,4.0912,4.0912,4.0912,4.0912,4.0912,4.0583,4.0196,3.9727,3.9312,3.8914,3.8504,3.842,3.8391,3.8391,3.8391,3.8391,3.8391,3.8391,3.8391,3.8391,3.8391,3.8391,3.8391,3.806,3.7886,3.7828,3.7623,3.7419,3.7196,3.7388,3.7179,3.6677,3.6631,3.6631,3.6631,3.6585,3.6569,3.6554,3.6445,3.5768,3.4892,3.481,3.4133,3.3308,3.3308,3.3308,3.3308,3.3308,3.3308,3.3308,3.3308,3.3308,3.3308,3.3308,3.3308,3.3308,3.3308,3.3308,3.3308,3.3308,3.3308,3.3308,3.3308,3.3308,3.3308,3.3308,3.3308,3.3308,3.3308,3.3308,3.3308,3.3308,3.3308,3.3136,3.2668,3.2309,3.1928,3.1556,3.1198,3.1005,3.1005,3.1005,3.1005,3.1005,3.1005,3.1005,3.1005,3.0432,2.9832,2.9218,2.8613,2.8267,2.8167,2.7505,2.721,0.0,0.0,0.0,0.0,0.0,0.0,0.0,0.0,0.0,3.7409,3.8019,3.883,4.002,4.0589,4.0912,4.0912,4.0912,4.0912,4.0912,4.0912,4.0912,4.0912,4.0534,4.0213,4.0003,3.9382,3.8928,3.8752,3.8532,3.8391,3.8391,3.8391,3.8391,3.8391,3.8391,3.8391,3.8391,3.8391,3.8307,3.8118,3.7958,3.7727,3.7404,3.7403,3.7344,3.7225,3.718,3.7029,3.677,3.6569,3.6507,3.6507,3.6507,3.6507,3.646,3.6148,3.556,3.4859,3.456,3.3945,3.3308,3.3308,3.3308,3.3308,3.3308,3.3308,3.3308,3.3308,3.3308,3.3308,3.3308,3.3308,3.3308,3.3308,3.3308,3.3308,3.3308,3.3308,3.3308,3.3308,3.3308,3.3308,3.3308,3.3308,3.3308,3.3308,3.3308,3.3308,3.3308,3.3308,3.3153,3.2739,3.2345,3.1964,3.1629,3.1235,3.1005,3.1005,3.1005,3.1005,3.1005,3.0634,3.0266,2.9941,2.9979,2.9697,2.9101,2.8494,2.8018,2.7615,2.7353,2.721,0.0,0.0,0.0,0.0,0.0,0.0,0.0,0.0,0.0,0.0,3.7364,3.784,3.8933,3.9934,4.0589,4.0589,4.0774,4.0912,4.0912,4.0912,4.0847,4.0769,4.0387,4.007,3.9986,3.9292,3.8862,3.8862,3.8574,3.8391,3.8391,3.8391,3.8391,3.8391,3.8391,3.8391,3.8391,3.8391,3.8234,3.79,3.7813,3.7492,3.6999,3.7134,3.7163,3.7163,3.7044,3.6938,3.6847,3.66,3.6507,3.6507,3.6507,3.6507,3.646,3.6053,3.5479,3.4843,3.4442,3.3859,3.3308,3.3308,3.3308,3.3308,3.3308,3.3308,3.3308,3.3308,3.3308,3.3308,3.3308,3.3308,3.3308,3.3308,3.3308,3.3308,3.3308,3.3308,3.3308,3.3308,3.3308,3.3308,3.3308,3.3308,3.3308,3.3308,3.3308,3.3308,3.3308,3.3308,3.3153,3.2739,3.2345,3.1964,3.1629,3.1235,3.1005,3.1005,3.1005,3.1005,3.1005,3.0527,3.0037,2.96,2.9864,2.9632,2.8878,2.8247,2.7788,2.7444,2.7292,2.721,0.0,0.0,0.0,0.0,0.0,0.0,0.0,0.0,0.0,3.6215,3.6967,3.753,3.7599,3.8795,3.975,3.975,4.04,4.0912,4.0912,4.0912,4.0769,4.0379,3.9927,3.9497,3.9088,3.8683,3.842,3.842,3.8406,3.8391,3.8391,3.8391,3.8391,3.8391,3.8391,3.8391,3.8391,3.8391,3.8234,3.79,3.7579,3.7269,3.7,3.6677,3.6554,3.6569,3.6877,3.6816,3.6523,3.6507,3.6507,3.6507,3.6507,3.6507,3.6507,3.6476,3.58,3.4892,3.4874,3.4167,3.3308,3.3308,3.3308,3.3308,3.3308,3.3308,3.3308,3.3308,3.3308,3.3308,3.3308,3.3308,3.3308,3.3308,3.3308,3.3308,3.3308,3.3308,3.3308,3.3308,3.3308,3.3308,3.3308,3.3308,3.3308,3.3308,3.3308,3.3308,3.3308,3.3308,3.3153,3.2739,3.2345,3.1964,3.1629,3.1235,3.1005,3.1005,3.1005,3.1005,3.1005,3.0968,3.0917,3.0911,3.0317,2.9419,2.8259,2.7586,2.7566,2.8139,2.7505,2.721,0.0,0.0,0.0,0.0,0.0,0.0,0.0,3.449,3.5276,3.5542,3.6208,3.6725,3.6725,3.7967,3.9158,3.9612,3.9951,4.0313,4.0825,4.0912,4.0852,4.0692,4.0308,3.9876,3.9431,3.902,3.8669,3.8406,3.8391,3.8391,3.8391,3.8391,3.8391,3.8391,3.8391,3.8391,3.8391,3.8391,3.8335,3.8219,3.7871,3.755,3.7255,3.6953,3.6708,3.6507,3.6631,3.66,3.6507,3.6507,3.6507,3.6507,3.6507,3.6507,3.646,3.6116,3.5527,3.4843,3.4509,3.3911,3.3308,3.3308,3.3308,3.3308,3.3308,3.3308,3.3308,3.3308,3.3308,3.3308,3.3308,3.3308,3.3308,3.3308,3.3308,3.3308,3.3308,3.3308,3.3308,3.3308,3.3308,3.3308,3.3308,3.3308,3.3308,3.3308,3.3308,3.3308,3.3308,3.3308,3.3153,3.2739,3.2345,3.1964,3.1629,3.1235,3.1005,3.1005,3.1005,3.1005,3.1005,3.0596,3.0355,3.0355,2.936,2.8831,2.8779,2.8147,2.7736,2.7545,2.7301,2.721,0.0,0.0,0.0,0.0,0.0,0.0,0.0,0.0,3.4276,3.5042,3.5587,3.6008,3.6249,3.7129,3.8088,3.8847,3.9175,3.9606,4.0382,4.0503,4.0495,4.0483,4.0234,3.9837,3.9259,3.8969,3.8683,3.8406,3.8391,3.8391,3.8391,3.8391,3.8391,3.8391,3.8391,3.8391,3.8391,3.8391,3.8335,3.8219,3.7886,3.7565,3.727,3.6953,3.6708,3.6507,3.6507,3.6507,3.6507,3.6507,3.6507,3.6507,3.6507,3.6507,3.646,3.6101,3.5639,3.509,3.4543,3.4031,3.3542,3.3347,3.3308,3.3308,3.3308,3.3308,3.3308,3.3308,3.3308,3.3308,3.3308,3.3308,3.3308,3.3308,3.3308,3.3308,3.3308,3.3308,3.3308,3.3308,3.3308,3.3308,3.3308,3.3308,3.3308,3.3308,3.3308,3.3308,3.3308,3.3308,3.3153,3.2739,3.2471,3.211,3.1648,3.1365,3.1142,3.1005,3.1005,3.1005,3.1005,3.0355,2.9999,2.9999,2.9008,2.8613,2.8799,2.8167,2.7736,2.7525,2.7313,2.721,0.0,0.0,0.0,0.0,0.0,0.0,0.0,0.0,3.2378,3.4638,3.5138,3.5387,3.6128,3.6284,3.6559,3.7329,3.8088,3.8807,3.9549,3.9641,3.9617,3.9584,3.9577,3.9266,3.8488,3.8406,3.8406,3.8391,3.8391,3.8391,3.8375,3.8375,3.8375,3.8375,3.8391,3.8377,3.8391,3.8377,3.8219,3.7915,3.7579,3.7269,3.6999,3.6677,3.6507,3.6507,3.6507,3.6507,3.6507,3.6507,3.6507,3.6507,3.6507,3.6507,3.6507,3.6476,3.6147,3.5607,3.5072,3.4526,3.3982,3.3469,3.3308,3.3308,3.3308,3.3308,3.3308,3.3308,3.3308,3.3308,3.3308,3.3308,3.3308,3.3308,3.3308,3.3308,3.3308,3.3308,3.3308,3.3308,3.3308,3.3308,3.3308,3.3308,3.3308,3.3308,3.3308,3.3308,3.3308,3.3308,3.3153,3.2739,3.2704,3.2417,3.1685,3.1611,3.144,3.1043,3.0986,3.0968,3.0968,3.0336,2.9979,2.9979,2.9374,2.8779,2.8199,2.7545,2.7545,2.8159,2.7505,2.721,2.0776,0.0,0.0,0.0,0.0,0.0,0.0,0.0,3.0627,3.2369,3.3638,3.4638,3.538,3.5939,3.637,3.6594,3.7053,3.765,3.8424,3.8286,3.8287,3.882,3.8866,3.8865,3.8838,3.8835,3.8711,0.0,3.8391,3.8165,3.7633,3.76,3.76,3.76,3.7888,3.8146,3.8391,3.8162,3.8103,3.8248,3.7915,3.7594,3.7284,3.6984,3.6739,3.6507,3.6507,3.6507,3.6507,3.6507,3.6507,3.6507,3.6507,3.6507,3.646,3.6053,3.5576,3.5041,3.4509,3.3979,3.349,3.3347,3.3308,3.3308,3.3308,3.3308,3.3308,3.3308,3.3308,3.3308,3.3308,3.3308,3.3308,3.3308,3.3308,3.3308,3.3308,3.3308,3.3308,3.3308,3.3308,3.3308,3.3308,3.3308,3.3308,3.3308,3.3308,3.3308,3.3308,3.3308,3.3153,3.2739,3.2704,3.2507,3.2001,3.174,3.1556,3.1426,3.0716,3.0279,3.0279,2.9678,2.9348,2.9348,2.8771,2.8367,2.8199,2.8018,2.7777,2.7464,2.7292,2.721,0.0,0.0,0.0,0.0,0.0,0.0,2.7333,2.8178,2.911,0.0,3.2309,3.3362,3.4093,3.4869,3.5483,3.5783,3.5904,3.6332,3.7438,3.7399,3.742,3.784,3.7902,3.789,3.7861,3.7869,3.7791,3.7547,3.7533,3.7339,3.6904,3.6888,3.7018,3.7293,3.753,3.7812,3.8191,3.7987,3.7929,3.799,3.7784,3.752,3.724,3.7075,3.6816,3.6507,3.6507,3.6507,3.6507,3.6507,3.6507,3.6507,3.6507,3.6507,3.646,3.6148,3.5688,3.517,3.461,3.4068,3.3612,3.3364,3.3308,3.3308,3.3308,3.3308,3.3308,3.3308,3.3308,3.3308,3.3308,3.3308,3.3308,3.3308,3.3308,3.3308,3.3308,3.3308,3.3308,3.3308,3.3308,3.3308,3.3308,3.3308,3.3308,3.3308,3.3308,3.3308,3.3308,3.3308,3.3206,3.298,3.2793,3.2543,3.2128,3.1795,3.1519,3.1365,3.0495,2.9999,2.9999,2.9172,2.872,2.872,2.8107,2.7777,2.7777,2.7777,2.7586,2.721,2.721,2.721,0.0,0.0,0.0,0.0,0.0,0.0,2.7575,2.7652,2.7876,0.0,3.0972,3.1765,3.2524,3.3281,3.4022,3.4714,3.4527,3.4873,3.648,3.6667,3.6665,3.6711,3.6708,3.6603,3.6343,3.6289,3.6289,3.6289,3.6222,3.6189,3.6189,3.6189,3.6448,3.705,3.712,3.7318,3.7717,3.7662,3.7535,3.732,3.7291,3.7191,3.7,3.7,3.6816,3.6507,3.6507,3.6507,3.6507,3.6507,3.6507,3.6507,3.6507,3.6507,3.6492,3.6429,3.6069,3.5528,3.5006,3.4459,3.3931,3.3469,3.3308,3.3308,3.3308,3.3308,3.3308,3.3308,3.3308,3.3308,3.3308,3.3308,3.3308,3.3308,3.3308,3.3308,3.3308,3.3308,3.3308,3.3308,3.3308,3.3308,3.3308,3.3308,3.3308,3.3308,3.3308,3.3308,3.3308,3.3308,3.3308,3.3308,3.2931,3.2561,3.22,3.1831,3.1445,3.1099,3.0394,2.9979,2.9902,2.8811,2.8159,2.8099,2.7505,2.721,2.721,2.721,2.721,2.721,2.721,2.721,2.455,0.0,0.0,0.0,0.0,0.0,2.5695,2.6506,2.7428,0.0,2.9023,3.0196,3.0981,3.1573,3.2046,3.241,3.2491,3.3226,3.5255,3.529,3.5225,3.5505,3.5535,3.5727,3.6238,3.6289,3.6289,3.6289,3.5736,3.5409,3.5409,3.5409,3.5474,3.5603,3.5929,3.6258,3.6613,3.6127,3.6227,3.6908,3.671,3.6734,3.7,3.7,3.6816,3.6507,3.6507,3.6507,3.6507,3.6507,3.6507,3.6507,3.6507,3.6507,3.6445,3.6022,3.5527,3.4975,3.4442,3.3911,3.3434,3.3329,3.3308,3.3308,3.3308,3.3308,3.3308,3.3308,3.3308,3.3308,3.3308,3.3308,3.3308,3.3308,3.3308,3.3308,3.3308,3.3308,3.3308,3.3308,3.3308,3.3308,3.3308,3.3308,3.3308,3.3308,3.3308,3.3308,3.3308,3.3308,3.3308,3.3308,3.2931,3.2668,3.2596,3.1982,3.1574,3.1482,3.0552,2.9774,2.9309,2.8574,2.7958,2.7415,2.7272,2.721,2.721,2.721,2.721,2.721,2.721,2.721,0.0,0.0,0.0,2.6057,0.0,0.0,0.0,2.6437,2.6816,2.7221,2.8178,2.9075,2.948,3.0048,3.0567,3.0944,3.1363,3.1917,3.269,3.3264,3.3594,3.3599,3.3935,3.4307,3.4667,3.5007,3.5202,3.5202,3.4862,3.4648,3.4648,3.4648,3.4762,3.4987,3.5211,3.547,3.5854,3.5379,3.5395,3.5853,3.5726,3.5856,3.6258,3.6394,3.6474,3.6507,3.6507,3.6507,3.6507,3.6507,3.6507,3.6507,3.6507,3.6507,3.6476,3.621,3.5768,3.5219,3.4677,3.4153,3.3649,3.3382,3.3308,3.3308,3.3308,3.3308,3.3308,3.3308,3.3308,3.3308,3.3308,3.3308,3.3308,3.3308,3.3308,3.3308,3.3308,3.3308,3.3308,3.3308,3.3308,3.3308,3.3308,3.3308,3.3308,3.3308,3.3308,3.3308,3.3308,3.3308,3.3308,3.3308,3.2753,3.2399,3.2399,3.1721,3.1166,3.0816,3.0024,2.9289,2.8673,2.8047,2.7545,2.721,2.721,2.721,2.721,2.721,2.721,2.721,2.721,2.721,0.0,0.0,0.0,0.0,0.0,2.6808,0.0,0.0,0.0,2.7006,2.7669,0.0,0.0,0.0,0.0,0.0,0.0,0.0,0.0,3.0847,0.0,3.176,3.2433,3.2898,3.2898,3.3259,3.3574,3.3799,3.3739,3.3784,3.4009,3.4075,3.4258,3.4647,3.4611,3.4737,3.508,3.4703,3.4581,3.4706,3.4634,3.4863,3.5306,3.5529,3.5887,3.6322,3.6322,3.6384,3.6507,3.6507,3.6507,3.6507,3.6507,3.6507,3.6492,3.6383,3.6069,3.5623,3.4958,3.4459,3.4016,3.3472,3.3308,3.3308,3.3308,3.3308,3.3308,3.3308,3.3308,3.3308,3.3308,3.3308,3.3308,3.3308,3.3308,3.3308,3.3308,3.3308,3.3308,3.3308,3.3308,3.3308,3.3308,3.3308,3.3308,3.3308,3.3308,3.3308,3.3308,3.3308,3.3259,3.3188,3.2538,3.2073,3.2001,3.1402,3.0766,3.0241,2.962,2.8996,2.8407,2.7626,2.721,2.721,2.721,2.721,2.721,2.721,2.721,2.721,2.721,2.721,0.0,0.0,0.0,0.0,2.8696,0.0,0.0,0.0,2.7782,2.6498,0.0,0.0,0.0,0.0,0.0,0.0,0.0,0.0,2.7807,2.8063,2.8945,3.0791,3.1676,3.2113,3.2113,3.1612,3.1684,3.2691,3.245,3.268,3.3681,3.3975,3.412,3.4176,3.3951,3.3857,3.3882,3.3385,3.3427,3.4003,3.3706,3.3934,3.4613,3.4642,3.5012,3.5614,3.5614,3.5953,3.6507,3.6507,3.6507,3.6507,3.6507,3.6507,3.643,3.5974,3.5752,3.5559,3.4543,3.4138,3.4016,3.3472,3.3308,3.3308,3.3308,3.3308,3.3308,3.3308,3.3308,3.3308,3.3308,3.3308,3.3308,3.3308,3.3308,3.3308,3.3308,3.3308,3.3308,3.3308,3.3308,3.3308,3.3308,3.3308,3.3308,3.3308,3.3308,3.3308,3.3308,3.3308,3.3157,3.281,3.2363,3.1982,3.1685,3.1254,3.0968,3.0892,3.026,2.962,2.9023,2.7846,2.721,2.721,2.721,2.721,2.721,2.721,2.721,2.721,2.721,2.721,0.0,0.0,0.0,0.0,0.0,0.0,2.7661,0.0,2.7575,0.0,0.0,0.0,0.0,0.0,0.0,0.0,2.709,0.0,0.0,0.0,2.8034,0.0,0.0,0.0,3.1276,3.0983,3.1096,3.195,3.1502,3.169,3.2819,3.2985,3.3227,3.3629,3.3529,3.3464,3.3464,3.3083,3.3037,3.3318,3.2982,3.3183,3.386,3.386,3.4459,3.5491,3.5491,3.5876,3.6507,3.6507,3.6507,3.6507,3.6507,3.6507,3.6476,3.6258,3.6148,3.6053,3.5285,3.5039,3.489,3.4048,3.3559,3.3308,3.3308,3.3308,3.3308,3.3308,3.3308,3.3308,3.3308,3.3308,3.3308,3.3308,3.3308,3.3308,3.3308,3.3122,3.3033,3.3241,3.3104,3.2949,3.2949,3.3153,3.3224,3.2998,3.2949,3.286,3.2628,3.2592,3.2538,3.2363,3.2019,3.1758,3.1611,3.1235,3.0823,3.0451,2.9496,2.8831,2.8593,2.7696,2.721,2.721,2.721,2.721,2.721,2.721,2.721,2.721,2.721,2.721,3.0972,0.0,0.0,0.0,0.0,0.0,0.0,0.0,0.0,0.0,0.0,0.0,0.0,0.0,0.0,2.6615,0.0,2.6768,0.0,2.6257,0.0,0.0,0.0,0.0,0.0,2.9653,2.9751,3.0544,3.0013,3.0227,3.1539,3.1871,3.2307,3.3006,3.3135,3.3189,3.3189,3.2908,3.2759,3.2759,3.2523,3.2644,3.3121,3.3121,3.3783,3.4937,3.5137,3.5614,3.6245,3.6415,3.6507,3.6507,3.6507,3.6507,3.6507,3.6507,3.6507,3.6429,3.5894,3.551,3.5105,3.4187,3.3615,3.3308,3.3308,3.3308,3.3308,3.3308,3.3308,3.3308,3.3308,3.3308,3.3308,3.3308,3.3308,3.3308,3.3308,3.3069,3.2949,3.3241,3.3051,3.2828,3.2721,3.2931,3.2998,3.2596,3.2543,3.2435,3.2146,3.2092,3.2055,3.1964,3.1758,3.1556,3.1426,3.1161,3.071,3.0037,2.9184,2.8546,2.8219,2.7736,2.7383,2.721,2.721,2.721,2.721,2.721,2.721,2.721,2.721,2.721,0.0,0.0,0.0,3.0361,0.0,0.0,0.0,0.0,2.8161,0.0,0.0,0.0,0.0,0.0,2.707,2.6991,2.6452,0.0,0.0,0.0,0.0,0.0,0.0,0.0,0.0,2.6963,2.6897,0.0,2.7547,2.798,2.9779,3.0733,3.1576,3.2307,3.2714,3.291,3.291,3.2578,3.2425,3.2425,3.2411,3.2398,3.2428,3.2428,3.2813,3.3506,3.4213,3.4906,3.5583,3.623,3.6507,3.6507,3.6507,3.6507,3.6507,3.6507,3.6507,3.6429,3.5894,3.5008,3.4068,3.3507,3.3312,3.3308,3.3308,3.3308,3.3308,3.3308,3.3308,3.3308,3.3308,3.3308,3.3308,3.3308,3.3308,3.3308,3.3308,3.329,3.3276,3.3308,3.329,3.3171,3.2775,3.2721,3.2579,3.2182,3.211,3.211,3.2092,3.2092,3.1982,3.1648,3.1611,3.1426,3.1061,3.1005,3.071,3.0037,2.996,2.9419,2.8259,2.8179,2.7857,2.721,2.721,2.721,2.721,2.721,2.721,2.721,2.721,2.721,0.0,0.0,3.261,3.1159,0.0,0.0,0.0,0.0,0.0,0.0,0.0,0.0,0.0,0.0,2.6982,2.6825,2.6349,2.5769,0.0,0.0,0.0,0.0,0.0,0.0,0.0,0.0,0.0,2.7262,2.6613,0.0,2.8785,2.9167,3.0158,3.1904,3.2094,3.24,3.2897,3.2786,3.2621,3.2398,3.2398,3.2398,3.2398,3.2398,3.2767,3.3444,3.4182,3.489,3.5552,3.623,3.6507,3.6507,3.6507,3.6507,3.6507,3.6507,3.6507,3.6476,3.6289,3.5768,3.5072,3.4524,3.4133,3.3756,3.3417,3.3308,3.3308,3.3308,3.3308,3.3308,3.3308,3.3308,3.3308,3.3308,3.3308,3.3308,3.3308,3.3086,3.298,3.3241,3.3086,3.286,3.2721,3.2704,3.2561,3.2164,3.1909,3.1776,3.1776,3.1537,3.1328,3.1216,3.1198,3.1142,3.1005,3.1005,3.0911,3.0672,2.9883,2.9231,2.8799,2.7987,2.7423,2.721,2.721,2.721,2.721,2.721,2.721,2.721,2.721,2.721,3.3402,3.3394,3.3018,3.1851,3.0993,0.0,2.8861,0.0,2.8575,0.0,0.0,0.0,0.0,0.0,2.7035,2.7148,2.6525,2.5543,0.0,2.343,0.0,0.0,0.0,0.0,0.0,0.0,2.529,2.6089,2.5342,0.0,0.0,2.7769,2.8836,3.0545,3.1275,3.1894,3.2359,3.2608,3.2621,3.2398,3.2398,3.2398,3.2398,3.2398,3.2628,3.3075,3.3797,3.4505,3.5198,3.5876,3.6276,3.6507,3.6507,3.6507,3.6507,3.6507,3.6507,3.6476,3.6273,3.599,3.5576,3.4843,3.4291,3.3814,3.342,3.3206,3.3122,3.3259,3.3188,3.3122,3.3259,3.31,3.2959,3.3224,3.3188,3.3136,3.3273,3.2984,3.2775,3.3033,3.2771,3.2453,3.2327,3.2417,3.2399,3.2146,3.1909,3.1776,3.1776,3.1445,3.1216,3.1216,3.1099,3.1005,3.1005,3.1005,3.0911,3.0672,2.9871,2.9231,2.8799,2.7987,2.7444,2.721,2.721,2.721,2.721,2.721,2.721,2.721,2.721,2.721]}]]